[[{"header":{"parameterUnit":"m.s-1","parameterCategory":1,"la1":31.0,"la2":29.5877,"lo1":-88.7671,"lo2":-86.6584,"dy":0.0162,"dx":0.0185,"nx":115,"ny":88,"refTime":"2023-08-06T00:00:00:Z","depth":0,"parameterNumber":2,"parameterNumberName":"U-component_of_WINDS"},"data":[0.0,0.0,0.0,0.0,0.0,0.0,0.0,0.0,0.0,0.0,0.0,0.0,0.0,0.0,0.0,0.0,0.0,0.0,0.0,0.0,0.0,0.0,0.0,0.0,0.0,0.0,0.0,0.0,0.0,0.0,0.0,0.0,0.0,0.0,0.0,0.0,0.0,0.0,0.0,0.0,0.0,0.0,0.0,0.0,0.0,0.0,0.0,0.0,0.0,0.0,0.0,0.0,0.0,0.0,0.0,0.0,0.0,0.0,0.0,0.0,0.0,0.0,0.0,0.0,0.0,0.0,0.0,0.0,0.0,0.0,0.0,0.0,0.0,0.0,0.0,0.0,0.0,0.0,0.0,0.0,0.0,0.0,0.0,0.0,0.0,0.0,0.0,0.0,0.0,0.0,0.0,0.0,0.0,0.0,0.0,0.0,0.0,0.0,0.0,0.0,0.0,0.0,0.0,0.0,0.0,0.0,0.0,0.0,0.0,0.0,0.0,0.0,0.0,0.0,0.0,0.0,0.0,0.0,0.0,0.0,0.0,0.0,0.0,0.0,0.0,0.0,0.0,0.0,0.0,0.0,0.0,0.0,0.0,0.0,0.0,0.0,0.0,0.0,0.0,0.0,0.0,0.0,0.0,0.0,0.0,0.0,0.0,0.0,0.0,0.0,0.0,0.0,0.0,0.0,0.0,0.0,0.0,0.0,0.0,0.0,0.0,0.0,0.0,0.0,0.0,0.0,0.0,0.0,0.0,0.0,0.0,0.0,0.0,0.0,0.0,0.0,0.0,0.0,0.0,0.0,0.0,0.0,0.0,0.0,0.0,0.0,0.0,0.0,0.0,0.0,0.0,0.0,0.0,0.0,0.0,0.0,0.0,0.0,0.0,0.0,0.0,0.0,0.0,0.0,0.0,0.0,0.0,0.0,0.0,0.0,0.0,0.0,0.0,0.0,0.0,0.0,0.0,0.0,0.0,0.0,0.0,0.0,0.0,0.0,0.0,0.0,0.0,0.0,0.0,0.0,0.0,0.0,0.0,0.0,0.0,0.0,0.0,0.0,0.0,0.0,0.0,0.0,0.0,0.0,0.0,0.0,0.0,0.0,0.0,0.0,0.0,0.0,0.0,0.0,0.0,0.0,0.0,0.0,0.0,0.0,0.0,0.0,0.0,0.0,0.0,0.0,0.0,0.0,0.0,0.0,0.0,0.0,0.0,0.0,0.0,0.0,0.0,0.0,0.0,0.0,0.0,0.0,0.0,0.0,0.0,0.0,0.0,0.0,0.0,0.0,0.0,0.0,0.0,0.0,0.0,0.0,0.0,0.0,0.0,0.0,0.0,0.0,0.0,0.0,0.0,0.0,0.0,0.0,0.0,0.0,0.0,0.0,0.0,0.0,0.0,0.0,0.0,0.0,0.0,0.0,0.0,0.0,0.0,0.0,0.0,0.0,0.0,0.0,0.0,0.0,0.0,0.0,0.0,0.0,0.0,0.0,0.0,0.0,0.0,0.0,0.0,0.0,0.0,0.0,0.0,0.0,0.0,0.0,0.0,0.0,0.0,0.0,0.0,0.0,0.0,0.0,0.0,0.0,0.0,0.0,0.0,0.0,0.0,0.0,0.0,0.0,0.0,0.0,0.0,0.0,0.0,0.0,0.0,0.0,0.0,0.0,0.0,0.0,0.0,0.0,0.0,0.0,0.0,0.0,0.0,0.0,0.0,0.0,0.0,0.0,0.0,0.0,0.0,0.0,0.0,0.0,0.0,0.0,0.0,0.0,0.0,0.0,0.0,0.0,0.0,0.0,0.0,0.0,0.0,0.0,0.0,0.0,0.0,0.0,0.0,0.0,0.0,0.0,0.0,0.0,0.0,0.0,0.0,0.0,0.0,0.0,0.0,0.0,0.0,0.0,0.0,0.0,0.0,0.0,0.0,0.0,0.0,0.0,0.0,0.0,0.0,0.0,0.0,0.0,0.0,0.0,0.0,0.0,0.0,0.0,0.0,0.0,0.0,0.0,0.0,0.0,0.0,0.0,0.0,0.0,0.0,0.0,0.0,0.0,0.0,0.0,0.0,0.0,0.0,0.0,0.0,0.0,0.0,0.0,0.0,0.0,0.0,0.0,0.0,0.0,0.0,0.0,0.0,0.0,0.0,0.0,0.0,0.0,0.0,0.0,0.0,0.0,0.0,0.0,0.0,0.0,0.0,0.0,0.0,0.0,0.0,0.0,0.0,0.0,0.0,0.0,0.0,0.0,0.0,0.0,0.0,0.0,0.0,0.0,0.0,0.0,0.0,0.0,0.0,0.0,0.0,0.0,0.0,0.0,0.0,0.0,0.0,0.0,0.0,0.0,0.0,0.0,0.0,0.0,0.0,0.0,0.0,0.0,0.0,0.0,0.0,0.0,0.0,0.0,0.0,0.0,0.0,0.0,0.0,0.0,0.0,0.0,0.0,0.0,0.0,0.0,0.0,0.0,0.0,0.0,0.0,0.0,0.0,0.0,0.0,0.0,0.0,0.0,0.0,0.0,0.0,0.0,0.0,0.0,0.0,0.0,0.0,0.0,0.0,0.0,0.0,0.0,0.0,0.0,0.0,0.0,0.0,0.0,0.0,0.0,0.0,0.0,0.0,0.0,0.0,0.0,0.0,0.0,0.0,0.0,0.0,0.0,0.0,0.0,0.0,0.0,0.0,0.0,0.0,0.0,0.0,0.0,0.0,0.0,0.0,0.0,0.0,0.0,0.0,0.0,0.0,0.0,0.0,0.0,0.0,0.0,0.0,0.0,0.0,0.0,0.0,0.0,0.0,0.0,0.0,0.0,0.0,0.0,0.0,0.0,0.0,0.0,0.0,0.0,0.0,0.0,0.0,0.0,0.0,0.0,0.0,0.0,0.0,0.0,0.0,0.0,0.0,0.0,0.0,0.0,0.0,0.0,0.0,0.0,0.0,0.0,0.0,0.0,0.0,0.0,0.0,0.0,0.0,0.0,0.0,0.0,0.0,0.0,0.0,0.0,0.0,0.0,0.0,0.0,0.0,0.0,0.0,0.0,0.0,0.0,0.0,0.0,0.0,0.0,0.0,0.0,0.0,0.0,0.0,0.0,0.0,0.0,0.0,0.0,0.0,0.0,0.0,0.0,0.0,0.0,0.0,0.0,0.0,0.0,0.0,0.0,0.0,0.0,0.0,0.0,0.0,0.0,0.0,0.0,0.0,0.0,0.0,0.0,0.0,0.0,0.0,0.0,0.0,0.0,0.0,0.0,0.0,0.0,0.0,0.0,0.0,0.0,0.0,0.0,0.0,0.0,0.0,0.0,0.0,0.0,0.0,0.0,0.0,0.0,0.0,0.0,0.0,0.0,0.0,0.0,0.0,0.0,0.0,0.0,0.0,0.0,0.0,0.0,0.0,0.0,0.0,0.0,0.0,0.0,0.0,0.0,0.0,0.0,0.0,0.0,0.0,0.0,0.0,0.0,0.0,0.0,0.0,0.0,0.0,0.0,0.0,0.0,0.0,0.0,0.0,0.0,0.0,0.0,0.0,0.0,0.0,0.0,0.0,0.0,0.0,0.0,0.0,0.0,0.0,0.0,0.0,0.0,0.0,0.0,0.0,0.0,0.0,0.0,0.0,0.0,0.0,0.0,0.0,0.0,0.0,0.0,0.0,0.0,0.0,0.0,0.0,0.0,0.0,0.0,0.0,0.0,0.0,0.0,0.0,0.0,0.0,0.0,0.0,0.0,0.0,0.0,0.0,0.0,0.0,0.0,0.0,0.0,0.0,0.0,0.0,0.0,0.0,0.0,0.0,0.0,0.0,0.0,0.0,0.0,0.0,0.0,0.0,0.0,0.0,0.0,0.0,0.0,0.0,0.0,0.0,0.0,0.0,0.0,0.0,0.0,0.0,0.0,0.0,0.0,0.0,0.0,0.0,0.0,0.0,0.0,0.0,0.0,0.0,0.0,0.0,0.0,0.0,0.0,0.0,0.0,0.0,0.0,0.0,0.0,0.0,0.0,0.0,0.0,0.0,0.0,0.0,0.0,0.0,0.0,0.0,0.0,0.0,0.0,0.0,0.0,0.0,0.0,0.0,0.0,0.0,0.0,0.0,0.0,0.0,0.0,0.0,0.0,0.0,0.0,0.0,0.0,0.0,0.0,0.0,0.0,0.0,0.0,0.0,0.0,0.0,0.0,0.0,0.0,0.0,0.0,0.0,0.0,0.0,0.0,0.0,0.0,0.0,0.0,0.0,0.0,0.0,0.0,0.0,0.0,0.0,0.0,-2.0104,0.0,0.0,0.0,0.0,0.0,0.0,0.0,0.0,0.0,0.0,0.0,0.0,0.0,0.0,0.0,0.0,0.0,0.0,0.0,0.0,0.0,0.0,0.0,0.0,0.0,0.0,0.0,0.0,0.0,0.0,0.0,0.0,0.0,0.0,0.0,0.0,0.0,0.0,0.0,0.0,0.0,0.0,0.0,0.0,0.0,0.0,0.0,0.0,0.0,0.0,0.0,0.0,0.0,0.0,0.0,0.0,0.0,0.0,0.0,0.0,0.0,0.0,0.0,0.0,0.0,0.0,0.0,0.0,0.0,0.0,0.0,0.0,0.0,0.0,0.0,0.0,0.0,0.0,0.0,0.0,0.0,0.0,0.0,0.0,0.0,0.0,0.0,0.0,0.0,0.0,0.0,0.0,0.0,0.0,0.0,0.0,0.0,0.0,0.0,0.0,0.0,0.0,0.0,0.0,0.0,0.0,0.0,0.0,0.0,0.0,-2.2192,-2.3025,-2.3056,-2.2846,-2.2367,0.0,0.0,0.0,0.0,0.0,0.0,0.0,0.0,0.0,0.0,0.0,0.0,0.0,0.0,0.0,0.0,0.0,0.0,0.0,0.0,0.0,0.0,0.0,0.0,0.0,0.0,0.0,0.0,0.0,0.0,0.0,0.0,0.0,0.0,0.0,0.0,0.0,0.0,0.0,0.0,0.0,0.0,0.0,0.0,0.0,0.0,0.0,0.0,0.0,0.0,0.0,0.0,0.0,0.0,0.0,0.0,0.0,0.0,0.0,0.0,0.0,0.0,0.0,0.0,0.0,0.0,0.0,0.0,0.0,0.0,0.0,0.0,0.0,0.0,0.0,0.0,0.0,0.0,0.0,0.0,0.0,0.0,0.0,0.0,0.0,0.0,0.0,0.0,0.0,0.0,0.0,0.0,0.0,0.0,0.0,0.0,0.0,0.0,0.0,0.0,0.0,0.0,0.0,0.0,0.0,0.0,0.0,0.0,0.0,0.0,0.0,0.0,-2.511,-2.46,-2.3543,0.0,0.0,0.0,0.0,0.0,0.0,0.0,0.0,0.0,0.0,0.0,0.0,0.0,0.0,0.0,0.0,0.0,0.0,0.0,0.0,0.0,0.0,0.0,0.0,0.0,0.0,0.0,0.0,0.0,0.0,0.0,0.0,0.0,0.0,0.0,0.0,0.0,0.0,0.0,0.0,0.0,0.0,0.0,0.0,0.0,0.0,0.0,0.0,0.0,0.0,0.0,0.0,0.0,0.0,0.0,0.0,0.0,0.0,0.0,0.0,0.0,0.0,0.0,0.0,0.0,0.0,0.0,0.0,0.0,0.0,0.0,0.0,0.0,0.0,0.0,0.0,0.0,0.0,0.0,0.0,0.0,0.0,0.0,0.0,0.0,0.0,0.0,0.0,0.0,0.0,0.0,0.0,0.0,0.0,0.0,0.0,0.0,0.0,0.0,0.0,0.0,0.0,0.0,0.0,0.0,0.0,0.0,0.0,0.0,0.0,-2.4897,-2.4224,-2.4263,0.0,-2.1854,0.0,0.0,0.0,0.0,0.0,0.0,0.0,0.0,0.0,0.0,0.0,0.0,0.0,0.0,0.0,0.0,0.0,0.0,0.0,0.0,0.0,0.0,0.0,0.0,0.0,0.0,0.0,0.0,0.0,0.0,0.0,0.0,0.0,0.0,0.0,0.0,0.0,0.0,0.0,0.0,0.0,0.0,0.0,0.0,0.0,0.0,0.0,0.0,0.0,0.0,0.0,0.0,0.0,0.0,0.0,0.0,0.0,0.0,0.0,0.0,0.0,0.0,0.0,0.0,0.0,0.0,0.0,0.0,0.0,0.0,0.0,0.0,0.0,0.0,0.0,0.0,0.0,0.0,0.0,0.0,0.0,0.0,0.0,0.0,0.0,0.0,0.0,0.0,0.0,0.0,0.0,0.0,0.0,0.0,0.0,0.0,0.0,0.0,0.0,0.0,0.0,0.0,0.0,0.0,0.0,0.0,0.0,0.0,0.0,0.0,-2.7336,-2.8526,-2.7528,-2.5981,0.0,0.0,0.0,0.0,0.0,0.0,0.0,0.0,0.0,0.0,0.0,0.0,0.0,0.0,0.0,0.0,0.0,0.0,0.0,0.0,0.0,0.0,0.0,0.0,0.0,0.0,0.0,0.0,0.0,0.0,0.0,0.0,0.0,0.0,0.0,0.0,0.0,0.0,0.0,0.0,0.0,0.0,0.0,0.0,0.0,0.0,0.0,0.0,0.0,0.0,0.0,0.0,0.0,0.0,0.0,0.0,0.0,0.0,0.0,0.0,0.0,0.0,0.0,0.0,0.0,0.0,0.0,0.0,0.0,0.0,0.0,0.0,0.0,0.0,0.0,0.0,0.0,0.0,0.0,0.0,0.0,0.0,0.0,0.0,0.0,0.0,0.0,0.0,0.0,0.0,0.0,0.0,0.0,0.0,0.0,0.0,0.0,0.0,0.0,0.0,0.0,0.0,0.0,0.0,0.0,0.0,0.0,0.0,0.0,0.0,-2.7165,-2.9078,-3.0355,-2.9283,-2.7318,-2.453,0.0,0.0,0.0,0.0,0.0,0.0,0.0,0.0,0.0,0.0,0.0,0.0,0.0,0.0,0.0,0.0,0.0,0.0,0.0,0.0,0.0,0.0,0.0,0.0,0.0,0.0,0.0,0.0,0.0,0.0,0.0,0.0,0.0,0.0,0.0,0.0,0.0,0.0,0.0,0.0,0.0,0.0,0.0,0.0,0.0,0.0,0.0,0.0,0.0,0.0,0.0,0.0,0.0,0.0,0.0,0.0,0.0,0.0,0.0,0.0,0.0,0.0,0.0,0.0,0.0,0.0,0.0,0.0,0.0,0.0,0.0,0.0,0.0,0.0,0.0,0.0,0.0,0.0,0.0,0.0,0.0,0.0,0.0,0.0,0.0,0.0,0.0,0.0,0.0,0.0,0.0,0.0,0.0,0.0,0.0,0.0,0.0,0.0,0.0,0.0,0.0,0.0,0.0,0.0,0.0,0.0,0.0,0.0,-2.4148,-2.7969,-2.9331,-2.7929,-2.77,-2.6111,0.0,0.0,0.0,0.0,0.0,0.0,0.0,0.0,0.0,0.0,0.0,0.0,0.0,0.0,0.0,0.0,0.0,0.0,0.0,0.0,0.0,0.0,0.0,0.0,0.0,0.0,0.0,0.0,0.0,0.0,0.0,0.0,0.0,0.0,0.0,0.0,0.0,0.0,0.0,0.0,0.0,0.0,0.0,0.0,0.0,0.0,0.0,0.0,0.0,0.0,0.0,0.0,0.0,0.0,0.0,0.0,0.0,0.0,0.0,0.0,0.0,0.0,0.0,0.0,0.0,0.0,0.0,0.0,0.0,0.0,0.0,0.0,0.0,0.0,0.0,0.0,0.0,0.0,0.0,0.0,0.0,0.0,0.0,0.0,0.0,0.0,0.0,0.0,0.0,0.0,0.0,0.0,0.0,0.0,0.0,0.0,0.0,0.0,0.0,0.0,0.0,0.0,0.0,0.0,0.0,0.0,0.0,0.0,0.0,-2.4677,-2.8639,-3.0186,-2.8985,-2.7956,-2.6062,0.0,0.0,0.0,0.0,0.0,0.0,0.0,0.0,0.0,0.0,0.0,0.0,0.0,0.0,0.0,0.0,0.0,0.0,0.0,0.0,0.0,0.0,0.0,0.0,0.0,0.0,0.0,0.0,0.0,0.0,0.0,0.0,0.0,0.0,0.0,0.0,0.0,0.0,0.0,0.0,0.0,0.0,0.0,0.0,0.0,0.0,0.0,0.0,0.0,0.0,0.0,0.0,0.0,0.0,0.0,0.0,0.0,0.0,0.0,0.0,0.0,0.0,0.0,0.0,0.0,0.0,0.0,0.0,0.0,0.0,0.0,0.0,0.0,0.0,0.0,0.0,0.0,0.0,0.0,0.0,0.0,0.0,0.0,0.0,0.0,0.0,0.0,0.0,0.0,0.0,0.0,0.0,0.0,0.0,0.0,0.0,0.0,0.0,0.0,0.0,0.0,0.0,0.0,0.0,0.0,0.0,0.0,0.0,0.0,-2.6458,0.0,-3.0602,-2.9645,-2.8327,-2.6296,0.0,0.0,0.0,0.0,0.0,0.0,0.0,0.0,0.0,0.0,0.0,0.0,0.0,0.0,0.0,0.0,0.0,0.0,0.0,0.0,0.0,0.0,0.0,0.0,0.0,0.0,0.0,0.0,0.0,0.0,0.0,0.0,0.0,0.0,0.0,0.0,0.0,0.0,0.0,0.0,0.0,0.0,0.0,0.0,0.0,0.0,0.0,0.0,0.0,0.0,0.0,0.0,0.0,0.0,0.0,0.0,0.0,0.0,0.0,0.0,0.0,0.0,0.0,0.0,0.0,0.0,0.0,0.0,0.0,0.0,0.0,0.0,0.0,0.0,0.0,0.0,0.0,0.0,0.0,0.0,0.0,0.0,0.0,0.0,0.0,0.0,0.0,0.0,0.0,0.0,0.0,0.0,0.0,0.0,0.0,0.0,0.0,0.0,0.0,0.0,0.0,0.0,0.0,0.0,0.0,0.0,0.0,0.0,-2.5612,-2.9476,-3.0471,-3.0545,-2.9566,-2.8726,-2.6673,0.0,0.0,0.0,0.0,0.0,0.0,0.0,0.0,0.0,0.0,0.0,0.0,0.0,0.0,0.0,0.0,0.0,0.0,0.0,0.0,0.0,0.0,0.0,0.0,0.0,0.0,0.0,0.0,0.0,0.0,0.0,0.0,0.0,0.0,0.0,0.0,0.0,0.0,0.0,0.0,0.0,0.0,0.0,0.0,0.0,0.0,0.0,0.0,0.0,0.0,0.0,0.0,0.0,0.0,0.0,0.0,0.0,0.0,0.0,0.0,0.0,0.0,0.0,0.0,0.0,0.0,0.0,0.0,0.0,0.0,0.0,0.0,0.0,0.0,0.0,0.0,0.0,0.0,0.0,0.0,0.0,0.0,0.0,0.0,0.0,0.0,0.0,0.0,0.0,0.0,0.0,0.0,0.0,0.0,0.0,0.0,0.0,0.0,0.0,0.0,0.0,0.0,0.0,0.0,0.0,0.0,0.0,0.0,0.0,-3.0113,-3.1563,-3.1593,-3.0154,-2.8746,-2.6467,0.0,0.0,0.0,0.0,0.0,0.0,0.0,0.0,0.0,0.0,0.0,0.0,0.0,0.0,0.0,0.0,0.0,0.0,0.0,0.0,0.0,0.0,0.0,0.0,0.0,0.0,0.0,0.0,0.0,0.0,0.0,0.0,0.0,0.0,0.0,0.0,0.0,0.0,0.0,0.0,0.0,0.0,0.0,0.0,0.0,0.0,0.0,0.0,0.0,0.0,0.0,0.0,0.0,0.0,0.0,0.0,0.0,0.0,0.0,0.0,0.0,0.0,0.0,0.0,0.0,0.0,0.0,0.0,0.0,0.0,0.0,0.0,0.0,0.0,0.0,0.0,0.0,0.0,0.0,0.0,0.0,0.0,0.0,0.0,0.0,0.0,0.0,0.0,0.0,0.0,0.0,0.0,0.0,0.0,0.0,0.0,0.0,0.0,0.0,0.0,0.0,0.0,0.0,0.0,0.0,0.0,0.0,0.0,0.0,-3.2932,-3.3795,-3.3536,-3.2195,-3.0572,-2.8043,-2.4523,0.0,0.0,0.0,0.0,0.0,0.0,0.0,0.0,0.0,0.0,0.0,0.0,0.0,0.0,0.0,0.0,0.0,0.0,0.0,0.0,0.0,0.0,0.0,0.0,0.0,0.0,0.0,0.0,0.0,0.0,0.0,0.0,0.0,0.0,0.0,0.0,0.0,0.0,0.0,0.0,0.0,0.0,0.0,0.0,0.0,0.0,0.0,0.0,0.0,0.0,0.0,0.0,0.0,0.0,0.0,0.0,0.0,0.0,0.0,0.0,0.0,0.0,0.0,0.0,0.0,0.0,0.0,0.0,0.0,0.0,0.0,0.0,0.0,0.0,0.0,0.0,0.0,0.0,0.0,0.0,0.0,0.0,0.0,0.0,0.0,0.0,0.0,0.0,0.0,0.0,0.0,0.0,0.0,0.0,0.0,0.0,0.0,0.0,0.0,0.0,0.0,0.0,0.0,0.0,0.0,0.0,0.0,0.0,-3.7507,-3.7071,-3.6362,-3.5285,-3.3703,-3.0919,0.0,0.0,0.0,0.0,0.0,0.0,0.0,0.0,0.0,0.0,0.0,0.0,0.0,0.0,0.0,0.0,0.0,0.0,0.0,0.0,0.0,0.0,0.0,0.0,0.0,0.0,0.0,0.0,0.0,0.0,0.0,0.0,0.0,0.0,0.0,0.0,0.0,0.0,0.0,0.0,0.0,0.0,0.0,0.0,0.0,0.0,0.0,0.0,0.0,0.0,0.0,0.0,0.0,0.0,0.0,0.0,0.0,0.0,0.0,0.0,0.0,0.0,0.0,0.0,0.0,0.0,0.0,0.0,0.0,0.0,0.0,0.0,0.0,0.0,0.0,0.0,0.0,0.0,0.0,0.0,0.0,0.0,0.0,0.0,0.0,0.0,0.0,0.0,0.0,0.0,0.0,0.0,0.0,0.0,0.0,0.0,0.0,0.0,0.0,0.0,0.0,0.0,0.0,0.0,0.0,0.0,0.0,0.0,0.0,-3.8285,-4.0483,-4.0404,-3.7838,-3.6185,-3.2878,0.0,0.0,0.0,0.0,0.0,0.0,0.0,0.0,0.0,0.0,0.0,0.0,0.0,0.0,0.0,0.0,0.0,0.0,0.0,0.0,0.0,0.0,0.0,0.0,0.0,0.0,0.0,0.0,0.0,0.0,0.0,0.0,0.0,0.0,0.0,0.0,0.0,0.0,0.0,0.0,0.0,0.0,0.0,0.0,0.0,0.0,0.0,0.0,0.0,0.0,0.0,0.0,0.0,0.0,0.0,0.0,0.0,0.0,0.0,0.0,0.0,0.0,0.0,0.0,0.0,0.0,0.0,0.0,0.0,0.0,0.0,0.0,0.0,0.0,0.0,0.0,0.0,0.0,0.0,0.0,0.0,0.0,0.0,0.0,0.0,0.0,0.0,0.0,0.0,0.0,0.0,0.0,0.0,0.0,0.0,0.0,0.0,0.0,0.0,0.0,0.0,0.0,0.0,0.0,0.0,0.0,0.0,0.0,-3.683,-4.0634,-4.3204,-4.3642,-4.1838,-3.8934,-3.5211,0.0,0.0,0.0,0.0,0.0,0.0,0.0,0.0,0.0,0.0,0.0,0.0,0.0,0.0,0.0,0.0,0.0,0.0,0.0,0.0,0.0,0.0,0.0,0.0,0.0,0.0,0.0,0.0,0.0,0.0,0.0,0.0,0.0,0.0,0.0,0.0,0.0,0.0,0.0,0.0,0.0,0.0,0.0,0.0,0.0,0.0,0.0,0.0,0.0,0.0,0.0,0.0,0.0,0.0,0.0,0.0,0.0,0.0,0.0,0.0,0.0,0.0,0.0,0.0,0.0,0.0,0.0,0.0,0.0,0.0,0.0,0.0,0.0,0.0,0.0,0.0,0.0,0.0,0.0,0.0,0.0,0.0,0.0,0.0,0.0,0.0,0.0,0.0,0.0,0.0,0.0,0.0,0.0,0.0,0.0,0.0,0.0,0.0,0.0,0.0,0.0,0.0,0.0,0.0,0.0,0.0,0.0,0.0,-3.8994,-4.3497,-4.5259,-4.6214,-4.6211,-4.1719,-3.7624,0.0,0.0,0.0,0.0,0.0,0.0,0.0,0.0,0.0,0.0,0.0,0.0,0.0,0.0,0.0,0.0,0.0,0.0,0.0,0.0,0.0,0.0,0.0,0.0,0.0,0.0,0.0,0.0,0.0,0.0,0.0,0.0,0.0,0.0,0.0,0.0,0.0,0.0,0.0,0.0,0.0,0.0,0.0,0.0,0.0,0.0,0.0,0.0,0.0,0.0,0.0,0.0,0.0,0.0,0.0,0.0,0.0,0.0,0.0,0.0,0.0,0.0,0.0,0.0,0.0,0.0,0.0,0.0,0.0,0.0,0.0,0.0,0.0,0.0,0.0,0.0,0.0,0.0,0.0,0.0,0.0,0.0,0.0,0.0,0.0,0.0,0.0,0.0,0.0,0.0,0.0,0.0,0.0,0.0,0.0,0.0,0.0,0.0,0.0,0.0,0.0,0.0,0.0,0.0,0.0,0.0,0.0,0.0,-4.0919,-4.4378,-4.6654,-4.7868,-4.8052,-4.3889,-3.954,0.0,0.0,0.0,0.0,0.0,0.0,0.0,0.0,0.0,0.0,0.0,0.0,0.0,0.0,0.0,0.0,0.0,0.0,0.0,0.0,0.0,0.0,0.0,0.0,0.0,0.0,0.0,0.0,0.0,0.0,0.0,0.0,0.0,0.0,0.0,0.0,0.0,0.0,0.0,0.0,0.0,0.0,0.0,0.0,0.0,0.0,0.0,0.0,-1.6548,0.0,0.0,0.0,0.0,0.0,0.0,0.0,0.0,0.0,0.0,0.0,0.0,0.0,0.0,0.0,0.0,0.0,0.0,0.0,0.0,0.0,0.0,0.0,0.0,0.0,0.0,0.0,0.0,0.0,0.0,0.0,0.0,0.0,0.0,0.0,0.0,0.0,0.0,0.0,0.0,0.0,0.0,0.0,0.0,0.0,0.0,0.0,0.0,0.0,0.0,0.0,0.0,0.0,0.0,0.0,0.0,0.0,0.0,0.0,-4.2684,-4.5773,-4.7829,-4.8787,-4.8458,-4.5254,-4.1525,0.0,0.0,0.0,0.0,0.0,0.0,0.0,0.0,0.0,0.0,0.0,0.0,0.0,0.0,0.0,0.0,0.0,0.0,0.0,0.0,0.0,0.0,0.0,0.0,0.0,0.0,0.0,0.0,0.0,0.0,0.0,0.0,0.0,0.0,0.0,0.0,0.0,0.0,0.0,0.0,0.0,0.0,0.0,0.0,0.0,0.0,0.0,0.0,0.0,0.0,0.0,0.0,0.0,0.0,0.0,0.0,0.0,0.0,0.0,0.0,0.0,0.0,0.0,0.0,0.0,0.0,0.0,0.0,0.0,0.0,0.0,0.0,0.0,0.0,0.0,0.0,0.0,0.0,0.0,0.0,0.0,0.0,0.0,0.0,0.0,0.0,0.0,0.0,0.0,0.0,0.0,0.0,0.0,0.0,0.0,0.0,0.0,0.0,0.0,0.0,0.0,0.0,0.0,0.0,0.0,0.0,0.0,-4.0556,-4.4193,-4.7205,-4.893,-4.9299,-4.831,-4.5917,-4.2816,-3.8979,0.0,0.0,0.0,0.0,0.0,0.0,0.0,0.0,0.0,0.0,0.0,0.0,0.0,0.0,0.0,0.0,0.0,0.0,0.0,0.0,0.0,0.0,0.0,0.0,0.0,0.0,0.0,0.0,0.0,0.0,0.0,0.0,0.0,0.0,0.0,0.0,0.0,0.0,-1.8183,-1.8437,0.0,0.0,0.0,0.0,0.0,0.0,0.0,0.0,-1.7327,0.0,0.0,0.0,0.0,0.0,0.0,0.0,0.0,0.0,0.0,0.0,0.0,0.0,0.0,0.0,0.0,0.0,0.0,0.0,0.0,0.0,0.0,0.0,0.0,0.0,0.0,0.0,0.0,0.0,0.0,0.0,0.0,0.0,0.0,0.0,0.0,0.0,0.0,0.0,0.0,0.0,0.0,0.0,0.0,0.0,0.0,0.0,0.0,0.0,0.0,0.0,0.0,0.0,0.0,0.0,0.0,-3.7161,-4.1852,-4.548,-4.8049,-4.9738,-4.9593,-4.7537,-4.5107,-4.1903,-3.7948,0.0,0.0,0.0,0.0,0.0,0.0,0.0,0.0,0.0,0.0,0.0,0.0,0.0,0.0,0.0,0.0,0.0,0.0,0.0,0.0,0.0,0.0,0.0,0.0,0.0,0.0,0.0,0.0,0.0,0.0,0.0,0.0,0.0,0.0,0.0,0.0,0.0,0.0,0.0,-1.9827,-1.9834,0.0,0.0,0.0,0.0,0.0,0.0,0.0,0.0,-1.707,0.0,0.0,0.0,0.0,0.0,0.0,0.0,0.0,0.0,0.0,0.0,0.0,0.0,0.0,0.0,0.0,0.0,0.0,0.0,0.0,0.0,0.0,0.0,0.0,0.0,0.0,0.0,0.0,0.0,0.0,0.0,0.0,0.0,0.0,0.0,0.0,0.0,0.0,0.0,0.0,0.0,0.0,0.0,0.0,0.0,0.0,0.0,0.0,0.0,0.0,0.0,0.0,0.0,0.0,0.0,-3.6468,-4.1389,-4.504,-4.7569,-4.9621,-4.9588,-4.7205,-4.4745,-4.1372,0.0,0.0,0.0,0.0,0.0,0.0,0.0,0.0,0.0,0.0,0.0,0.0,0.0,0.0,0.0,0.0,0.0,0.0,0.0,0.0,0.0,0.0,0.0,0.0,0.0,0.0,0.0,0.0,0.0,0.0,0.0,0.0,0.0,0.0,0.0,0.0,0.0,0.0,0.0,0.0,-1.9662,-1.9947,-2.0074,0.0,0.0,0.0,0.0,0.0,0.0,-1.826,-1.7962,0.0,0.0,0.0,0.0,0.0,0.0,0.0,0.0,0.0,0.0,0.0,0.0,0.0,0.0,0.0,0.0,0.0,0.0,0.0,0.0,0.0,0.0,0.0,0.0,0.0,0.0,0.0,0.0,0.0,0.0,0.0,0.0,0.0,0.0,0.0,0.0,0.0,0.0,0.0,0.0,0.0,0.0,0.0,0.0,0.0,0.0,0.0,0.0,0.0,0.0,0.0,0.0,0.0,0.0,0.0,-3.5675,-4.0636,-4.4376,-4.6752,-4.8831,-4.8871,-4.6645,-4.3944,-4.0333,0.0,0.0,0.0,0.0,0.0,0.0,0.0,0.0,0.0,0.0,0.0,0.0,0.0,0.0,0.0,0.0,0.0,0.0,0.0,0.0,0.0,0.0,0.0,0.0,0.0,0.0,0.0,0.0,0.0,0.0,0.0,0.0,0.0,0.0,0.0,0.0,0.0,0.0,0.0,0.0,0.0,-1.9936,-2.0834,-1.9949,0.0,0.0,0.0,0.0,-1.9258,-1.937,0.0,0.0,0.0,0.0,0.0,0.0,0.0,0.0,0.0,0.0,0.0,0.0,0.0,0.0,0.0,0.0,0.0,0.0,0.0,0.0,0.0,0.0,0.0,0.0,0.0,0.0,0.0,0.0,0.0,0.0,0.0,0.0,0.0,0.0,0.0,0.0,0.0,0.0,0.0,0.0,0.0,0.0,0.0,0.0,0.0,0.0,0.0,0.0,0.0,0.0,0.0,0.0,0.0,0.0,0.0,0.0,-3.5424,-4.0809,-4.4407,-4.6152,-4.7126,-4.6873,-4.5137,-4.1501,-3.7931,0.0,0.0,0.0,0.0,0.0,0.0,0.0,0.0,0.0,0.0,0.0,0.0,0.0,0.0,0.0,0.0,0.0,0.0,0.0,0.0,0.0,0.0,0.0,0.0,0.0,0.0,0.0,0.0,0.0,0.0,0.0,0.0,0.0,0.0,0.0,0.0,0.0,0.0,0.0,0.0,0.0,-2.0092,-2.0525,-2.0294,-2.0054,0.0,0.0,-1.9413,-1.949,-1.9757,0.0,0.0,0.0,0.0,0.0,0.0,0.0,0.0,0.0,0.0,0.0,0.0,0.0,0.0,0.0,0.0,0.0,0.0,0.0,0.0,0.0,0.0,0.0,0.0,0.0,0.0,0.0,0.0,0.0,0.0,0.0,0.0,0.0,0.0,0.0,0.0,0.0,0.0,0.0,0.0,0.0,0.0,0.0,0.0,0.0,0.0,0.0,0.0,0.0,0.0,0.0,0.0,0.0,0.0,0.0,-2.9107,-3.4337,-3.8925,-4.2353,-4.4443,-4.5658,-4.538,-4.3334,-4.0331,-3.6827,0.0,0.0,0.0,0.0,0.0,0.0,0.0,0.0,0.0,0.0,0.0,0.0,0.0,0.0,0.0,0.0,0.0,0.0,0.0,0.0,0.0,0.0,0.0,0.0,0.0,0.0,0.0,0.0,0.0,0.0,0.0,0.0,0.0,0.0,0.0,0.0,0.0,0.0,0.0,0.0,0.0,0.0,-2.1113,-2.1103,0.0,0.0,0.0,-2.0703,-2.0572,0.0,0.0,0.0,0.0,0.0,0.0,0.0,0.0,0.0,0.0,0.0,0.0,0.0,0.0,0.0,0.0,0.0,0.0,0.0,0.0,0.0,0.0,0.0,0.0,0.0,0.0,0.0,0.0,0.0,0.0,0.0,0.0,0.0,0.0,0.0,0.0,0.0,0.0,0.0,0.0,0.0,0.0,0.0,0.0,0.0,0.0,0.0,0.0,0.0,0.0,0.0,0.0,0.0,0.0,0.0,0.0,0.0,-3.3705,-3.7431,-4.0546,-4.297,-4.4137,-4.3774,-4.1874,-3.9323,0.0,0.0,0.0,0.0,0.0,0.0,0.0,0.0,0.0,0.0,0.0,0.0,0.0,0.0,0.0,0.0,0.0,0.0,0.0,0.0,0.0,0.0,0.0,0.0,0.0,0.0,0.0,-1.414,0.0,0.0,0.0,0.0,0.0,0.0,0.0,0.0,0.0,0.0,0.0,0.0,0.0,0.0,-1.9925,-2.1666,-2.1721,-2.1663,0.0,0.0,-2.1613,-2.135,-2.0965,-2.036,0.0,0.0,0.0,0.0,0.0,0.0,0.0,0.0,0.0,0.0,0.0,0.0,0.0,0.0,0.0,0.0,0.0,0.0,0.0,0.0,0.0,0.0,0.0,0.0,0.0,0.0,0.0,0.0,0.0,0.0,0.0,0.0,0.0,0.0,0.0,0.0,0.0,0.0,0.0,0.0,0.0,0.0,0.0,0.0,0.0,0.0,0.0,0.0,0.0,0.0,0.0,0.0,0.0,0.0,0.0,-3.4216,-3.7297,-3.9971,-4.2159,-4.2272,-4.1843,-4.0943,-3.8027,-3.5025,0.0,0.0,0.0,0.0,0.0,0.0,0.0,0.0,0.0,0.0,0.0,0.0,0.0,0.0,0.0,0.0,0.0,0.0,0.0,0.0,0.0,0.0,0.0,0.0,0.0,0.0,0.0,0.0,0.0,0.0,0.0,0.0,0.0,0.0,0.0,0.0,0.0,0.0,0.0,0.0,0.0,-2.0237,-2.1872,-2.1831,-2.1812,0.0,0.0,-2.1608,-2.1173,-2.132,-2.0701,-1.8458,0.0,0.0,0.0,0.0,0.0,0.0,0.0,0.0,0.0,0.0,0.0,0.0,0.0,0.0,0.0,0.0,0.0,0.0,0.0,0.0,0.0,0.0,0.0,0.0,0.0,0.0,0.0,0.0,0.0,0.0,0.0,0.0,0.0,0.0,0.0,0.0,0.0,0.0,0.0,0.0,0.0,0.0,0.0,0.0,0.0,0.0,0.0,0.0,0.0,0.0,0.0,0.0,0.0,-2.8596,-3.3894,-3.6466,-3.8872,-4.1037,-4.1091,-4.0508,-3.9225,-3.7202,-3.4535,0.0,0.0,0.0,0.0,0.0,0.0,0.0,0.0,0.0,0.0,0.0,0.0,0.0,0.0,0.0,0.0,0.0,0.0,0.0,0.0,0.0,0.0,0.0,0.0,0.0,0.0,0.0,0.0,-1.615,-1.6449,-1.6268,0.0,0.0,0.0,0.0,0.0,0.0,0.0,0.0,0.0,0.0,-2.0245,-2.1677,-2.1882,0.0,0.0,-2.214,-2.1765,-2.1656,-2.1272,-2.0618,-1.9474,-1.8581,0.0,0.0,0.0,0.0,0.0,0.0,0.0,0.0,0.0,0.0,0.0,0.0,0.0,0.0,0.0,0.0,0.0,0.0,0.0,0.0,0.0,0.0,0.0,0.0,0.0,0.0,0.0,0.0,0.0,0.0,0.0,0.0,0.0,0.0,0.0,0.0,0.0,0.0,0.0,0.0,0.0,0.0,0.0,0.0,0.0,0.0,0.0,0.0,0.0,0.0,0.0,0.0,-2.8629,-3.3652,-3.5898,-3.815,-4.0402,-4.0387,-3.9671,-3.8125,-3.6911,-3.4593,0.0,0.0,0.0,0.0,0.0,0.0,0.0,0.0,0.0,0.0,0.0,0.0,0.0,0.0,0.0,0.0,0.0,0.0,0.0,0.0,0.0,0.0,0.0,0.0,0.0,0.0,0.0,0.0,-1.6565,-1.642,-1.6368,0.0,0.0,0.0,0.0,0.0,0.0,0.0,0.0,0.0,0.0,-2.074,-2.182,-2.2005,-2.2163,-2.2372,-2.2111,-2.1791,-2.1649,-2.1049,-2.0484,-1.9808,0.0,0.0,0.0,0.0,0.0,0.0,0.0,0.0,0.0,0.0,0.0,0.0,0.0,0.0,0.0,0.0,0.0,0.0,0.0,0.0,0.0,0.0,0.0,0.0,0.0,0.0,0.0,0.0,0.0,0.0,-2.5341,0.0,0.0,0.0,0.0,0.0,0.0,0.0,0.0,0.0,0.0,0.0,0.0,0.0,0.0,0.0,0.0,0.0,0.0,0.0,0.0,0.0,0.0,-2.9174,-3.3652,-3.5844,-3.8044,-4.022,-4.0188,-3.9411,-3.799,-3.7144,-3.5318,-3.2273,0.0,0.0,0.0,0.0,0.0,0.0,0.0,0.0,0.0,0.0,0.0,0.0,0.0,0.0,0.0,0.0,0.0,0.0,0.0,0.0,0.0,0.0,0.0,0.0,0.0,0.0,-1.7821,-1.7273,-1.6458,0.0,0.0,0.0,0.0,0.0,0.0,0.0,0.0,0.0,0.0,-2.1285,-2.1731,-2.2419,-2.2334,-2.2111,-2.1785,-2.1722,-2.1534,-2.104,-2.0922,-2.0427,0.0,0.0,0.0,0.0,0.0,0.0,0.0,0.0,0.0,0.0,0.0,0.0,0.0,0.0,0.0,0.0,0.0,0.0,0.0,0.0,0.0,0.0,0.0,0.0,0.0,0.0,0.0,-3.1702,-3.1182,0.0,0.0,0.0,0.0,0.0,0.0,0.0,0.0,0.0,0.0,0.0,-3.7385,-3.7336,0.0,0.0,0.0,0.0,0.0,0.0,0.0,0.0,0.0,0.0,0.0,0.0,-3.076,-3.4151,-3.6932,-3.8885,-4.0003,-4.0087,-3.9564,-3.8387,-3.7273,-3.4543,-2.9978,0.0,0.0,0.0,0.0,0.0,0.0,0.0,0.0,0.0,0.0,0.0,0.0,0.0,0.0,0.0,0.0,0.0,0.0,0.0,0.0,0.0,0.0,0.0,0.0,0.0,-1.6786,0.0,0.0,0.0,0.0,0.0,0.0,0.0,0.0,0.0,0.0,0.0,-1.9642,-2.0939,-2.1579,-2.1882,-2.1752,-2.2183,-2.2384,0.0,0.0,0.0,0.0,0.0,0.0,0.0,0.0,0.0,0.0,0.0,0.0,0.0,0.0,-1.337,-1.1992,-1.1258,-1.0782,-1.0668,0.0,0.0,0.0,0.0,0.0,0.0,0.0,0.0,0.0,0.0,0.0,0.0,0.0,0.0,-3.52,0.0,-3.3135,0.0,0.0,0.0,0.0,0.0,0.0,0.0,0.0,-3.8413,-4.0403,-4.1564,-4.183,-4.1199,0.0,-3.8987,-3.5659,0.0,0.0,0.0,0.0,0.0,0.0,0.0,0.0,-3.2307,-3.525,-3.799,-3.9699,-4.0357,-4.0357,-3.9834,-3.869,-3.6947,-3.4052,-2.9855,-2.7584,-2.538,0.0,0.0,0.0,0.0,0.0,0.0,0.0,0.0,0.0,0.0,0.0,0.0,0.0,0.0,0.0,0.0,0.0,0.0,0.0,0.0,0.0,0.0,0.0,-1.7423,0.0,0.0,0.0,0.0,0.0,0.0,0.0,0.0,0.0,-1.9205,-2.0201,-2.1225,-2.1975,-2.2564,-2.269,-2.2135,0.0,0.0,0.0,0.0,0.0,0.0,0.0,-2.1754,-2.1362,-2.0963,-2.0417,-1.983,-1.8491,-1.7282,-1.6387,0.0,0.0,-1.3453,-1.2813,-1.2459,-1.2219,-1.154,-1.0954,-1.0645,-1.018,-0.9904,0.0,0.0,0.0,0.0,0.0,0.0,0.0,0.0,-3.9618,-3.9231,0.0,-3.7243,0.0,0.0,0.0,0.0,0.0,-3.3517,0.0,0.0,-4.2525,-4.4995,-4.5851,-4.6449,-4.6212,-4.5063,-4.3714,-4.164,-3.8639,-3.2502,0.0,0.0,0.0,0.0,0.0,0.0,-3.3897,-3.6806,-3.9073,-4.0527,-4.117,-4.1066,-4.0288,-3.8723,-3.6415,-3.4106,-3.1841,-2.9669,-2.7507,-2.5312,-2.3212,0.0,0.0,0.0,0.0,0.0,0.0,0.0,0.0,0.0,0.0,0.0,0.0,0.0,0.0,0.0,0.0,0.0,0.0,0.0,0.0,-1.8133,0.0,0.0,0.0,0.0,0.0,0.0,0.0,0.0,0.0,0.0,-2.0553,-2.1973,-2.3244,-2.3803,0.0,0.0,0.0,0.0,-2.3089,-2.2744,-2.2705,-2.2754,-2.2752,-2.257,-2.2162,-2.1531,0.0,0.0,-2.0183,-1.8973,-1.8042,-1.7236,-1.6797,-1.6235,-1.5269,-1.4864,-1.4576,-1.3972,-1.3425,-1.2785,-1.1914,-1.1339,-1.0942,-5.088,0.0,0.0,0.0,0.0,-4.3595,-4.4421,-4.4643,-4.4978,-4.4573,-4.3436,-4.1531,0.0,0.0,0.0,0.0,0.0,0.0,-3.8622,-4.2429,-4.4268,-4.6183,-4.8286,-4.8515,-4.8259,-4.7638,-4.647,-4.505,-4.325,-3.9581,-3.5859,-3.2307,0.0,0.0,0.0,0.0,-3.6975,-3.8396,-4.0561,-4.1403,-4.0889,-4.0995,-3.9967,-3.7786,-3.6421,-3.4466,-3.1745,-3.0551,-2.8694,-2.6073,-2.4813,0.0,0.0,0.0,0.0,0.0,0.0,0.0,0.0,0.0,0.0,0.0,0.0,0.0,0.0,0.0,0.0,0.0,0.0,0.0,-1.8633,-1.9767,-2.0005,0.0,0.0,0.0,0.0,0.0,0.0,0.0,0.0,0.0,-2.2698,-2.3416,-2.4035,0.0,0.0,-2.3845,-2.3337,-2.3327,-2.319,-2.2842,-2.3112,0.0,-2.3184,-2.2818,-2.2457,-2.232,-2.2003,-2.1353,-2.0283,-1.964,-1.911,-1.8562,-1.8101,-1.7593,-1.7105,-1.6104,-1.543,-1.526,-1.4526,-1.3725,-1.3484,-1.2849,-1.2161,-5.6528,-5.1577,-4.8906,-4.7554,-4.7258,-4.8734,-4.955,-4.977,-4.9846,-4.9094,-4.776,-4.5719,-4.3427,-4.0943,-3.9249,0.0,0.0,0.0,-4.1491,-4.4808,-4.5762,-4.7357,-4.9345,-4.9742,-4.961,-4.9082,-4.8531,-4.7498,-4.5918,-4.4135,-4.1808,-3.8805,0.0,0.0,-3.6299,-3.7956,-3.9276,-4.0324,-4.1861,-4.2227,-4.1359,-4.0702,-3.9391,-3.7319,-3.6721,-3.5048,-3.2166,-3.1338,-2.988,-2.7595,-2.6236,-2.4613,0.0,0.0,0.0,0.0,0.0,0.0,0.0,0.0,0.0,0.0,0.0,-1.4723,-1.5801,0.0,0.0,0.0,-1.7441,-1.8382,-2.0131,-2.0768,0.0,0.0,0.0,0.0,0.0,0.0,0.0,-2.1091,-2.1983,-2.2855,-2.3542,-2.3966,-2.4364,-2.5004,-2.4743,-2.4362,-2.3768,0.0,-2.3349,-2.2902,-2.3063,-2.3202,-2.3112,-2.2868,-2.2707,-2.273,-2.2159,-2.144,-2.0709,-2.0288,-1.98,-1.9163,-1.8926,-1.8716,-1.8451,-1.7372,-1.6457,-1.63,-1.5476,-1.4757,-1.4586,-1.3829,-1.3103,-6.1317,-5.9849,-5.5405,-5.3507,-5.335,-5.3803,-5.4309,-5.4809,-5.3912,-5.2941,-5.1653,-4.9671,-4.7574,-4.5415,-4.3292,0.0,-4.2497,-4.3192,-4.4297,-4.5793,-4.7158,-4.8472,-4.9521,-5.0294,-5.0283,-4.9594,-4.9846,-4.9028,-4.7265,-4.6709,-4.6186,-4.5412,-4.0897,-3.8903,-3.9445,-4.0121,-4.1136,-4.2455,-4.3002,-4.2913,-4.2051,-4.0394,-3.8716,-3.7168,-3.7102,-3.5711,-3.2829,-3.2067,-3.1007,-2.945,-2.7528,-2.6071,-2.5209,0.0,0.0,0.0,0.0,0.0,0.0,0.0,0.0,0.0,0.0,0.0,0.0,0.0,0.0,0.0,-1.9479,0.0,-2.0953,-2.1455,0.0,0.0,0.0,-2.2062,-2.2028,-2.1694,-2.174,-2.2401,0.0,0.0,-2.3427,-2.375,-2.439,-2.5363,-2.5414,-2.5204,-2.4517,-2.3979,-2.356,-2.2979,-2.2799,-2.2707,-2.275,-2.2794,-2.2794,-2.2701,-2.229,-2.1697,-2.1133,-2.0719,-2.0134,-1.9233,-1.9318,-1.9359,-1.9052,-1.8294,-1.7816,-1.6849,-1.6185,-1.5689,-1.5241,-1.4459,-1.3769,-6.3964,-6.3472,-6.134,-5.9278,-5.7391,-5.7545,-5.7634,-5.7665,-5.6491,-5.5472,-5.4514,-5.2012,-4.9202,-4.6268,-4.5773,-4.5279,-4.4785,-4.5015,-4.5897,-4.7356,-4.7808,-4.8545,-4.9568,-4.9455,-4.9381,-4.9447,-4.892,-4.8486,-4.8131,-4.7367,-4.6982,-4.6871,-4.5244,-4.4069,-4.3301,-4.3436,-4.3673,-4.4045,-4.4013,-4.3306,-4.181,-4.018,-3.8645,-3.7168,-3.7102,-3.5711,-3.2829,-3.2531,-3.1504,-2.9516,-2.892,-2.7827,-2.6038,-2.4911,0.0,0.0,0.0,0.0,0.0,0.0,0.0,0.0,0.0,-1.7607,-1.8731,0.0,-1.9313,0.0,-2.1468,-2.2349,-2.2658,-2.3254,0.0,0.0,-2.2865,-2.2823,-2.2485,-2.2337,-2.2223,-2.2156,-2.2629,-2.3038,-2.3095,-2.3579,-2.3923,-2.4165,-2.4078,-2.3919,-2.3715,-2.3417,-2.3028,-2.2936,-2.2708,-2.2639,-2.2592,-2.2538,-2.2432,-2.2162,-2.1997,-2.1729,-2.1336,-2.0825,-2.033,-1.9896,-1.9416,-1.8816,-1.8004,-1.7853,-1.762,-1.675,-1.6257,-1.5953,-1.5689,-1.4944,-1.4231,-6.5442,-6.4826,-6.4057,-6.2702,-6.0978,-6.0393,-6.0116,-5.9993,-5.8393,-5.7254,-5.6423,-5.3468,-5.0944,-4.8881,-4.8543,-4.805,-4.7434,-4.7404,-4.7731,-4.8244,-4.8244,-4.8624,-4.934,-4.8843,-4.8653,-4.858,-4.812,-4.7767,-4.7651,-4.7375,-4.7371,-4.7628,-4.7417,-4.6999,-4.6431,-4.5906,-4.5399,-4.5003,-4.4102,-4.3003,-4.1554,-4.0403,-3.9056,-3.7665,-3.7268,-3.6042,-3.3756,-3.3027,-3.1967,-3.0477,-2.9781,-2.8887,-2.7694,-2.63,-2.4742,0.0,0.0,0.0,0.0,0.0,0.0,0.0,0.0,0.0,0.0,0.0,-2.1336,-2.2585,-2.3016,-2.3443,-2.3912,-2.4412,-2.4549,-2.4031,-2.4173,-2.4069,-2.3326,-2.3109,-2.2824,-2.2377,-2.2517,-2.263,-2.2654,-2.2871,-2.3063,-2.3063,-2.2999,-2.3036,-2.3309,-2.3038,-2.2674,-2.2451,-2.2333,-2.2236,-2.239,-2.235,-2.2186,-2.1773,-2.1653,-2.1521,-2.0993,-2.0614,-2.0257,-1.9991,-1.9434,-1.8902,-1.8482,-1.7969,-1.7606,-1.7284,-1.6684,-1.6257,-1.6016,-1.5425,-1.4787,-6.6211,-6.5134,-6.4857,-6.4395,-6.3718,-6.2364,-6.1809,-6.1656,-5.9655,-5.83,-5.7315,-5.4299,-5.2544,-5.1805,-5.1128,-5.042,-4.9712,-4.9682,-4.9281,-4.8635,-4.8604,-4.8718,-4.8965,-4.8524,-4.7965,-4.7432,-4.7374,-4.7037,-4.6545,-4.6997,-4.7504,-4.7869,-4.8033,-4.8389,-4.8702,-4.7511,-4.6364,-4.5345,-4.3705,-4.2342,-4.1442,-4.0746,-3.9686,-3.8261,-3.75,-3.6406,-3.4949,-3.3557,-3.2464,-3.1636,-3.041,-2.9615,-2.9383,-2.7481,-2.602,0.0,-2.3538,0.0,0.0,0.0,0.0,0.0,0.0,0.0,0.0,-2.2862,-2.3612,-2.4713,-2.4317,-2.4211,-2.4768,-2.522,-2.5355,-2.4905,-2.5326,-2.5272,-2.4305,-2.3839,-2.3365,-2.2787,-2.2445,-2.2197,-2.2221,-2.2197,-2.2197,-2.227,-2.227,-2.2495,-2.2953,-2.2746,-2.2356,-2.1966,-2.1783,-2.1791,-2.1944,-2.2018,-2.1849,-2.1464,-2.1284,-2.1139,-2.0532,-2.0284,-2.0121,-1.9808,-1.9308,-1.895,-1.9229,-1.8215,-1.7556,-1.7456,-1.692,-1.6431,-1.6137,-1.5625,-1.5157,-6.6765,-6.6396,-6.4703,-6.3933,-6.3718,-6.2394,-6.1809,-6.1656,-5.9655,-5.7777,-5.6023,-5.4853,-5.3683,-5.2513,-5.1805,-5.0851,-4.9712,-4.9682,-4.9312,-4.8604,-4.8604,-4.8604,-4.8656,-4.8171,-4.765,-4.7045,-4.6743,-4.6455,-4.5936,-4.6301,-4.6791,-4.7302,-4.7638,-4.8033,-4.8513,0.0,0.0,0.0,-4.3556,-4.2342,-4.1442,-4.0746,-3.9686,-3.8261,-3.75,0.0,-3.4949,-3.4054,-3.2994,-3.1659,-3.1328,0.0,0.0,0.0,0.0,0.0,0.0,0.0,0.0,0.0,0.0,0.0,-2.4195,-2.3973,-2.3618,-2.4152,-2.4617,-2.4771,-2.5148,-2.5387,-2.5277,-2.5769,-2.6005,-2.5711,-2.5522,-2.5245,-2.4708,-2.4047,-2.3424,-2.2909,-2.2482,-2.2197,-2.2197,-2.2197,-2.2197,-2.2173,-2.2297,-2.2431,-2.2476,-2.239,-2.2217,-2.2106,-2.18,-2.1499,-2.1238,-2.1272,-2.1238,-2.11,-2.0986,-2.0855,-2.0653,-2.0177,-1.9929,-1.9728,-1.9,-1.8172,-1.779,-1.7252,-1.6729,-1.6037,-1.6155,-1.6166,-1.5619,-1.5186,-1.4863,-6.6704,0.0,-6.4549,-6.3626,0.0,-6.224,-6.144,-6.0701,-5.9378,-5.7808,-5.6176,-5.5161,-5.436,-5.3652,-5.2637,-5.1652,-5.0667,-5.0359,-4.9805,-4.9127,-4.8789,-4.8604,-4.8573,-4.8009,-4.741,-4.6731,-4.6361,-4.6009,-4.5499,-4.576,-4.6159,-4.6722,-4.6997,-4.7307,-4.7533,-4.6691,-4.5757,-4.4963,-4.3805,-4.2759,-4.1972,-4.1276,-4.0382,-3.9288,-3.7864,0.0,0.0,0.0,0.0,0.0,0.0,0.0,0.0,0.0,0.0,-2.7794,-2.6965,-2.6228,-2.5559,-2.559,-2.5545,-2.5433,-2.5704,-2.5567,-2.4878,-2.5139,-2.5458,-2.5749,-2.5807,-2.5872,-2.6064,-2.6381,-2.6418,-2.615,-2.5879,-2.5495,-2.4878,-2.4305,-2.3721,-2.309,-2.2726,-2.2567,-2.2445,-2.2445,-2.2323,-2.208,-2.2092,-2.2054,-2.175,-2.1921,-2.1898,-2.1691,-2.1482,-2.1247,-2.1035,-2.0986,-2.0839,-2.0667,-2.0482,-2.0305,-2.0006,-1.9685,-1.9408,-1.9353,-1.8514,-1.7724,-1.7676,-1.7073,-1.6379,-1.6083,-1.6218,-1.6138,-1.5475,-1.5124,-1.4929,-6.6334,-6.5596,-6.421,-6.3256,-6.2579,-6.1933,-6.0855,-5.9562,0.0,0.0,0.0,-5.5253,-5.4668,-5.4483,-5.3252,-5.2359,-5.1682,-5.1005,-5.0328,-4.9651,-4.8943,-4.8604,-4.8573,-4.805,-4.7434,-4.6757,-4.6237,-4.5787,-4.536,-4.5383,-4.5656,-4.6159,-4.6372,-4.6435,-4.6356,-4.545,-4.4903,-4.487,-4.4052,-4.3264,-4.2535,-4.1806,-4.1077,-4.0415,-3.8394,-3.7301,-3.7268,-3.528,-3.4121,-3.3988,-3.3292,-3.2564,-3.1824,-3.1024,-3.0174,-2.921,-2.824,-2.7314,-2.6542,-2.6861,-2.6831,-2.6352,-2.6794,-2.6794,-2.6039,-2.5952,-2.6184,-2.6736,-2.6271,-2.6184,-2.6736,-2.6794,-2.6712,-2.6418,-2.6204,-2.5798,-2.4991,-2.4536,-2.3956,-2.3305,-2.2969,-2.2787,-2.269,-2.2567,-2.237,-2.1893,-2.1756,-2.151,-2.1149,-2.1362,-2.1452,-2.1043,-2.0895,-2.0846,-2.0804,-2.073,-2.0607,-2.0187,-2.003,-1.9775,-1.9356,-1.9105,-1.9052,-1.9047,-1.8181,-1.782,-1.7917,-1.7074,-1.6337,-1.6515,-1.6542,-1.6264,-1.5606,-1.5401,-1.5198,-6.5657,-6.4918,-6.3533,-6.2579,-6.1902,-6.1225,-6.0178,-5.8885,-5.8208,-5.7131,-5.5807,-5.5068,-5.4422,-5.3837,-5.3067,-5.2359,-5.1682,-5.1005,-5.0328,-4.9651,-4.8943,-4.8604,-4.8604,-4.8512,-4.8112,-4.7434,-4.6757,-4.6268,-4.5818,-4.5228,-4.5247,-4.5792,-4.5801,-4.5847,-4.5794,-4.4978,-4.4537,-4.4504,-4.3932,-4.3264,-4.2535,-4.1806,-4.1077,-4.0348,-3.8891,-3.8063,-3.803,-3.6539,-3.5413,-3.4783,-3.4021,-3.3292,-3.2597,-3.2241,-3.187,-3.137,-3.0799,-3.0049,-2.9199,-2.9002,-2.8739,-2.833,-2.8361,-2.7926,-2.6765,-2.6649,-2.6678,-2.6794,-2.6649,-2.6678,-2.6794,-2.6794,-2.6794,-2.6659,-2.634,-2.5879,-2.53,-2.4624,-2.3956,-2.339,-2.2969,-2.2751,-2.2702,-2.2297,-2.2002,-2.178,-2.1453,-2.1145,-2.0827,-2.0965,-2.0927,-2.0588,-2.0494,-2.0349,-2.0129,-2.001,-1.9982,-1.9885,-1.9753,-1.9621,-1.9393,-1.9263,-1.9129,-1.9052,-1.8446,-1.8013,-1.7676,-1.6908,-1.648,-1.6455,-1.6459,-1.6365,-1.6242,-1.5987,-1.545,-6.5842,-6.4764,-6.3379,-6.2425,-6.1686,-6.0301,-5.9347,-5.8701,-5.7654,-5.6669,-5.5653,-5.5007,-5.436,-5.3683,-5.3006,-5.2544,-5.2206,-5.1159,-5.0513,-5.0174,-4.9127,-4.8604,-4.8604,-4.8604,-4.8266,-4.7588,-4.6911,-4.6343,-4.5712,-4.5063,-4.4949,-4.5321,-4.5164,-4.5285,-4.5556,-4.4594,-4.4131,-4.4289,-4.3812,-4.3462,-4.3098,-4.2402,-4.1674,-4.0945,-3.9553,-3.8593,-3.8228,-3.7168,-3.6439,-3.6108,-3.5777,-3.5033,-3.3862,-3.3561,-3.2901,-3.1694,-3.1191,-3.0587,-2.9666,-2.9317,-2.8958,-2.882,-2.882,-2.8531,-2.7868,-2.749,-2.7142,-2.6823,-2.6794,-2.6794,-2.6794,-2.6794,-2.6794,-2.6659,-2.634,-2.5879,-2.53,-2.4738,-2.4131,-2.3569,-2.3271,-2.303,-2.2909,-2.2685,-2.2238,-2.1741,-2.0976,-2.0382,-2.0263,-2.0307,-2.0275,-2.0132,-2.0082,-1.9982,-1.9836,-1.9811,-1.9811,-1.9811,-1.9708,-1.9552,-1.942,-1.9263,-1.9158,-1.9004,-1.8566,-1.8157,-1.7845,-1.729,-1.6907,-1.6787,-1.6792,-1.6818,-1.6598,-1.6084,-1.526,-6.575,-6.4549,-6.3318,-6.2271,-6.1225,-5.9501,-5.8701,-5.8423,-5.7254,-5.63,-5.5468,-5.4945,-5.4268,-5.3468,-5.2944,-5.2729,-5.2544,-5.1313,-5.0697,-5.0543,-4.9251,-4.8604,-4.8604,-4.8604,-4.8327,-4.7804,-4.7157,-4.648,-4.5803,-4.5126,-4.4802,-4.4737,-4.4601,-4.478,-4.5362,-4.4294,-4.3913,-4.4233,-4.392,-4.3734,-4.3595,-4.2899,-4.2237,-4.1607,-4.0282,-3.9255,-3.8692,-3.7831,-3.7367,-3.7334,-3.7151,-3.6472,-3.5235,-3.4725,-3.3742,-3.2215,-3.1659,-3.1,-3.0093,-2.9566,-2.9315,-2.9315,-2.9315,-2.9199,-2.8941,-2.8448,-2.7897,-2.7316,-2.7258,-2.7258,-2.7258,-2.7084,-2.6944,-2.6726,-2.629,-2.577,-2.53,-2.4708,-2.4189,-2.3688,-2.345,-2.3271,-2.3125,-2.3025,-2.2489,-2.1594,-2.0614,-2.0037,-1.9987,-1.9911,-1.9811,-1.9811,-1.9811,-1.9811,-1.9811,-1.9811,-1.9811,-1.9811,-1.9708,-1.9604,-1.9473,-1.9316,-1.9158,-1.9004,-1.8686,-1.8374,-1.8205,-1.7819,-1.7456,-1.7407,-1.7389,-1.7247,-1.6872,-1.6132,-1.5224,-6.4641,-6.3872,-6.3133,-6.1717,-6.0024,-5.9162,-5.8454,-5.7839,-5.7069,-5.6023,-5.4884,-5.476,-5.4022,-5.2914,-5.276,-5.2729,-5.2606,-5.1313,-5.0697,-5.0543,-4.9251,-4.8604,-4.8604,-4.8604,-4.8573,-4.8419,-4.7804,-4.7127,-4.6511,-4.5803,-4.511,-4.4419,-4.4192,-4.4455,-4.483,-4.4415,-4.4327,-4.4658,-4.4426,-4.4108,-4.3568,-4.2899,-4.2502,-4.2402,-4.1044,-4.0304,-4.0083,-3.8858,-3.8129,-3.8063,-3.7364,-3.6781,-3.6364,-3.548,-3.4643,-3.4026,-3.3168,-3.2283,-3.1414,-3.0866,-3.0543,-3.0453,-3.0395,-3.0162,-2.961,-2.9493,-2.9174,-2.8652,-2.8507,-2.839,-2.8477,-2.7984,-2.7527,-2.7302,-2.641,-2.5605,-2.5188,-2.4447,-2.3865,-2.3628,-2.333,-2.315,-2.31,-2.2749,-2.2196,-2.1669,-2.1016,-2.0589,-2.0539,-2.0238,-1.9936,-1.9861,-1.9811,-1.9811,-1.9811,-1.9811,-1.9811,-1.9811,-1.9811,-1.9656,-1.9473,-1.9368,-1.9316,-1.9028,-1.8951,-1.871,-1.8398,-1.8133,-1.8082,-1.8008,-1.7871,-1.7571,-1.7148,-1.6419,-1.5628,-6.458,-6.3256,-6.3379,-6.224,-6.0424,-5.9655,-5.8762,-5.7746,-5.7069,-5.5992,-5.4822,-5.473,-5.3991,-5.2729,-5.2729,-5.2729,-5.2606,-5.1313,-5.0697,-5.0574,-4.9251,-4.8604,-4.8604,-4.8604,-4.8604,-4.8543,-4.7927,-4.7465,-4.7065,-4.6111,-4.5249,-4.4709,-4.437,-4.452,-4.4962,-4.4423,-4.4415,-4.4934,-4.4367,-4.4092,-4.4009,-4.3502,-4.2965,-4.2502,-4.1939,-4.121,-4.0448,-3.9785,-3.9235,-3.8698,-3.8262,-3.7687,-3.694,-3.6291,-3.5586,-3.4698,-3.3542,-3.2536,-3.1826,-3.1336,-3.1043,-3.0895,-3.0895,-3.0719,-3.0219,-3.019,-3.0074,-2.9784,-2.9173,-2.8652,-2.8681,-2.8448,-2.8103,-2.7451,-2.6694,-2.5966,-2.5159,-2.4416,-2.3832,-2.3628,-2.333,-2.3125,-2.305,-2.2648,-2.2246,-2.1945,-2.1493,-2.1167,-2.1142,-2.0941,-2.069,-2.0388,-2.0313,-2.0137,-1.9886,-1.9811,-1.9811,-1.9811,-1.9811,-1.9708,-1.9473,-1.942,-1.9316,-1.9052,-1.8999,-1.8951,-1.8758,-1.8662,-1.8662,-1.8534,-1.806,-1.7616,-1.7346,-1.6545,-1.5871,-6.4795,-6.3502,-6.3533,-6.2364,-6.0486,-5.9809,-5.8762,-5.7531,-5.6977,-5.5992,-5.4791,-5.473,-5.3991,-5.2821,-5.2729,-5.2729,-5.2544,-5.1498,-5.0851,-5.0574,-4.9466,-4.8789,-4.8635,-4.8604,-4.8604,-4.8543,-4.8142,-4.7804,-4.7465,-4.6234,-4.5418,-4.4956,-4.4511,-4.4496,-4.4874,-4.4495,-4.4517,-4.4903,-4.449,-4.4269,-4.4194,-4.3887,-4.3383,-4.2841,-4.2601,-4.2005,-4.1011,-4.0525,-4.0007,-3.9281,-3.8864,-3.8228,-3.7327,-3.6673,-3.5828,-3.4709,-3.3604,-3.2764,-3.2216,-3.175,-3.1368,-3.1043,-3.1014,-3.0866,-3.0687,-3.0628,-3.0628,-3.048,-2.9784,-2.9232,-2.9203,-2.9029,-2.8626,-2.7911,-2.7257,-2.6464,-2.5619,-2.4807,-2.4245,-2.391,-2.3609,-2.3276,-2.3125,-2.2799,-2.2548,-2.2498,-2.2071,-2.1719,-2.1669,-2.1568,-2.1292,-2.102,-2.0945,-2.0589,-1.9987,-1.9862,-1.9862,-1.9862,-1.9862,-1.9811,-1.9525,-1.9473,-1.9316,-1.9105,-1.9052,-1.8975,-1.8903,-1.8927,-1.8922,-1.8762,-1.8309,-1.7655,-1.7334,-1.6602,-1.6087,-6.4888,-6.458,-6.3379,-6.1717,-5.9809,-5.9162,-5.8085,-5.6884,-5.6792,-5.5992,-5.4853,-5.473,-5.3991,-5.279,-5.2729,-5.2729,-5.2575,-5.1929,-5.1251,-5.0605,-4.9928,-4.9251,-4.8635,-4.8604,-4.8604,-4.8604,-4.8543,-4.8173,-4.7558,-4.6265,-4.551,-4.5262,-4.4602,-4.4297,-4.4419,-4.4662,-4.4798,-4.4709,-4.491,-4.4712,-4.4073,-4.3877,-4.3735,-4.341,-4.2899,-4.2502,-4.2237,-4.0908,-4.0038,-3.9837,-3.8756,-3.7969,-3.7589,-3.6432,-3.5243,-3.4181,-3.3698,-3.3155,-3.2587,-3.2168,-3.1691,-3.1042,-3.0954,-3.0776,-3.0628,-3.0628,-3.0628,-3.0628,-3.0422,-3.0424,-3.0306,-2.9842,-2.9435,-2.8999,-2.8074,-2.7266,-2.6707,-2.5871,-2.5211,-2.4551,-2.409,-2.3678,-2.3226,-2.3125,-2.305,-2.2949,-2.2598,-2.2272,-2.2221,-2.187,-2.1594,-2.1549,-2.1423,-2.1066,-2.0087,-2.0191,-2.0167,-2.0218,-2.0345,-2.0168,-1.9784,-1.9552,-1.9364,-1.9182,-1.9148,-1.9095,-1.9023,-1.8946,-1.8893,-1.8679,-1.8278,-1.7788,-1.7445,-1.6828,-1.6374,-6.4641,-6.4087,-6.2733,-6.1255,-5.9839,-5.9532,-5.8423,-5.6823,-5.6761,-5.6238,-5.5376,-5.4914,-5.4206,-5.3345,-5.2914,-5.2483,-5.2052,-5.1805,-5.1128,-5.0112,-4.9805,-4.9312,-4.8666,-4.8604,-4.8604,-4.8604,-4.8604,-4.8266,-4.7588,-4.6665,-4.594,-4.5214,-4.4478,-4.4143,-4.4143,-4.4374,-4.46,-4.4767,-4.4795,-4.449,-4.3904,-4.3718,-4.3394,-4.3023,-4.3065,-4.2881,-4.2535,-4.137,-4.0475,-3.9642,-3.8527,-3.7711,-3.7058,-3.6292,-3.5492,-3.4698,-3.4423,-3.3999,-3.3366,-3.3065,-3.2553,-3.1691,-3.1602,-3.1306,-3.0715,-3.0628,-3.0628,-3.0657,-3.0657,-3.0628,-3.0539,-3.0364,-3.0015,-2.9375,-2.8703,-2.7917,-2.7045,-2.6294,-2.5657,-2.5049,-2.4481,-2.3966,-2.3826,-2.3498,-2.333,-2.3365,-2.3153,-2.3027,-2.2942,-2.2707,-2.243,-2.2293,-2.2192,-2.1995,-2.1368,-2.1107,-2.1107,-2.1107,-2.1132,-2.1024,-2.0786,-2.0469,-2.03,-1.9643,-1.9462,-1.9239,-1.9167,-1.8999,-1.8893,-1.8732,-1.8333,-1.7952,-1.759,-1.7032,-1.6602,-6.4149,-6.3349,-6.2056,-6.0824,-5.9778,-5.9316,-5.8239,-5.6823,-5.6761,-5.6361,-5.5653,-5.5007,-5.436,-5.3683,-5.3006,-5.2329,-5.1775,-5.1898,-5.1405,-5.0389,-5.0112,-4.9651,-4.9035,-4.8727,-4.8604,-4.8604,-4.8604,-4.8358,-4.7927,-4.725,-4.6493,-4.5611,-4.4782,-4.417,-4.4048,-4.4065,-4.4266,-4.4631,-4.4557,-4.4235,-4.3668,-4.3405,-4.3037,-4.2494,-4.2772,-4.2977,-4.2749,-4.165,-4.0638,-3.9645,-3.8366,-3.7207,-3.6476,-3.61,-3.5728,-3.5178,-3.4961,-3.4628,-3.4027,-3.3814,-3.333,-3.2461,-3.2311,-3.1982,-3.1297,-3.1206,-3.1206,-3.1177,-3.0974,-3.0887,-3.0829,-3.0713,-3.0334,-2.975,-2.9305,-2.8713,-2.7776,-2.7131,-2.6422,-2.5678,-2.4925,-2.4557,-2.4493,-2.4035,-2.3866,-2.3885,-2.3637,-2.3475,-2.345,-2.3365,-2.3229,-2.2992,-2.2949,-2.2853,-2.2634,-2.2531,-2.2069,-2.1966,-2.186,-2.1797,-2.1619,-2.14,-2.0895,-2.0152,-1.9727,-1.9456,-1.9263,-1.9047,-1.8946,-1.8786,-1.8572,-1.8224,-1.7788,-1.7312,-1.6864,-6.341,-6.2671,-6.1379,-6.0393,-5.9593,-5.8454,-5.7438,-5.6823,-5.6761,-5.6361,-5.5653,-5.5007,-5.436,-5.3683,-5.3006,-5.2359,-5.2082,-5.2421,-5.2175,-5.1405,-5.0913,-5.0359,-4.9682,-4.8974,-4.8635,-4.8604,-4.8604,-4.8604,-4.8398,-4.7753,-4.6996,-4.6253,-4.5282,-4.4486,-4.3988,-4.3832,-4.391,-4.4189,-4.4282,-4.3864,-4.323,-4.3051,-4.2673,-4.1976,-4.2077,-4.2459,-4.3169,-4.1466,-4.0388,-3.9987,-3.8112,-3.6569,-3.5943,-3.5752,-3.5623,-3.5494,-3.5329,-3.5001,-3.4592,-3.4345,-3.3951,-3.3199,-3.3018,-3.2834,-3.2436,-3.2309,-3.2309,-3.2222,-3.1845,-3.1526,-3.138,-3.0974,-3.0536,-3.0297,-2.994,-2.9482,-2.901,-2.8363,-2.7551,-2.6479,-2.5717,-2.532,-2.5192,-2.4931,-2.4658,-2.4538,-2.4133,-2.3824,-2.3772,-2.3688,-2.3628,-2.3636,-2.3592,-2.3554,-2.3768,-2.3846,-2.3228,-2.2792,-2.2604,-2.2493,-2.2286,-2.2002,-2.1312,-2.0587,-1.9679,-1.9462,-1.9167,-1.8999,-1.8946,-1.8839,-1.8602,-1.8441,-1.8061,-1.7623,-1.7067,-6.2302,-6.1963,-6.0671,-5.9716,-5.9008,-5.8146,-5.7377,-5.6792,-5.6761,-5.6361,-5.5653,-5.5007,-5.436,-5.3683,-5.3037,-5.2852,-5.3067,-5.2852,-5.2113,-5.1251,-5.1251,-5.1005,-5.0297,-4.9174,-4.8622,-4.8635,-4.8604,-4.8521,-4.8346,-4.7711,-4.6875,-4.5879,-4.5132,-4.4308,-4.3626,-4.3675,-4.3754,-4.3832,-4.4065,-4.3762,-4.3057,-4.2683,-4.2221,-4.1803,-4.1574,-4.1688,-4.2173,-4.0919,-4.0091,-3.9813,-3.7871,-3.6445,-3.5816,-3.5589,-3.5554,-3.5519,-3.5454,-3.5365,-3.525,-3.5096,-3.4669,-3.4006,-3.3731,-3.3368,-3.2791,-3.2634,-3.2571,-3.2542,-3.2309,-3.2048,-3.1613,-3.1351,-3.1032,-3.0536,-3.0266,-2.996,-2.9401,-2.8638,-2.788,-2.7433,-2.6739,-2.6452,-2.6485,-2.6153,-2.5712,-2.5488,-2.5163,-2.4833,-2.4379,-2.4151,-2.4073,-2.4189,-2.4247,-2.4305,-2.4505,-2.4447,-2.4046,-2.3619,-2.3401,-2.3154,-2.2923,-2.2553,-2.1831,-2.0895,-1.9982,-1.939,-1.9148,-1.8999,-1.8946,-1.8946,-1.8786,-1.8625,-1.8387,-1.7897,-1.729,-6.1656,-6.1286,-5.9963,-5.9193,-5.867,-5.7808,-5.7161,-5.6761,-5.6484,-5.6115,-5.5561,-5.473,-5.4299,-5.396,-5.3406,-5.3498,-5.3991,-5.3375,-5.2637,-5.1836,-5.159,-5.1467,-5.0913,-4.9634,-4.9021,-4.8974,-4.8727,-4.8521,-4.8271,-4.7873,-4.7159,-4.6079,-4.5333,-4.4619,-4.3718,-4.3528,-4.3596,-4.3596,-4.3645,-4.3421,-4.291,-4.2318,-4.187,-4.1484,-4.1017,-4.0919,-4.11,-4.0258,-3.9629,-3.9157,-3.7561,-3.6257,-3.5653,-3.5554,-3.5489,-3.5489,-3.5454,-3.5424,-3.5489,-3.5365,-3.521,-3.4664,-3.4445,-3.4133,-3.3586,-3.3303,-3.3238,-3.3209,-3.3006,-3.2716,-3.2309,-3.1729,-3.1351,-3.0974,-3.0502,-3.0111,-2.9588,-2.8958,-2.8481,-2.8244,-2.79,-2.7739,-2.7705,-2.7426,-2.6999,-2.6772,-2.6348,-2.604,-2.5464,-2.5074,-2.5025,-2.4949,-2.4872,-2.4959,-2.5188,-2.5048,-2.4821,-2.4513,-2.4204,-2.3895,-2.3664,-2.3204,-2.2623,-2.1166,-2.0072,-1.9486,-1.9143,-1.9023,-1.8999,-1.8946,-1.8893,-1.8732,-1.8464,-1.8061,-1.7457,-6.1379,-6.0671,-5.9347,-5.8824,-5.8608,-5.7377,-5.6761,-5.6577,-5.6053,-5.5653,-5.5253,-5.4299,-5.4083,-5.4391,-5.3837,-5.4022,-5.4576,-5.4083,-5.3745,-5.3314,-5.2606,-5.1867,-5.1436,-5.0451,-4.9866,-4.9528,-4.9004,-4.853,-4.8301,-4.8126,-4.7684,-4.6508,-4.5793,-4.5221,-4.4227,-4.3658,-4.3329,-4.3329,-4.3329,-4.3109,-4.2694,-4.2138,-4.1579,-4.1134,-4.068,-4.0323,-4.0247,-3.9634,-3.9256,-3.8965,-3.7213,-3.6027,-3.5644,-3.5549,-3.5489,-3.5519,-3.5294,-3.5359,-3.5424,-3.5359,-3.5198,-3.5109,-3.4912,-3.4868,-3.4522,-3.4234,-3.4167,-3.4167,-3.379,-3.347,-3.3151,-3.2454,-3.1787,-3.1464,-3.0791,-3.014,-2.9713,-2.9463,-2.9184,-2.9149,-2.9085,-2.9085,-2.9002,-2.8567,-2.829,-2.8074,-2.7566,-2.723,-2.6836,-2.6362,-2.6113,-2.5925,-2.5736,-2.5714,-2.5883,-2.5411,-2.5131,-2.4765,-2.4421,-2.4099,-2.3787,-2.3382,-2.2749,-2.1395,-2.0266,-1.9679,-1.9215,-1.9071,-1.8999,-1.8999,-1.8893,-1.8786,-1.8518,-1.817,-1.7623,-6.0948,-6.064,-5.9347,-5.8793,-5.8577,-5.7346,-5.6453,-5.5992,-5.5807,-5.5161,-5.436,-5.3899,-5.3837,-5.396,-5.3868,-5.433,-5.5068,-5.476,-5.4483,-5.433,-5.3622,-5.2606,-5.1867,-5.1344,-5.0636,-4.9835,-4.9297,-4.8791,-4.8079,-4.7964,-4.7377,-4.6376,-4.5777,-4.5087,-4.4317,-4.3688,-4.3359,-4.3329,-4.3329,-4.3269,-4.3079,-4.2479,-4.2032,-4.1519,-4.0898,-4.0395,-4.0051,-3.9412,-3.8743,-3.8111,-3.7152,-3.6471,-3.6214,-3.5789,-3.5549,-3.5489,-3.5359,-3.5294,-3.5424,-3.5294,-3.5198,-3.5228,-3.5001,-3.4868,-3.4698,-3.4496,-3.4428,-3.4399,-3.4225,-3.3964,-3.3558,-3.3122,-3.2745,-3.2193,-3.1199,-3.0352,-3.0111,-2.9808,-2.9623,-2.9623,-2.9526,-2.9526,-2.9532,-2.9482,-2.9233,-2.8983,-2.8669,-2.8236,-2.7865,-2.7468,-2.71,-2.6965,-2.6773,-2.6637,-2.6442,-2.5883,-2.5439,-2.4935,-2.4478,-2.3956,-2.3533,-2.2942,-2.223,-2.1166,-2.0443,-1.9768,-1.9312,-1.9023,-1.8999,-1.8999,-1.8999,-1.8893,-1.8655,-1.8333,-1.771,-6.0794,-6.0671,-5.9347,-5.8793,-5.8608,-5.7346,-5.6515,-5.6053,-5.5499,-5.4914,-5.4176,-5.3837,-5.3868,-5.4145,-5.4453,-5.513,-5.5961,-5.5438,-5.5161,-5.5037,-5.4422,-5.3406,-5.2359,-5.1867,-5.1282,-5.0574,-4.9843,-4.9127,-4.8475,-4.7946,-4.7413,-4.6796,-4.6052,-4.5394,-4.4766,-4.4077,-4.3569,-4.3389,-4.3329,-4.3329,-4.3299,-4.2701,-4.2329,-4.1806,-4.1159,-4.0317,-3.9757,-3.9335,-3.8822,-3.8159,-3.7496,-3.6947,-3.6543,-3.6148,-3.5789,-3.5579,-3.5294,-3.5294,-3.5424,-3.5294,-3.5228,-3.5228,-3.5067,-3.4868,-3.4765,-3.4563,-3.4399,-3.4399,-3.4399,-3.4225,-3.3935,-3.3645,-3.318,-3.2542,-3.1691,-3.1141,-3.082,-3.0668,-3.0373,-3.023,-3.0083,-3.0021,-3.0115,-3.0115,-3.0033,-2.9863,-2.9657,-2.9249,-2.893,-2.8499,-2.8068,-2.7841,-2.7505,-2.7228,-2.6749,-2.6217,-2.5297,-2.4845,-2.4073,-2.3603,-2.3263,-2.268,-2.2154,-2.1403,-2.0637,-1.9961,-1.9528,-1.9143,-1.8999,-1.8999,-1.8999,-1.8893,-1.8655,-1.8449,-1.78,-6.0794,-6.0671,-5.9347,-5.8793,-5.8577,-5.7346,-5.6669,-5.6361,-5.5315,-5.476,-5.4545,-5.3991,-5.4176,-5.4853,-5.5284,-5.6023,-5.6669,-5.6084,-5.5776,-5.5468,-5.4914,-5.4022,-5.3098,-5.2421,-5.1929,-5.1436,-5.0389,-4.961,-4.8931,-4.8329,-4.78,-4.7156,-4.6591,-4.6022,-4.5334,-4.4646,-4.3988,-4.3569,-4.3389,-4.3359,-4.3269,-4.2821,-4.2491,-4.2179,-4.11,-4.0217,-3.9709,-3.9409,-3.9152,-3.8752,-3.8159,-3.7391,-3.6746,-3.6567,-3.6118,-3.5574,-3.5359,-3.5294,-3.5359,-3.5294,-3.5228,-3.5294,-3.5067,-3.4868,-3.4802,-3.4534,-3.4399,-3.4399,-3.4399,-3.437,-3.4283,-3.3877,-3.347,-3.3035,-3.268,-3.2396,-3.1874,-3.1613,-3.1293,-3.0771,-3.0655,-3.0568,-3.0628,-3.0568,-3.0568,-3.0093,-2.9943,-2.9736,-2.9383,-2.9003,-2.8741,-2.8685,-2.8208,-2.7678,-2.7111,-2.6549,-2.548,-2.4553,-2.3654,-2.309,-2.2909,-2.2469,-2.2212,-2.1666,-2.1015,-2.0378,-1.9768,-1.9432,-1.9191,-1.8999,-1.8999,-1.8893,-1.8703,-1.84,-1.7913,-6.0794,-6.0671,-5.9347,-5.8793,-5.8577,-5.7346,-5.6453,-5.5899,-5.5099,-5.473,-5.4576,-5.4052,-5.4422,-5.5468,-5.5622,-5.6084,-5.67,-5.6515,-5.6269,-5.5622,-5.5037,-5.4668,-5.4145,-5.3591,-5.2729,-5.1871,-5.126,-5.0262,-4.9296,-4.8672,-4.8049,-4.7279,-4.677,-4.6262,-4.5963,-4.5005,-4.4287,-4.4018,-4.3629,-4.3389,-4.3329,-4.318,-4.2821,-4.2342,-4.1145,-4.0427,-4.0127,-3.9679,-3.9349,-3.9152,-3.8612,-3.7952,-3.7225,-3.6746,-3.6207,-3.5603,-3.5294,-3.5228,-3.5228,-3.5228,-3.5133,-3.5067,-3.5001,-3.4868,-3.4765,-3.4534,-3.4428,-3.4399,-3.4399,-3.4399,-3.4399,-3.4312,-3.4051,-3.3877,-3.3848,-3.3674,-3.3064,-3.2135,-3.1555,-3.1264,-3.0858,-3.0628,-3.0628,-3.0628,-3.0507,-3.0294,-3.0111,-2.996,-2.9628,-2.9302,-2.9184,-2.9038,-2.8641,-2.8056,-2.7464,-2.6613,-2.5261,-2.4275,-2.3371,-2.269,-2.2543,-2.2457,-2.2177,-2.1849,-2.1451,-2.0812,-2.0201,-1.972,-1.948,-1.9239,-1.9047,-1.8935,-1.8705,-1.8395,-1.8089,-6.0609,-6.0209,-5.9224,-5.8608,-5.8177,-5.7223,-5.6546,-5.6053,-5.513,-5.4914,-5.4914,-5.4176,-5.4483,-5.5622,-5.5715,-5.6084,-5.6638,-5.6761,-5.6577,-5.6176,-5.5807,-5.5435,-5.4972,-5.4667,-5.3868,-5.2549,-5.1631,-5.0692,-4.9849,-4.9008,-4.835,-4.7728,-4.71,-4.6621,-4.6352,-4.5574,-4.4945,-4.4347,-4.3988,-4.3658,-4.3389,-4.3329,-4.3,-4.2462,-4.1654,-4.1115,-4.0397,-4.0098,-3.9738,-3.9409,-3.905,-3.8422,-3.7584,-3.7075,-3.641,-3.5538,-3.5359,-3.5228,-3.5162,-3.5228,-3.5294,-3.5067,-3.4935,-3.4868,-3.4765,-3.4563,-3.4428,-3.4399,-3.4399,-3.4399,-3.4399,-3.4399,-3.4399,-3.4399,-3.4399,-3.4254,-3.379,-3.2774,-3.1845,-3.1526,-3.0945,-3.0684,-3.0628,-3.0626,-3.0447,-3.0233,-3.0111,-2.9927,-2.956,-2.9289,-2.9192,-2.9045,-2.8781,-2.836,-2.7742,-2.6634,-2.5056,-2.4064,-2.3169,-2.2641,-2.2321,-2.2273,-2.22,-2.1898,-2.1656,-2.1284,-2.0754,-2.0298,-1.9817,-1.96,-1.9377,-1.9112,-1.8955,-1.8771,-1.8511,-6.0301,-5.9716,-5.8947,-5.83,-5.7715,-5.7038,-5.6761,-5.6546,-5.5315,-5.5161,-5.5468,-5.4391,-5.4514,-5.5622,-5.5715,-5.6115,-5.6607,-5.6761,-5.6669,-5.6638,-5.6577,-5.6173,-5.5708,-5.534,-5.4632,-5.3314,-5.2337,-5.1364,-5.0426,-4.9462,-4.8711,-4.8265,-4.7608,-4.704,-4.6591,-4.6292,-4.5753,-4.4915,-4.4407,-4.4047,-4.3599,-4.3449,-4.303,-4.2671,-4.2282,-4.1773,-4.0995,-4.0516,-4.0127,-3.9619,-3.9469,-3.8751,-3.7913,-3.7375,-3.6768,-3.5347,-3.5359,-3.5228,-3.503,-3.5162,-3.5294,-3.5133,-3.4935,-3.4868,-3.4802,-3.4601,-3.4399,-3.4399,-3.4399,-3.4399,-3.4399,-3.4399,-3.4399,-3.4399,-3.4399,-3.4399,-3.4196,-3.3354,-3.2542,-3.199,-3.1409,-3.0974,-3.0771,-3.0742,-3.0473,-3.0172,-3.014,-2.9927,-2.9554,-2.9184,-2.9085,-2.9022,-2.8757,-2.8112,-2.7498,-2.689,-2.5273,-2.4064,-2.3145,-2.2701,-2.2332,-2.2235,-2.2187,-2.2139,-2.1861,-2.1548,-2.1235,-2.0779,-2.037,-1.9977,-1.9801,-1.9634,-1.9425,-1.9213,-1.8895,-5.9901,-5.9686,-5.8454,-5.7869,-5.7685,-5.7069,-5.6761,-5.6546,-5.5345,-5.5438,-5.6207,-5.4637,-5.4791,-5.5992,-5.5869,-5.6084,-5.6515,-5.67,-5.6761,-5.6761,-5.6761,-5.6383,-5.6066,-5.5638,-5.4744,-5.3823,-5.2976,-5.2154,-5.0759,-4.9824,-4.9044,-4.8385,-4.7698,-4.7249,-4.698,-4.6621,-4.6262,-4.5663,-4.4975,-4.4407,-4.4018,-4.3569,-4.3299,-4.303,-4.2701,-4.2282,-4.1803,-4.0965,-4.0337,-4.0187,-3.9709,-3.902,-3.8272,-3.7704,-3.6701,-3.5614,-3.5228,-3.5162,-3.4831,-3.4868,-3.4964,-3.4831,-3.4765,-3.4765,-3.4698,-3.4534,-3.4399,-3.4399,-3.4399,-3.4399,-3.4399,-3.4399,-3.4399,-3.4399,-3.4399,-3.4399,-3.4254,-3.3819,-3.3296,-3.2977,-3.2135,-3.1351,-3.1293,-3.1177,-3.0906,-3.0573,-3.0273,-2.9967,-2.9533,-2.9104,-2.8766,-2.8702,-2.8638,-2.7937,-2.7189,-2.6684,-2.564,-2.4394,-2.3427,-2.2858,-2.2501,-2.2246,-2.2173,-2.2125,-2.2053,-2.1861,-2.1524,-2.1187,-2.0875,-2.0562,-2.0318,-2.0179,-1.9877,-1.9607,-1.9426,-5.9378,-5.8701,-5.8023,-5.7562,-5.7223,-5.6915,-5.6761,-5.6607,-5.5715,-5.5807,-5.593,-5.4791,-5.4853,-5.5961,-5.5191,-5.5159,-5.5892,-5.6445,-5.6439,-5.647,-5.6372,-5.6274,-5.6077,-5.5682,-5.4758,-5.3772,-5.336,-5.2574,-5.0996,-5.0275,-4.9524,-4.8895,-4.8147,-4.7668,-4.7339,-4.701,-4.6651,-4.6262,-4.5663,-4.4945,-4.4317,-4.3688,-4.3389,-4.324,-4.303,-4.2731,-4.2192,-4.1504,-4.0756,-4.0337,-3.9768,-3.911,-3.8542,-3.8003,-3.7178,-3.5874,-3.537,-3.503,-3.4668,-3.4735,-3.4868,-3.4765,-3.4698,-3.4698,-3.4631,-3.4563,-3.4399,-3.4399,-3.4399,-3.4399,-3.4399,-3.4399,-3.4399,-3.4399,-3.4399,-3.4399,-3.4341,-3.4109,-3.3964,-3.379,-3.2861,-3.2193,-3.2019,-3.1811,-3.1483,-3.1065,-3.0614,-3.0094,-2.9628,-2.9233,-2.8903,-2.8573,-2.8509,-2.8023,-2.7261,-2.6622,-2.6023,-2.4753,-2.3781,-2.3207,-2.2766,-2.2558,-2.2342,-2.2173,-2.2101,-2.2221,-2.1861,-2.1548,-2.1308,-2.1032,-2.0689,-2.0367,-2.0159,-1.9975,-1.9761,-5.8762,-5.7777,-5.7623,-5.7254,-5.6823,-5.6761,-5.6761,-5.6607,-5.5992,-5.5961,-5.6238,-5.4884,-5.4914,-5.5776,-5.5159,-5.4696,-5.5516,-5.6066,-5.5963,-5.6077,-5.6077,-5.588,-5.578,-5.553,-5.4956,-5.3518,-5.3308,-5.2708,-5.1353,-5.0481,-4.9942,-4.9344,-4.8716,-4.8057,-4.7608,-4.7339,-4.698,-4.6681,-4.6322,-4.5633,-4.4496,-4.3808,-4.3449,-4.3359,-4.3329,-4.306,-4.2611,-4.1743,-4.1145,-4.0576,-3.9918,-3.917,-3.8691,-3.8452,-3.7685,-3.6369,-3.5629,-3.5074,-3.4601,-3.4601,-3.4668,-3.4631,-3.4631,-3.4631,-3.4631,-3.4496,-3.4399,-3.4399,-3.4399,-3.4399,-3.4399,-3.4399,-3.4399,-3.4399,-3.4399,-3.4399,-3.4399,-3.4341,-3.4312,-3.3935,-3.3296,-3.2977,-3.2745,-3.2338,-3.1951,-3.1795,-3.1375,-3.0651,-3.0155,-2.9647,-2.9196,-2.8719,-2.8444,-2.8091,-2.7512,-2.6709,-2.6079,-2.512,-2.4279,-2.361,-2.3207,-2.2919,-2.2702,-2.2558,-2.2702,-2.2751,-2.2342,-2.1933,-2.1656,-2.133,-2.0941,-2.0634,-2.0393,-2.0272,-2.0134,-5.7931,-5.7715,-5.7131,-5.6823,-5.6761,-5.6761,-5.6761,-5.6669,-5.5992,-5.5745,-5.5869,-5.5007,-5.4945,-5.5343,-5.5367,-5.5612,-5.5755,-5.5567,-5.5493,-5.5789,-5.588,-5.578,-5.5581,-5.5581,-5.4669,-5.3421,-5.3241,-5.2396,-5.1379,-5.0601,-5.0242,-4.9853,-4.8955,-4.8207,-4.8027,-4.7549,-4.7279,-4.707,-4.6621,-4.5693,-4.4586,-4.4227,-4.3838,-4.3479,-4.3329,-4.3269,-4.297,-4.2132,-4.1384,-4.1115,-4.0068,-3.9439,-3.92,-3.8691,-3.7853,-3.6931,-3.6143,-3.5389,-3.4612,-3.4467,-3.4467,-3.4496,-3.4496,-3.4496,-3.4496,-3.4428,-3.4399,-3.4399,-3.4399,-3.4399,-3.4399,-3.4399,-3.4399,-3.4399,-3.4399,-3.4399,-3.4399,-3.4399,-3.4399,-3.437,-3.3819,-3.3616,-3.3441,-3.2919,-3.242,-3.2291,-3.2076,-3.1346,-3.062,-3.0044,-2.9508,-2.8991,-2.8368,-2.8052,-2.763,-2.6848,-2.6223,-2.5382,-2.4676,-2.4001,-2.3713,-2.3424,-2.3232,-2.3159,-2.3304,-2.3119,-2.2599,-2.2265,-2.1987,-2.1705,-2.133,-2.1014,-2.061,-2.0506,-2.0335,-5.6823,-5.7192,-5.6884,-5.6761,-5.6761,-5.6761,-5.6761,-5.6607,-5.6023,-5.5684,-5.5468,-5.4576,-5.4022,-5.4112,-5.4626,-5.4983,-5.4916,-5.4752,-5.5047,-5.543,-5.5551,-5.5451,-5.529,-5.499,-5.4141,-5.3421,-5.2755,-5.2127,-5.1319,-5.093,-5.0661,-5.0152,-4.9344,-4.8626,-4.8327,-4.7638,-4.7369,-4.71,-4.6621,-4.5843,-4.5035,-4.4466,-4.3988,-4.3359,-4.3359,-4.3329,-4.3011,-4.2335,-4.159,-4.1203,-4.0204,-3.9652,-3.9324,-3.8865,-3.8377,-3.7571,-3.7134,-3.6102,-3.4758,-3.4486,-3.4457,-3.4428,-3.4428,-3.4399,-3.4399,-3.4399,-3.4399,-3.4399,-3.4399,-3.4399,-3.4399,-3.4399,-3.4399,-3.4399,-3.4399,-3.4399,-3.4399,-3.4399,-3.4399,-3.4399,-3.4399,-3.4138,-3.3935,-3.3703,-3.3318,-3.3091,-3.2749,-3.2141,-3.1198,-3.0196,-2.9722,-2.929,-2.861,-2.7987,-2.7523,-2.6909,-2.6339,-2.561,-2.4901,-2.4338,-2.4194,-2.3977,-2.3785,-2.3616,-2.3616,-2.3334,-2.2805,-2.2645,-2.2509,-2.2198,-2.18,-2.1342,-2.0861,-2.0466,-2.0292,-5.5869,-5.6484,-5.6484,-5.6484,-5.6515,-5.6669,-5.6638,-5.6423,-5.593,-5.5499,-5.4944,-5.4174,-5.3499,-5.3344,-5.4279,-5.4691,-5.4225,-5.4368,-5.466,-5.492,-5.491,-5.479,-5.4491,-5.4072,-5.3593,-5.2935,-5.2516,-5.1768,-5.1229,-5.102,-5.09,-5.0451,-4.9883,-4.9194,-4.8536,-4.7967,-4.7578,-4.7249,-4.686,-4.6172,-4.5334,-4.4825,-4.4137,-4.3599,-4.3329,-4.3329,-4.316,-4.2514,-4.1811,-4.1109,-4.0426,-3.9743,-3.9135,-3.8928,-3.8529,-3.784,-3.7461,-3.6704,-3.5514,-3.4893,-3.469,-3.4603,-3.4457,-3.4399,-3.4399,-3.4399,-3.4399,-3.4399,-3.4399,-3.4399,-3.4399,-3.4399,-3.4399,-3.4399,-3.4399,-3.4399,-3.4399,-3.4399,-3.4399,-3.4399,-3.4399,-3.4399,-3.4283,-3.4341,-3.4148,-3.3945,-3.3482,-3.284,-3.1802,-3.065,-2.9983,-2.9523,-2.9026,-2.8292,-2.7549,-2.7011,-2.6465,-2.5881,-2.5168,-2.4816,-2.4626,-2.4482,-2.4246,-2.4102,-2.3958,-2.3641,-2.3276,-2.3159,-2.3042,-2.2451,-2.1888,-2.1486,-2.1063,-2.0643,-2.0314,-5.5191,-5.5776,-5.5745,-5.5807,-5.5838,-5.6484,-5.6361,-5.5776,-5.5653,-5.4696,-5.3682,-5.3769,-5.407,-5.443,-5.4268,-5.4616,-5.5219,-5.453,-5.4221,-5.4192,-5.4251,-5.3922,-5.3623,-5.3324,-5.2935,-5.2426,-5.1977,-5.1289,-5.069,-5.075,-5.096,-5.105,-5.0242,-4.9733,-4.9075,-4.8267,-4.7698,-4.7399,-4.713,-4.6441,-4.5633,-4.5065,-4.4526,-4.3599,-4.3329,-4.3329,-4.3299,-4.2682,-4.1841,-4.1092,-4.0499,-3.9654,-3.9047,-3.8797,-3.8399,-3.8032,-3.774,-3.7128,-3.6387,-3.5619,-3.5299,-3.5125,-3.4806,-3.4399,-3.4399,-3.4399,-3.4399,-3.4399,-3.4399,-3.4399,-3.4399,-3.4399,-3.4399,-3.4399,-3.4399,-3.4399,-3.4399,-3.4399,-3.4399,-3.4399,-3.4399,-3.4399,-3.4399,-3.4399,-3.4128,-3.3865,-3.352,-3.2876,-3.2249,-3.1186,-3.0433,-2.9849,-2.9416,-2.8639,-2.7721,-2.7105,-2.6577,-2.6094,-2.5481,-2.5247,-2.5202,-2.4963,-2.4747,-2.4515,-2.4396,-2.4026,-2.3652,-2.3421,-2.3098,-2.2411,-2.1956,-2.1707,-2.1459,-2.1191,-2.0773,-5.4268,-5.4514,-5.4914,-5.5345,-5.5715,-5.5927,-5.5555,-5.4911,-5.4293,-5.3528,-5.2489,-5.297,-5.3088,-5.3024,-5.3134,-5.3278,-5.3331,-5.2762,-5.2935,-5.3234,-5.3204,-5.3084,-5.2905,-5.2695,-5.2426,-5.2037,-5.1498,-5.087,-5.0361,-5.0301,-5.0002,-4.9972,-5.0152,-4.9823,-4.9194,-4.8267,-4.7638,-4.7429,-4.7219,-4.6621,-4.5574,-4.5214,-4.4676,-4.3479,-4.317,-4.314,-4.3031,-4.2643,-4.1824,-4.1008,-4.043,-3.9694,-3.8825,-3.8679,-3.8429,-3.815,-3.8018,-3.7695,-3.7346,-3.6489,-3.5793,-3.527,-3.4806,-3.4399,-3.4399,-3.4399,-3.4399,-3.4399,-3.4399,-3.4399,-3.4399,-3.4399,-3.4399,-3.4399,-3.4399,-3.4399,-3.4399,-3.4399,-3.4399,-3.4399,-3.4399,-3.4399,-3.4399,-3.4399,-3.4059,-3.3756,-3.3339,-3.2904,-3.2347,-3.1805,-3.1075,-3.0405,-2.9971,-2.9174,-2.8249,-2.7446,-2.6739,-2.6233,-2.5816,-2.5676,-2.5511,-2.5441,-2.5247,-2.4991,-2.4685,-2.4259,-2.3976,-2.3647,-2.3228,-2.2674,-2.2306,-2.2006,-2.1848,-2.1669,-2.1341,-5.3438,-5.3653,-5.4145,-5.4821,-5.5558,-5.5459,-5.4996,-5.4229,-5.3401,-5.2609,-5.194,-5.2265,-5.2262,-5.1927,-5.2072,-5.2247,-5.2187,-5.1768,-5.1798,-5.1858,-5.1887,-5.1917,-5.2007,-5.1917,-5.1588,-5.1588,-5.1169,-5.0541,-5.0212,-4.9763,-4.9763,-4.9823,-4.9733,-4.9464,-4.8835,-4.7967,-4.7309,-4.7309,-4.7219,-4.68,-4.5753,-4.5251,-4.4803,-4.3588,-4.3159,-4.293,-4.285,-4.2541,-4.1792,-4.0979,-4.0286,-3.973,-3.8923,-3.8427,-3.8427,-3.8352,-3.8277,-3.8202,-3.7883,-3.707,-3.6054,-3.5415,-3.4777,-3.4486,-3.4399,-3.4399,-3.4399,-3.4399,-3.4399,-3.4399,-3.4399,-3.4399,-3.4399,-3.4399,-3.4399,-3.4399,-3.4399,-3.4399,-3.4399,-3.4399,-3.4399,-3.4399,-3.4332,-3.4264,-3.4196,-3.3922,-3.3687,-3.3339,-3.2919,-3.2332,-3.1775,-3.1128,-3.0608,-2.9724,-2.8807,-2.8014,-2.7224,-2.6414,-2.6094,-2.5955,-2.5886,-2.5746,-2.5535,-2.5252,-2.4898,-2.4539,-2.4036,-2.3514,-2.3257,-2.2978,-2.265,-2.2418,-2.2171,-2.204,-2.1865,-5.2704,-5.3284,-5.3346,-5.411,-5.518,-5.5333,-5.4809,-5.3732,-5.3155,-5.2332,-5.1602,-5.1862,-5.1977,-5.1828,-5.1678,-5.1678,-5.1588,-5.1169,-5.087,-5.0541,-5.0421,-5.0361,-5.0481,-5.0541,-5.09,-5.1169,-5.093,-5.0571,-5.0242,-4.9942,-4.9972,-4.9793,-4.9464,-4.9015,-4.8327,-4.7668,-4.7339,-4.7309,-4.7309,-4.686,-4.6147,-4.5496,-4.4816,-4.3901,-4.3183,-4.2895,-4.2688,-4.2607,-4.1799,-4.0724,-4.0412,-3.9634,-3.8481,-3.8306,-3.8277,-3.8202,-3.8202,-3.8202,-3.8115,-3.6983,-3.6199,-3.5503,-3.4922,-3.4457,-3.4399,-3.4399,-3.4399,-3.4399,-3.4399,-3.4399,-3.4399,-3.4399,-3.4399,-3.4399,-3.4399,-3.4399,-3.4399,-3.4399,-3.4399,-3.4399,-3.4399,-3.4332,-3.4264,-3.4196,-3.4196,-3.4059,-3.3922,-3.3618,-3.3199,-3.2664,-3.2061,-3.1787,-3.121,-3.0384,-2.9432,-2.8585,-2.7739,-2.6873,-2.6277,-2.6164,-2.6094,-2.5955,-2.5746,-2.5465,-2.4897,-2.4418,-2.3813,-2.3276,-2.3165,-2.3003,-2.3018,-2.2783,-2.2608,-2.2433,-2.228,-5.2063,-5.3067,-5.3067,-5.3489,-5.4092,-5.3698,-5.3058,-5.2389,-5.1994,-5.1386,-5.0783,-5.084,-5.0601,-5.0391,-5.0331,-5.0331,-5.0182,-4.9613,-4.9134,-4.9553,-4.9194,-4.9314,-4.9553,-5.0002,-5.0331,-5.0511,-5.0541,-5.0601,-5.0242,-4.9972,-4.9673,-4.9434,-4.9015,-4.8536,-4.8177,-4.7698,-4.7309,-4.7309,-4.7249,-4.698,-4.6296,-4.5798,-4.5119,-4.4027,-4.3372,-4.2884,-4.2503,-4.2392,-4.1668,-4.0567,-4.0392,-3.9644,-3.8551,-3.826,-3.8231,-3.8231,-3.8202,-3.8202,-3.8028,-3.7389,-3.6693,-3.5909,-3.5096,-3.4516,-3.4399,-3.4399,-3.4399,-3.4399,-3.4399,-3.4399,-3.4399,-3.4399,-3.4399,-3.4399,-3.4399,-3.4399,-3.4399,-3.4399,-3.4399,-3.4399,-3.4399,-3.4399,-3.4332,-3.4264,-3.4264,-3.3991,-3.3854,-3.3618,-3.3199,-3.2731,-3.2164,-3.2116,-3.1717,-3.101,-3.0157,-2.9136,-2.8195,-2.7272,-2.6666,-2.6302,-2.6258,-2.6188,-2.5955,-2.5676,-2.4897,-2.4177,-2.374,-2.3298,-2.315,-2.2979,-2.3001,-2.3001,-2.2826,-2.2783,-2.2783,-5.1183,-5.2152,-5.2183,-5.2332,-5.2537,-5.2567,-5.2205,-5.1416,-5.1083,-5.0631,-5.0272,-5.0032,-4.9733,-4.9344,-4.9045,-4.8925,-4.8865,-4.8267,-4.8027,-4.8536,-4.8207,-4.8416,-4.8955,-4.9583,-5.0002,-5.0182,-5.0481,-5.0601,-5.0601,-4.9942,-4.9404,-4.8925,-4.8506,-4.8177,-4.7878,-4.7489,-4.7309,-4.7309,-4.7163,-4.6957,-4.6453,-4.5895,-4.5191,-4.428,-4.35,-4.2869,-4.2432,-4.2,-4.1599,-4.0757,-4.0263,-3.9828,-3.8957,-3.8522,-3.8434,-3.8318,-3.8202,-3.8202,-3.8057,-3.7622,-3.6925,-3.6257,-3.5299,-3.4719,-3.4486,-3.4399,-3.4399,-3.4399,-3.4399,-3.4399,-3.4399,-3.4399,-3.4399,-3.4399,-3.4399,-3.4399,-3.4399,-3.4399,-3.4399,-3.4399,-3.4399,-3.4399,-3.4399,-3.4399,-3.4332,-3.4059,-3.3687,-3.3479,-3.3199,-3.2803,-3.23,-3.2236,-3.2044,-3.1388,-3.0557,-2.9705,-2.8731,-2.7768,-2.7132,-2.6552,-2.6327,-2.6164,-2.605,-2.584,-2.504,-2.4322,-2.374,-2.3372,-2.315,-2.3001,-2.3001,-2.3001,-2.3001,-2.3001,-2.3001,-4.9975,-5.0517,-5.0577,-5.0608,-5.0819,-5.1874,-5.1837,-5.1079,-5.0481,-5.0182,-5.0092,-4.9404,-4.9105,-4.8985,-4.8506,-4.8267,-4.8207,-4.7638,-4.7549,-4.7489,-4.7519,-4.7848,-4.8297,-4.8925,-4.9374,-5.0092,-5.0511,-5.0571,-5.099,-5.0391,-4.9494,-4.8626,-4.8356,-4.7967,-4.7608,-4.7369,-4.7309,-4.7222,-4.7106,-4.6929,-4.6664,-4.5872,-4.5081,-4.4262,-4.3566,-4.2815,-4.2378,-4.2005,-4.1657,-4.1221,-4.0989,-4.0263,-3.9654,-3.9218,-3.8783,-3.8405,-3.8202,-3.8202,-3.8115,-3.7651,-3.7186,-3.6577,-3.5822,-3.5154,-3.4632,-3.4399,-3.4399,-3.4399,-3.4399,-3.4399,-3.4399,-3.4399,-3.4399,-3.4399,-3.4399,-3.4399,-3.4399,-3.4399,-3.4399,-3.4399,-3.4399,-3.4399,-3.4399,-3.4399,-3.4332,-3.4128,-3.3854,-3.3479,-3.3199,-3.2917,-3.2516,-3.2228,-3.1992,-3.1712,-3.093,-3.0099,-2.9228,-2.8282,-2.7297,-2.6735,-2.6487,-2.6144,-2.5955,-2.5606,-2.4969,-2.4322,-2.3593,-2.3224,-2.3075,-2.3001,-2.3001,-2.3001,-2.3001,-2.3001,-2.3001,-4.9044,-4.9614,-4.9644,-4.9704,-4.9764,-5.0543,-5.0513,-4.9853,-4.9583,-4.9344,-4.8835,-4.8656,-4.8416,-4.7848,-4.7668,-4.7638,-4.7519,-4.7399,-4.7369,-4.7309,-4.7309,-4.7429,-4.7788,-4.8297,-4.8656,-4.9045,-4.9553,-5.0182,-5.0391,-5.0212,-4.9494,-4.8476,-4.8237,-4.7818,-4.7519,-4.7309,-4.7309,-4.7222,-4.7019,-4.6931,-4.6578,-4.5756,-4.5053,-4.4237,-4.3425,-4.2702,-4.2266,-4.2092,-4.1744,-4.1279,-4.1134,-4.0612,-3.9973,-3.945,-3.8899,-3.8318,-3.8202,-3.8202,-3.8173,-3.8028,-3.7622,-3.6983,-3.6344,-3.5444,-3.4806,-3.4428,-3.4428,-3.4399,-3.4399,-3.4399,-3.4399,-3.4399,-3.4399,-3.4399,-3.4399,-3.4399,-3.4399,-3.4399,-3.4399,-3.4399,-3.4399,-3.4399,-3.4399,-3.4399,-3.4332,-3.4196,-3.3991,-3.3548,-3.3199,-3.2846,-3.2561,-3.23,-3.2082,-3.1775,-3.1276,-3.042,-2.9667,-2.8867,-2.7801,-2.6917,-2.6476,-2.6159,-2.5868,-2.5394,-2.4754,-2.4032,-2.3224,-2.3001,-2.3001,-2.3001,-2.3001,-2.3001,-2.3001,-2.3001,-2.3001,-4.8297,-4.8835,-4.8865,-4.8865,-4.8955,-4.9284,-4.9224,-4.8985,-4.9404,-4.9284,-4.8686,-4.8416,-4.7938,-4.7429,-4.7369,-4.7339,-4.7339,-4.7339,-4.7309,-4.7309,-4.7309,-4.7339,-4.7549,-4.7938,-4.8297,-4.8506,-4.8895,-4.9583,-4.9733,-4.9494,-4.8865,-4.8356,-4.8117,-4.7698,-4.7399,-4.7222,-4.7106,-4.7019,-4.6931,-4.6756,-4.6314,-4.5639,-4.485,-4.4122,-4.3396,-4.2702,-4.2208,-4.2092,-4.1831,-4.1541,-4.1482,-4.1163,-4.0437,-3.9712,-3.8928,-3.8347,-3.8202,-3.8202,-3.8202,-3.8202,-3.7854,-3.736,-3.6722,-3.5851,-3.5125,-3.4632,-3.4516,-3.4399,-3.4399,-3.4399,-3.4399,-3.4399,-3.4399,-3.4399,-3.4399,-3.4399,-3.4399,-3.4399,-3.4399,-3.4399,-3.4399,-3.4399,-3.4399,-3.4399,-3.4264,-3.4059,-3.3854,-3.3479,-3.3058,-3.266,-3.2444,-3.2255,-3.2036,-3.1836,-3.1235,-3.0634,-2.9779,-2.895,-2.8026,-2.7212,-2.67,-2.6117,-2.5708,-2.5183,-2.4539,-2.3813,-2.315,-2.3075,-2.3001,-2.3001,-2.3001,-2.3001,-2.3001,-2.3001,-2.3001,-4.7668,-4.8207,-4.8207,-4.8267,-4.8297,-4.8386,-4.8416,-4.8476,-4.9583,-4.9823,-4.9164,-4.8656,-4.8117,-4.7818,-4.7758,-4.7608,-4.7578,-4.7549,-4.7429,-4.7309,-4.7309,-4.7369,-4.7668,-4.7938,-4.8147,-4.8446,-4.8686,-4.8746,-4.8895,-4.8745,-4.8536,-4.8177,-4.7581,-4.7252,-4.7165,-4.6931,-4.6844,-4.6726,-4.652,-4.6256,-4.5933,-4.5288,-4.4531,-4.3863,-4.3224,-4.2644,-4.2237,-4.2092,-4.2092,-4.2092,-4.1889,-4.157,-4.0728,-3.9828,-3.8957,-3.8522,-3.8318,-3.8202,-3.8202,-3.8202,-3.7941,-3.7418,-3.678,-3.617,-3.559,-3.4748,-3.4457,-3.4428,-3.4399,-3.4399,-3.4399,-3.4399,-3.4399,-3.4399,-3.4399,-3.4399,-3.4399,-3.4399,-3.4399,-3.4399,-3.4399,-3.4332,-3.4196,-3.4128,-3.3991,-3.3854,-3.3548,-3.3199,-3.2917,-3.2516,-3.23,-3.2182,-3.2109,-3.189,-3.132,-3.0641,-2.9808,-2.8948,-2.8166,-2.7375,-2.6723,-2.6166,-2.5563,-2.494,-2.4345,-2.3813,-2.3298,-2.315,-2.3001,-2.3001,-2.3001,-2.3001,-2.3001,-2.3001,-2.3001,-4.7195,-4.7549,-4.7549,-4.7818,-4.8237,-4.8297,-4.8536,-4.9015,-4.9314,-4.9404,-4.9254,-4.9075,-4.8895,-4.8656,-4.8626,-4.8416,-4.7967,-4.7848,-4.7698,-4.7429,-4.7309,-4.7638,-4.7878,-4.788,-4.7999,-4.8059,-4.8118,-4.7911,-4.8027,-4.8027,-4.7909,-4.7316,-4.6989,-4.6842,-4.6755,-4.655,-4.6373,-4.6197,-4.5845,-4.5551,-4.5288,-4.4676,-4.3892,-4.3282,-4.2673,-4.2353,-4.2092,-4.2092,-4.2092,-4.2063,-4.157,-4.1018,-4.0321,-3.9596,-3.9189,-3.8928,-3.8434,-3.826,-3.8202,-3.8202,-3.8057,-3.7854,-3.7331,-3.6751,-3.5996,-3.5009,-3.4457,-3.4428,-3.4399,-3.4399,-3.4399,-3.4399,-3.4399,-3.4399,-3.4399,-3.4399,-3.4399,-3.4332,-3.4332,-3.4399,-3.4399,-3.4196,-3.4059,-3.3854,-3.3687,-3.3479,-3.3129,-3.2846,-3.2704,-3.2444,-3.23,-3.2182,-3.2182,-3.189,-3.1347,-3.0771,-3.0037,-2.9351,-2.8642,-2.7721,-2.689,-2.6238,-2.5685,-2.4798,-2.4127,-2.3666,-2.3372,-2.3075,-2.3001,-2.3001,-2.3001,-2.3001,-2.3001,-2.3001,-2.3001,-4.6688,-4.689,-4.686,-4.689,-4.701,-4.7279,-4.7638,-4.7997,-4.8566,-4.8985,-4.9254,-4.9254,-4.9254,-4.9254,-4.9254,-4.8745,-4.8147,-4.8177,-4.7549,-4.716,-4.7489,-4.7938,-4.7969,-4.8029,-4.8089,-4.8089,-4.767,-4.7402,-4.7252,-4.7344,-4.7286,-4.6842,-4.6606,-4.6225,-4.6108,-4.5844,-4.561,-4.5318,-4.4909,-4.4675,-4.4442,-4.3803,-4.3427,-4.2876,-4.2498,-4.2179,-4.2092,-4.2092,-4.2092,-4.1918,-4.1482,-4.0583,-3.9944,-3.9392,-3.9044,-3.8725,-3.8405,-3.8202,-3.8202,-3.8202,-3.8202,-3.7999,-3.7302,-3.6489,-3.617,-3.5212,-3.4486,-3.4399,-3.4399,-3.4399,-3.4399,-3.4399,-3.4399,-3.4399,-3.4332,-3.4332,-3.4264,-3.4128,-3.4196,-3.4196,-3.4128,-3.3922,-3.3785,-3.3618,-3.3479,-3.3129,-3.2775,-3.2561,-3.2444,-3.2372,-3.2228,-3.2182,-3.2182,-3.1963,-3.1347,-3.0898,-3.0317,-2.963,-2.9096,-2.8398,-2.7606,-2.6602,-2.5732,-2.4919,-2.4246,-2.374,-2.3446,-2.315,-2.3001,-2.3001,-2.3001,-2.3001,-2.3001,-2.3001,-2.3001,-4.5977,-4.6322,-4.6352,-4.6082,-4.5663,-4.6112,-4.6411,-4.6561,-4.7429,-4.8207,-4.8656,-4.8716,-4.9015,-4.9464,-4.9314,-4.8476,-4.8027,-4.8207,-4.7519,-4.716,-4.7608,-4.7967,-4.8325,-4.8505,-4.8297,-4.782,-4.7225,-4.7016,-4.6867,-4.6664,-4.6429,-4.6342,-4.5959,-4.5459,-4.5226,-4.4789,-4.4412,-4.4412,-4.4122,-4.3658,-4.3253,-4.2963,-4.2934,-4.2731,-4.2411,-4.2121,-4.2092,-4.2092,-4.2092,-4.1744,-4.1308,-4.035,-3.9596,-3.9073,-3.8899,-3.858,-3.8347,-3.8231,-3.8202,-3.8202,-3.8202,-3.7941,-3.6954,-3.6373,-3.6083,-3.5473,-3.4748,-3.4399,-3.4399,-3.4399,-3.4399,-3.4399,-3.4399,-3.4332,-3.4332,-3.4264,-3.4059,-3.3922,-3.3922,-3.3991,-3.3854,-3.3646,-3.3507,-3.3339,-3.3129,-3.2775,-3.2561,-3.2444,-3.23,-3.23,-3.2255,-3.2182,-3.2182,-3.179,-3.1421,-3.1048,-3.0672,-3.0241,-2.9732,-2.9051,-2.825,-2.7307,-2.6212,-2.5157,-2.4461,-2.3954,-2.3468,-2.3075,-2.3075,-2.3001,-2.3001,-2.3001,-2.3001,-2.3001,-2.3001,-4.5476,-4.6322,-4.6322,-4.6501,-4.677,-4.6501,-4.6322,-4.6262,-4.5992,-4.6262,-4.692,-4.716,-4.8087,-5.075,-5.0242,-4.9374,-4.8386,-4.8356,-4.7878,-4.7399,-4.7578,-4.7878,-4.8207,-4.8565,-4.806,-4.7228,-4.6429,-4.6218,-4.6013,-4.5543,-4.5076,-4.4934,-4.4846,-4.4469,-4.4297,-4.3978,-4.3862,-4.3745,-4.3454,-4.305,-4.305,-4.2847,-4.2644,-4.244,-4.215,-4.2092,-4.2092,-4.2092,-4.2092,-4.1744,-4.096,-3.9973,-3.9276,-3.8754,-3.8609,-3.8609,-3.8405,-3.8231,-3.8202,-3.8202,-3.8202,-3.8115,-3.7273,-3.6664,-3.6228,-3.5561,-3.4922,-3.4457,-3.4399,-3.4399,-3.4399,-3.4399,-3.4399,-3.4332,-3.4264,-3.4059,-3.3854,-3.3646,-3.3605,-3.3577,-3.3437,-3.3297,-3.3129,-3.2988,-3.2704,-3.2489,-3.2372,-3.2228,-3.2228,-3.2255,-3.2182,-3.2182,-3.2182,-3.1936,-3.1643,-3.1394,-3.1022,-3.0696,-3.0392,-2.9879,-2.9068,-2.794,-2.6865,-2.5901,-2.4938,-2.4265,-2.3756,-2.3229,-2.3045,-2.3045,-2.3001,-2.3001,-2.3001,-2.3001,-2.3001]},{"header":{"parameterUnit":"m.s-1","parameterCategory":1,"la1":31.0,"la2":29.5877,"lo1":-88.7671,"lo2":-86.6584,"dy":0.0162,"dx":0.0185,"nx":115,"ny":88,"refTime":"2023-08-06T00:00:00:Z","depth":0,"parameterNumber":3,"parameterNumberName":"V-component_of_WINDS"},"data":[0.0,0.0,0.0,0.0,0.0,0.0,0.0,0.0,0.0,0.0,0.0,0.0,0.0,0.0,0.0,0.0,0.0,0.0,0.0,0.0,0.0,0.0,0.0,0.0,0.0,0.0,0.0,0.0,0.0,0.0,0.0,0.0,0.0,0.0,0.0,0.0,0.0,0.0,0.0,0.0,0.0,0.0,0.0,0.0,0.0,0.0,0.0,0.0,0.0,0.0,0.0,0.0,0.0,0.0,0.0,0.0,0.0,0.0,0.0,0.0,0.0,0.0,0.0,0.0,0.0,0.0,0.0,0.0,0.0,0.0,0.0,0.0,0.0,0.0,0.0,0.0,0.0,0.0,0.0,0.0,0.0,0.0,0.0,0.0,0.0,0.0,0.0,0.0,0.0,0.0,0.0,0.0,0.0,0.0,0.0,0.0,0.0,0.0,0.0,0.0,0.0,0.0,0.0,0.0,0.0,0.0,0.0,0.0,0.0,0.0,0.0,0.0,0.0,0.0,0.0,0.0,0.0,0.0,0.0,0.0,0.0,0.0,0.0,0.0,0.0,0.0,0.0,0.0,0.0,0.0,0.0,0.0,0.0,0.0,0.0,0.0,0.0,0.0,0.0,0.0,0.0,0.0,0.0,0.0,0.0,0.0,0.0,0.0,0.0,0.0,0.0,0.0,0.0,0.0,0.0,0.0,0.0,0.0,0.0,0.0,0.0,0.0,0.0,0.0,0.0,0.0,0.0,0.0,0.0,0.0,0.0,0.0,0.0,0.0,0.0,0.0,0.0,0.0,0.0,0.0,0.0,0.0,0.0,0.0,0.0,0.0,0.0,0.0,0.0,0.0,0.0,0.0,0.0,0.0,0.0,0.0,0.0,0.0,0.0,0.0,0.0,0.0,0.0,0.0,0.0,0.0,0.0,0.0,0.0,0.0,0.0,0.0,0.0,0.0,0.0,0.0,0.0,0.0,0.0,0.0,0.0,0.0,0.0,0.0,0.0,0.0,0.0,0.0,0.0,0.0,0.0,0.0,0.0,0.0,0.0,0.0,0.0,0.0,0.0,0.0,0.0,0.0,0.0,0.0,0.0,0.0,0.0,0.0,0.0,0.0,0.0,0.0,0.0,0.0,0.0,0.0,0.0,0.0,0.0,0.0,0.0,0.0,0.0,0.0,0.0,0.0,0.0,0.0,0.0,0.0,0.0,0.0,0.0,0.0,0.0,0.0,0.0,0.0,0.0,0.0,0.0,0.0,0.0,0.0,0.0,0.0,0.0,0.0,0.0,0.0,0.0,0.0,0.0,0.0,0.0,0.0,0.0,0.0,0.0,0.0,0.0,0.0,0.0,0.0,0.0,0.0,0.0,0.0,0.0,0.0,0.0,0.0,0.0,0.0,0.0,0.0,0.0,0.0,0.0,0.0,0.0,0.0,0.0,0.0,0.0,0.0,0.0,0.0,0.0,0.0,0.0,0.0,0.0,0.0,0.0,0.0,0.0,0.0,0.0,0.0,0.0,0.0,0.0,0.0,0.0,0.0,0.0,0.0,0.0,0.0,0.0,0.0,0.0,0.0,0.0,0.0,0.0,0.0,0.0,0.0,0.0,0.0,0.0,0.0,0.0,0.0,0.0,0.0,0.0,0.0,0.0,0.0,0.0,0.0,0.0,0.0,0.0,0.0,0.0,0.0,0.0,0.0,0.0,0.0,0.0,0.0,0.0,0.0,0.0,0.0,0.0,0.0,0.0,0.0,0.0,0.0,0.0,0.0,0.0,0.0,0.0,0.0,0.0,0.0,0.0,0.0,0.0,0.0,0.0,0.0,0.0,0.0,0.0,0.0,0.0,0.0,0.0,0.0,0.0,0.0,0.0,0.0,0.0,0.0,0.0,0.0,0.0,0.0,0.0,0.0,0.0,0.0,0.0,0.0,0.0,0.0,0.0,0.0,0.0,0.0,0.0,0.0,0.0,0.0,0.0,0.0,0.0,0.0,0.0,0.0,0.0,0.0,0.0,0.0,0.0,0.0,0.0,0.0,0.0,0.0,0.0,0.0,0.0,0.0,0.0,0.0,0.0,0.0,0.0,0.0,0.0,0.0,0.0,0.0,0.0,0.0,0.0,0.0,0.0,0.0,0.0,0.0,0.0,0.0,0.0,0.0,0.0,0.0,0.0,0.0,0.0,0.0,0.0,0.0,0.0,0.0,0.0,0.0,0.0,0.0,0.0,0.0,0.0,0.0,0.0,0.0,0.0,0.0,0.0,0.0,0.0,0.0,0.0,0.0,0.0,0.0,0.0,0.0,0.0,0.0,0.0,0.0,0.0,0.0,0.0,0.0,0.0,0.0,0.0,0.0,0.0,0.0,0.0,0.0,0.0,0.0,0.0,0.0,0.0,0.0,0.0,0.0,0.0,0.0,0.0,0.0,0.0,0.0,0.0,0.0,0.0,0.0,0.0,0.0,0.0,0.0,0.0,0.0,0.0,0.0,0.0,0.0,0.0,0.0,0.0,0.0,0.0,0.0,0.0,0.0,0.0,0.0,0.0,0.0,0.0,0.0,0.0,0.0,0.0,0.0,0.0,0.0,0.0,0.0,0.0,0.0,0.0,0.0,0.0,0.0,0.0,0.0,0.0,0.0,0.0,0.0,0.0,0.0,0.0,0.0,0.0,0.0,0.0,0.0,0.0,0.0,0.0,0.0,0.0,0.0,0.0,0.0,0.0,0.0,0.0,0.0,0.0,0.0,0.0,0.0,0.0,0.0,0.0,0.0,0.0,0.0,0.0,0.0,0.0,0.0,0.0,0.0,0.0,0.0,0.0,0.0,0.0,0.0,0.0,0.0,0.0,0.0,0.0,0.0,0.0,0.0,0.0,0.0,0.0,0.0,0.0,0.0,0.0,0.0,0.0,0.0,0.0,0.0,0.0,0.0,0.0,0.0,0.0,0.0,0.0,0.0,0.0,0.0,0.0,0.0,0.0,0.0,0.0,0.0,0.0,0.0,0.0,0.0,0.0,0.0,0.0,0.0,0.0,0.0,0.0,0.0,0.0,0.0,0.0,0.0,0.0,0.0,0.0,0.0,0.0,0.0,0.0,0.0,0.0,0.0,0.0,0.0,0.0,0.0,0.0,0.0,0.0,0.0,0.0,0.0,0.0,0.0,0.0,0.0,0.0,0.0,0.0,0.0,0.0,0.0,0.0,0.0,0.0,0.0,0.0,0.0,0.0,0.0,0.0,0.0,0.0,0.0,0.0,0.0,0.0,0.0,0.0,0.0,0.0,0.0,0.0,0.0,0.0,0.0,0.0,0.0,0.0,0.0,0.0,0.0,0.0,0.0,0.0,0.0,0.0,0.0,0.0,0.0,0.0,0.0,0.0,0.0,0.0,0.0,0.0,0.0,0.0,0.0,0.0,0.0,0.0,0.0,0.0,0.0,0.0,0.0,0.0,0.0,0.0,0.0,0.0,0.0,0.0,0.0,0.0,0.0,0.0,0.0,0.0,0.0,0.0,0.0,0.0,0.0,0.0,0.0,0.0,0.0,0.0,0.0,0.0,0.0,0.0,0.0,0.0,0.0,0.0,0.0,0.0,0.0,0.0,0.0,0.0,0.0,0.0,0.0,0.0,0.0,0.0,0.0,0.0,0.0,0.0,0.0,0.0,0.0,0.0,0.0,0.0,0.0,0.0,0.0,0.0,0.0,0.0,0.0,0.0,0.0,0.0,0.0,0.0,0.0,0.0,0.0,0.0,0.0,0.0,0.0,0.0,0.0,0.0,0.0,0.0,0.0,0.0,0.0,0.0,0.0,0.0,0.0,0.0,0.0,0.0,0.0,0.0,0.0,0.0,0.0,0.0,0.0,0.0,0.0,0.0,0.0,0.0,0.0,0.0,0.0,0.0,0.0,0.0,0.0,0.0,0.0,0.0,0.0,0.0,0.0,0.0,0.0,0.0,0.0,0.0,0.0,0.0,0.0,0.0,0.0,0.0,0.0,0.0,0.0,0.0,0.0,0.0,0.0,0.0,0.0,0.0,0.0,0.0,0.0,0.0,0.0,0.0,0.0,0.0,0.0,0.0,0.0,0.0,0.0,0.0,0.0,0.0,0.0,0.0,0.0,0.0,0.0,0.0,0.0,0.0,0.0,0.0,0.0,0.0,0.0,0.0,0.0,0.0,0.0,0.0,0.0,0.0,0.0,0.0,0.0,0.0,0.0,0.0,0.0,0.0,0.0,0.0,0.0,0.0,0.0,0.0,0.0,0.0,0.0,0.0,0.0,0.0,0.0,-0.3409,0.0,0.0,0.0,0.0,0.0,0.0,0.0,0.0,0.0,0.0,0.0,0.0,0.0,0.0,0.0,0.0,0.0,0.0,0.0,0.0,0.0,0.0,0.0,0.0,0.0,0.0,0.0,0.0,0.0,0.0,0.0,0.0,0.0,0.0,0.0,0.0,0.0,0.0,0.0,0.0,0.0,0.0,0.0,0.0,0.0,0.0,0.0,0.0,0.0,0.0,0.0,0.0,0.0,0.0,0.0,0.0,0.0,0.0,0.0,0.0,0.0,0.0,0.0,0.0,0.0,0.0,0.0,0.0,0.0,0.0,0.0,0.0,0.0,0.0,0.0,0.0,0.0,0.0,0.0,0.0,0.0,0.0,0.0,0.0,0.0,0.0,0.0,0.0,0.0,0.0,0.0,0.0,0.0,0.0,0.0,0.0,0.0,0.0,0.0,0.0,0.0,0.0,0.0,0.0,0.0,0.0,0.0,0.0,0.0,0.0,-0.3465,-0.3698,-0.3755,-0.3823,-0.3843,0.0,0.0,0.0,0.0,0.0,0.0,0.0,0.0,0.0,0.0,0.0,0.0,0.0,0.0,0.0,0.0,0.0,0.0,0.0,0.0,0.0,0.0,0.0,0.0,0.0,0.0,0.0,0.0,0.0,0.0,0.0,0.0,0.0,0.0,0.0,0.0,0.0,0.0,0.0,0.0,0.0,0.0,0.0,0.0,0.0,0.0,0.0,0.0,0.0,0.0,0.0,0.0,0.0,0.0,0.0,0.0,0.0,0.0,0.0,0.0,0.0,0.0,0.0,0.0,0.0,0.0,0.0,0.0,0.0,0.0,0.0,0.0,0.0,0.0,0.0,0.0,0.0,0.0,0.0,0.0,0.0,0.0,0.0,0.0,0.0,0.0,0.0,0.0,0.0,0.0,0.0,0.0,0.0,0.0,0.0,0.0,0.0,0.0,0.0,0.0,0.0,0.0,0.0,0.0,0.0,0.0,0.0,0.0,0.0,0.0,0.0,0.0,-0.4258,-0.4227,-0.4151,0.0,0.0,0.0,0.0,0.0,0.0,0.0,0.0,0.0,0.0,0.0,0.0,0.0,0.0,0.0,0.0,0.0,0.0,0.0,0.0,0.0,0.0,0.0,0.0,0.0,0.0,0.0,0.0,0.0,0.0,0.0,0.0,0.0,0.0,0.0,0.0,0.0,0.0,0.0,0.0,0.0,0.0,0.0,0.0,0.0,0.0,0.0,0.0,0.0,0.0,0.0,0.0,0.0,0.0,0.0,0.0,0.0,0.0,0.0,0.0,0.0,0.0,0.0,0.0,0.0,0.0,0.0,0.0,0.0,0.0,0.0,0.0,0.0,0.0,0.0,0.0,0.0,0.0,0.0,0.0,0.0,0.0,0.0,0.0,0.0,0.0,0.0,0.0,0.0,0.0,0.0,0.0,0.0,0.0,0.0,0.0,0.0,0.0,0.0,0.0,0.0,0.0,0.0,0.0,0.0,0.0,0.0,0.0,0.0,0.0,-0.4111,-0.4108,-0.4115,0.0,-0.405,0.0,0.0,0.0,0.0,0.0,0.0,0.0,0.0,0.0,0.0,0.0,0.0,0.0,0.0,0.0,0.0,0.0,0.0,0.0,0.0,0.0,0.0,0.0,0.0,0.0,0.0,0.0,0.0,0.0,0.0,0.0,0.0,0.0,0.0,0.0,0.0,0.0,0.0,0.0,0.0,0.0,0.0,0.0,0.0,0.0,0.0,0.0,0.0,0.0,0.0,0.0,0.0,0.0,0.0,0.0,0.0,0.0,0.0,0.0,0.0,0.0,0.0,0.0,0.0,0.0,0.0,0.0,0.0,0.0,0.0,0.0,0.0,0.0,0.0,0.0,0.0,0.0,0.0,0.0,0.0,0.0,0.0,0.0,0.0,0.0,0.0,0.0,0.0,0.0,0.0,0.0,0.0,0.0,0.0,0.0,0.0,0.0,0.0,0.0,0.0,0.0,0.0,0.0,0.0,0.0,0.0,0.0,0.0,0.0,0.0,-0.5128,-0.5351,-0.5164,-0.4933,0.0,0.0,0.0,0.0,0.0,0.0,0.0,0.0,0.0,0.0,0.0,0.0,0.0,0.0,0.0,0.0,0.0,0.0,0.0,0.0,0.0,0.0,0.0,0.0,0.0,0.0,0.0,0.0,0.0,0.0,0.0,0.0,0.0,0.0,0.0,0.0,0.0,0.0,0.0,0.0,0.0,0.0,0.0,0.0,0.0,0.0,0.0,0.0,0.0,0.0,0.0,0.0,0.0,0.0,0.0,0.0,0.0,0.0,0.0,0.0,0.0,0.0,0.0,0.0,0.0,0.0,0.0,0.0,0.0,0.0,0.0,0.0,0.0,0.0,0.0,0.0,0.0,0.0,0.0,0.0,0.0,0.0,0.0,0.0,0.0,0.0,0.0,0.0,0.0,0.0,0.0,0.0,0.0,0.0,0.0,0.0,0.0,0.0,0.0,0.0,0.0,0.0,0.0,0.0,0.0,0.0,0.0,0.0,0.0,0.0,-0.5589,-0.5982,-0.6176,-0.5958,-0.562,-0.5214,0.0,0.0,0.0,0.0,0.0,0.0,0.0,0.0,0.0,0.0,0.0,0.0,0.0,0.0,0.0,0.0,0.0,0.0,0.0,0.0,0.0,0.0,0.0,0.0,0.0,0.0,0.0,0.0,0.0,0.0,0.0,0.0,0.0,0.0,0.0,0.0,0.0,0.0,0.0,0.0,0.0,0.0,0.0,0.0,0.0,0.0,0.0,0.0,0.0,0.0,0.0,0.0,0.0,0.0,0.0,0.0,0.0,0.0,0.0,0.0,0.0,0.0,0.0,0.0,0.0,0.0,0.0,0.0,0.0,0.0,0.0,0.0,0.0,0.0,0.0,0.0,0.0,0.0,0.0,0.0,0.0,0.0,0.0,0.0,0.0,0.0,0.0,0.0,0.0,0.0,0.0,0.0,0.0,0.0,0.0,0.0,0.0,0.0,0.0,0.0,0.0,0.0,0.0,0.0,0.0,0.0,0.0,0.0,-0.5133,-0.5945,-0.6301,-0.6128,-0.6078,-0.5848,0.0,0.0,0.0,0.0,0.0,0.0,0.0,0.0,0.0,0.0,0.0,0.0,0.0,0.0,0.0,0.0,0.0,0.0,0.0,0.0,0.0,0.0,0.0,0.0,0.0,0.0,0.0,0.0,0.0,0.0,0.0,0.0,0.0,0.0,0.0,0.0,0.0,0.0,0.0,0.0,0.0,0.0,0.0,0.0,0.0,0.0,0.0,0.0,0.0,0.0,0.0,0.0,0.0,0.0,0.0,0.0,0.0,0.0,0.0,0.0,0.0,0.0,0.0,0.0,0.0,0.0,0.0,0.0,0.0,0.0,0.0,0.0,0.0,0.0,0.0,0.0,0.0,0.0,0.0,0.0,0.0,0.0,0.0,0.0,0.0,0.0,0.0,0.0,0.0,0.0,0.0,0.0,0.0,0.0,0.0,0.0,0.0,0.0,0.0,0.0,0.0,0.0,0.0,0.0,0.0,0.0,0.0,0.0,0.0,-0.5811,-0.6876,-0.7456,-0.7429,-0.7035,-0.6559,0.0,0.0,0.0,0.0,0.0,0.0,0.0,0.0,0.0,0.0,0.0,0.0,0.0,0.0,0.0,0.0,0.0,0.0,0.0,0.0,0.0,0.0,0.0,0.0,0.0,0.0,0.0,0.0,0.0,0.0,0.0,0.0,0.0,0.0,0.0,0.0,0.0,0.0,0.0,0.0,0.0,0.0,0.0,0.0,0.0,0.0,0.0,0.0,0.0,0.0,0.0,0.0,0.0,0.0,0.0,0.0,0.0,0.0,0.0,0.0,0.0,0.0,0.0,0.0,0.0,0.0,0.0,0.0,0.0,0.0,0.0,0.0,0.0,0.0,0.0,0.0,0.0,0.0,0.0,0.0,0.0,0.0,0.0,0.0,0.0,0.0,0.0,0.0,0.0,0.0,0.0,0.0,0.0,0.0,0.0,0.0,0.0,0.0,0.0,0.0,0.0,0.0,0.0,0.0,0.0,0.0,0.0,0.0,0.0,-0.6904,0.0,-0.8343,-0.8431,-0.7922,-0.7354,0.0,0.0,0.0,0.0,0.0,0.0,0.0,0.0,0.0,0.0,0.0,0.0,0.0,0.0,0.0,0.0,0.0,0.0,0.0,0.0,0.0,0.0,0.0,0.0,0.0,0.0,0.0,0.0,0.0,0.0,0.0,0.0,0.0,0.0,0.0,0.0,0.0,0.0,0.0,0.0,0.0,0.0,0.0,0.0,0.0,0.0,0.0,0.0,0.0,0.0,0.0,0.0,0.0,0.0,0.0,0.0,0.0,0.0,0.0,0.0,0.0,0.0,0.0,0.0,0.0,0.0,0.0,0.0,0.0,0.0,0.0,0.0,0.0,0.0,0.0,0.0,0.0,0.0,0.0,0.0,0.0,0.0,0.0,0.0,0.0,0.0,0.0,0.0,0.0,0.0,0.0,0.0,0.0,0.0,0.0,0.0,0.0,0.0,0.0,0.0,0.0,0.0,0.0,0.0,0.0,0.0,0.0,0.0,-0.7043,-0.8452,-0.8809,-0.8975,-0.911,-0.8783,-0.8282,0.0,0.0,0.0,0.0,0.0,0.0,0.0,0.0,0.0,0.0,0.0,0.0,0.0,0.0,0.0,0.0,0.0,0.0,0.0,0.0,0.0,0.0,0.0,0.0,0.0,0.0,0.0,0.0,0.0,0.0,0.0,0.0,0.0,0.0,0.0,0.0,0.0,0.0,0.0,0.0,0.0,0.0,0.0,0.0,0.0,0.0,0.0,0.0,0.0,0.0,0.0,0.0,0.0,0.0,0.0,0.0,0.0,0.0,0.0,0.0,0.0,0.0,0.0,0.0,0.0,0.0,0.0,0.0,0.0,0.0,0.0,0.0,0.0,0.0,0.0,0.0,0.0,0.0,0.0,0.0,0.0,0.0,0.0,0.0,0.0,0.0,0.0,0.0,0.0,0.0,0.0,0.0,0.0,0.0,0.0,0.0,0.0,0.0,0.0,0.0,0.0,0.0,0.0,0.0,0.0,0.0,0.0,0.0,0.0,-0.9712,-1.0179,-1.0341,-1.0089,-0.9618,-0.892,0.0,0.0,0.0,0.0,0.0,0.0,0.0,0.0,0.0,0.0,0.0,0.0,0.0,0.0,0.0,0.0,0.0,0.0,0.0,0.0,0.0,0.0,0.0,0.0,0.0,0.0,0.0,0.0,0.0,0.0,0.0,0.0,0.0,0.0,0.0,0.0,0.0,0.0,0.0,0.0,0.0,0.0,0.0,0.0,0.0,0.0,0.0,0.0,0.0,0.0,0.0,0.0,0.0,0.0,0.0,0.0,0.0,0.0,0.0,0.0,0.0,0.0,0.0,0.0,0.0,0.0,0.0,0.0,0.0,0.0,0.0,0.0,0.0,0.0,0.0,0.0,0.0,0.0,0.0,0.0,0.0,0.0,0.0,0.0,0.0,0.0,0.0,0.0,0.0,0.0,0.0,0.0,0.0,0.0,0.0,0.0,0.0,0.0,0.0,0.0,0.0,0.0,0.0,0.0,0.0,0.0,0.0,0.0,0.0,-1.1501,-1.1636,-1.1547,-1.1243,-1.0676,-0.9862,-0.8684,0.0,0.0,0.0,0.0,0.0,0.0,0.0,0.0,0.0,0.0,0.0,0.0,0.0,0.0,0.0,0.0,0.0,0.0,0.0,0.0,0.0,0.0,0.0,0.0,0.0,0.0,0.0,0.0,0.0,0.0,0.0,0.0,0.0,0.0,0.0,0.0,0.0,0.0,0.0,0.0,0.0,0.0,0.0,0.0,0.0,0.0,0.0,0.0,0.0,0.0,0.0,0.0,0.0,0.0,0.0,0.0,0.0,0.0,0.0,0.0,0.0,0.0,0.0,0.0,0.0,0.0,0.0,0.0,0.0,0.0,0.0,0.0,0.0,0.0,0.0,0.0,0.0,0.0,0.0,0.0,0.0,0.0,0.0,0.0,0.0,0.0,0.0,0.0,0.0,0.0,0.0,0.0,0.0,0.0,0.0,0.0,0.0,0.0,0.0,0.0,0.0,0.0,0.0,0.0,0.0,0.0,0.0,0.0,-1.3559,-1.3037,-1.2698,-1.2582,-1.2018,-1.1101,0.0,0.0,0.0,0.0,0.0,0.0,0.0,0.0,0.0,0.0,0.0,0.0,0.0,0.0,0.0,0.0,0.0,0.0,0.0,0.0,0.0,0.0,0.0,0.0,0.0,0.0,0.0,0.0,0.0,0.0,0.0,0.0,0.0,0.0,0.0,0.0,0.0,0.0,0.0,0.0,0.0,0.0,0.0,0.0,0.0,0.0,0.0,0.0,0.0,0.0,0.0,0.0,0.0,0.0,0.0,0.0,0.0,0.0,0.0,0.0,0.0,0.0,0.0,0.0,0.0,0.0,0.0,0.0,0.0,0.0,0.0,0.0,0.0,0.0,0.0,0.0,0.0,0.0,0.0,0.0,0.0,0.0,0.0,0.0,0.0,0.0,0.0,0.0,0.0,0.0,0.0,0.0,0.0,0.0,0.0,0.0,0.0,0.0,0.0,0.0,0.0,0.0,0.0,0.0,0.0,0.0,0.0,0.0,0.0,-1.3935,-1.4635,-1.4507,-1.3678,-1.3081,-1.1886,0.0,0.0,0.0,0.0,0.0,0.0,0.0,0.0,0.0,0.0,0.0,0.0,0.0,0.0,0.0,0.0,0.0,0.0,0.0,0.0,0.0,0.0,0.0,0.0,0.0,0.0,0.0,0.0,0.0,0.0,0.0,0.0,0.0,0.0,0.0,0.0,0.0,0.0,0.0,0.0,0.0,0.0,0.0,0.0,0.0,0.0,0.0,0.0,0.0,0.0,0.0,0.0,0.0,0.0,0.0,0.0,0.0,0.0,0.0,0.0,0.0,0.0,0.0,0.0,0.0,0.0,0.0,0.0,0.0,0.0,0.0,0.0,0.0,0.0,0.0,0.0,0.0,0.0,0.0,0.0,0.0,0.0,0.0,0.0,0.0,0.0,0.0,0.0,0.0,0.0,0.0,0.0,0.0,0.0,0.0,0.0,0.0,0.0,0.0,0.0,0.0,0.0,0.0,0.0,0.0,0.0,0.0,0.0,-1.3133,-1.479,-1.5725,-1.5777,-1.5021,-1.3979,-1.2555,0.0,0.0,0.0,0.0,0.0,0.0,0.0,0.0,0.0,0.0,0.0,0.0,0.0,0.0,0.0,0.0,0.0,0.0,0.0,0.0,0.0,0.0,0.0,0.0,0.0,0.0,0.0,0.0,0.0,0.0,0.0,0.0,0.0,0.0,0.0,0.0,0.0,0.0,0.0,0.0,0.0,0.0,0.0,0.0,0.0,0.0,0.0,0.0,0.0,0.0,0.0,0.0,0.0,0.0,0.0,0.0,0.0,0.0,0.0,0.0,0.0,0.0,0.0,0.0,0.0,0.0,0.0,0.0,0.0,0.0,0.0,0.0,0.0,0.0,0.0,0.0,0.0,0.0,0.0,0.0,0.0,0.0,0.0,0.0,0.0,0.0,0.0,0.0,0.0,0.0,0.0,0.0,0.0,0.0,0.0,0.0,0.0,0.0,0.0,0.0,0.0,0.0,0.0,0.0,0.0,0.0,0.0,0.0,-1.3809,-1.5832,-1.6473,-1.6706,-1.6364,-1.4774,-1.3231,0.0,0.0,0.0,0.0,0.0,0.0,0.0,0.0,0.0,0.0,0.0,0.0,0.0,0.0,0.0,0.0,0.0,0.0,0.0,0.0,0.0,0.0,0.0,0.0,0.0,0.0,0.0,0.0,0.0,0.0,0.0,0.0,0.0,0.0,0.0,0.0,0.0,0.0,0.0,0.0,0.0,0.0,0.0,0.0,0.0,0.0,0.0,0.0,0.0,0.0,0.0,0.0,0.0,0.0,0.0,0.0,0.0,0.0,0.0,0.0,0.0,0.0,0.0,0.0,0.0,0.0,0.0,0.0,0.0,0.0,0.0,0.0,0.0,0.0,0.0,0.0,0.0,0.0,0.0,0.0,0.0,0.0,0.0,0.0,0.0,0.0,0.0,0.0,0.0,0.0,0.0,0.0,0.0,0.0,0.0,0.0,0.0,0.0,0.0,0.0,0.0,0.0,0.0,0.0,0.0,0.0,0.0,0.0,-1.4691,-1.6152,-1.6981,-1.7186,-1.6663,-1.5434,-1.3905,0.0,0.0,0.0,0.0,0.0,0.0,0.0,0.0,0.0,0.0,0.0,0.0,0.0,0.0,0.0,0.0,0.0,0.0,0.0,0.0,0.0,0.0,0.0,0.0,0.0,0.0,0.0,0.0,0.0,0.0,0.0,0.0,0.0,0.0,0.0,0.0,0.0,0.0,0.0,0.0,0.0,0.0,0.0,0.0,0.0,0.0,0.0,0.0,-1.3641,0.0,0.0,0.0,0.0,0.0,0.0,0.0,0.0,0.0,0.0,0.0,0.0,0.0,0.0,0.0,0.0,0.0,0.0,0.0,0.0,0.0,0.0,0.0,0.0,0.0,0.0,0.0,0.0,0.0,0.0,0.0,0.0,0.0,0.0,0.0,0.0,0.0,0.0,0.0,0.0,0.0,0.0,0.0,0.0,0.0,0.0,0.0,0.0,0.0,0.0,0.0,0.0,0.0,0.0,0.0,0.0,0.0,0.0,0.0,-1.5325,-1.666,-1.7408,-1.7516,-1.6922,-1.6025,-1.4501,0.0,0.0,0.0,0.0,0.0,0.0,0.0,0.0,0.0,0.0,0.0,0.0,0.0,0.0,0.0,0.0,0.0,0.0,0.0,0.0,0.0,0.0,0.0,0.0,0.0,0.0,0.0,0.0,0.0,0.0,0.0,0.0,0.0,0.0,0.0,0.0,0.0,0.0,0.0,0.0,0.0,0.0,0.0,0.0,0.0,0.0,0.0,0.0,0.0,0.0,0.0,0.0,0.0,0.0,0.0,0.0,0.0,0.0,0.0,0.0,0.0,0.0,0.0,0.0,0.0,0.0,0.0,0.0,0.0,0.0,0.0,0.0,0.0,0.0,0.0,0.0,0.0,0.0,0.0,0.0,0.0,0.0,0.0,0.0,0.0,0.0,0.0,0.0,0.0,0.0,0.0,0.0,0.0,0.0,0.0,0.0,0.0,0.0,0.0,0.0,0.0,0.0,0.0,0.0,0.0,0.0,0.0,-1.4661,-1.5976,-1.7181,-1.7809,-1.7822,-1.7108,-1.626,-1.4952,-1.3137,0.0,0.0,0.0,0.0,0.0,0.0,0.0,0.0,0.0,0.0,0.0,0.0,0.0,0.0,0.0,0.0,0.0,0.0,0.0,0.0,0.0,0.0,0.0,0.0,0.0,0.0,0.0,0.0,0.0,0.0,0.0,0.0,0.0,0.0,0.0,0.0,0.0,0.0,-1.285,-1.3893,0.0,0.0,0.0,0.0,0.0,0.0,0.0,0.0,-1.63,0.0,0.0,0.0,0.0,0.0,0.0,0.0,0.0,0.0,0.0,0.0,0.0,0.0,0.0,0.0,0.0,0.0,0.0,0.0,0.0,0.0,0.0,0.0,0.0,0.0,0.0,0.0,0.0,0.0,0.0,0.0,0.0,0.0,0.0,0.0,0.0,0.0,0.0,0.0,0.0,0.0,0.0,0.0,0.0,0.0,0.0,0.0,0.0,0.0,0.0,0.0,0.0,0.0,0.0,0.0,0.0,-1.3709,-1.544,-1.6779,-1.7488,-1.8103,-1.7928,-1.6834,-1.5973,-1.4839,-1.3252,0.0,0.0,0.0,0.0,0.0,0.0,0.0,0.0,0.0,0.0,0.0,0.0,0.0,0.0,0.0,0.0,0.0,0.0,0.0,0.0,0.0,0.0,0.0,0.0,0.0,0.0,0.0,0.0,0.0,0.0,0.0,0.0,0.0,0.0,0.0,0.0,0.0,0.0,0.0,-1.6417,-1.7015,0.0,0.0,0.0,0.0,0.0,0.0,0.0,0.0,-1.707,0.0,0.0,0.0,0.0,0.0,0.0,0.0,0.0,0.0,0.0,0.0,0.0,0.0,0.0,0.0,0.0,0.0,0.0,0.0,0.0,0.0,0.0,0.0,0.0,0.0,0.0,0.0,0.0,0.0,0.0,0.0,0.0,0.0,0.0,0.0,0.0,0.0,0.0,0.0,0.0,0.0,0.0,0.0,0.0,0.0,0.0,0.0,0.0,0.0,0.0,0.0,0.0,0.0,0.0,0.0,-1.3999,-1.5784,-1.7064,-1.7549,-1.8306,-1.8171,-1.7181,-1.6286,-1.5161,0.0,0.0,0.0,0.0,0.0,0.0,0.0,0.0,0.0,0.0,0.0,0.0,0.0,0.0,0.0,0.0,0.0,0.0,0.0,0.0,0.0,0.0,0.0,0.0,0.0,0.0,0.0,0.0,0.0,0.0,0.0,0.0,0.0,0.0,0.0,0.0,0.0,0.0,0.0,0.0,-1.7626,-1.8358,-1.8967,0.0,0.0,0.0,0.0,0.0,0.0,-1.9075,-1.8928,0.0,0.0,0.0,0.0,0.0,0.0,0.0,0.0,0.0,0.0,0.0,0.0,0.0,0.0,0.0,0.0,0.0,0.0,0.0,0.0,0.0,0.0,0.0,0.0,0.0,0.0,0.0,0.0,0.0,0.0,0.0,0.0,0.0,0.0,0.0,0.0,0.0,0.0,0.0,0.0,0.0,0.0,0.0,0.0,0.0,0.0,0.0,0.0,0.0,0.0,0.0,0.0,0.0,0.0,0.0,-1.4414,-1.6315,-1.748,-1.7946,-1.8744,-1.8638,-1.7789,-1.6759,-1.5483,0.0,0.0,0.0,0.0,0.0,0.0,0.0,0.0,0.0,0.0,0.0,0.0,0.0,0.0,0.0,0.0,0.0,0.0,0.0,0.0,0.0,0.0,0.0,0.0,0.0,0.0,0.0,0.0,0.0,0.0,0.0,0.0,0.0,0.0,0.0,0.0,0.0,0.0,0.0,0.0,0.0,-1.9337,-2.0653,-2.0212,0.0,0.0,0.0,0.0,-2.0924,-2.1139,0.0,0.0,0.0,0.0,0.0,0.0,0.0,0.0,0.0,0.0,0.0,0.0,0.0,0.0,0.0,0.0,0.0,0.0,0.0,0.0,0.0,0.0,0.0,0.0,0.0,0.0,0.0,0.0,0.0,0.0,0.0,0.0,0.0,0.0,0.0,0.0,0.0,0.0,0.0,0.0,0.0,0.0,0.0,0.0,0.0,0.0,0.0,0.0,0.0,0.0,0.0,0.0,0.0,0.0,0.0,0.0,-1.5219,-1.7428,-1.885,-1.9235,-1.9641,-1.9535,-1.8928,-1.7296,-1.5809,0.0,0.0,0.0,0.0,0.0,0.0,0.0,0.0,0.0,0.0,0.0,0.0,0.0,0.0,0.0,0.0,0.0,0.0,0.0,0.0,0.0,0.0,0.0,0.0,0.0,0.0,0.0,0.0,0.0,0.0,0.0,0.0,0.0,0.0,0.0,0.0,0.0,0.0,0.0,0.0,0.0,-2.018,-2.1069,-2.1292,-2.1411,0.0,0.0,-2.1942,-2.203,-2.2628,0.0,0.0,0.0,0.0,0.0,0.0,0.0,0.0,0.0,0.0,0.0,0.0,0.0,0.0,0.0,0.0,0.0,0.0,0.0,0.0,0.0,0.0,0.0,0.0,0.0,0.0,0.0,0.0,0.0,0.0,0.0,0.0,0.0,0.0,0.0,0.0,0.0,0.0,0.0,0.0,0.0,0.0,0.0,0.0,0.0,0.0,0.0,0.0,0.0,0.0,0.0,0.0,0.0,0.0,0.0,-1.365,-1.5648,-1.7637,-1.8968,-1.9555,-2.009,-1.985,-1.9067,-1.7746,-1.63,0.0,0.0,0.0,0.0,0.0,0.0,0.0,0.0,0.0,0.0,0.0,0.0,0.0,0.0,0.0,0.0,0.0,0.0,0.0,0.0,0.0,0.0,0.0,0.0,0.0,0.0,0.0,0.0,0.0,0.0,0.0,0.0,0.0,0.0,0.0,0.0,0.0,0.0,0.0,0.0,0.0,0.0,-2.2346,-2.2729,0.0,0.0,0.0,-2.4133,-2.4194,0.0,0.0,0.0,0.0,0.0,0.0,0.0,0.0,0.0,0.0,0.0,0.0,0.0,0.0,0.0,0.0,0.0,0.0,0.0,0.0,0.0,0.0,0.0,0.0,0.0,0.0,0.0,0.0,0.0,0.0,0.0,0.0,0.0,0.0,0.0,0.0,0.0,0.0,0.0,0.0,0.0,0.0,0.0,0.0,0.0,0.0,0.0,0.0,0.0,0.0,0.0,0.0,0.0,0.0,0.0,0.0,0.0,-1.6348,-1.8155,-1.9339,-2.0152,-2.0699,-2.0645,-1.9637,-1.8546,0.0,0.0,0.0,0.0,0.0,0.0,0.0,0.0,0.0,0.0,0.0,0.0,0.0,0.0,0.0,0.0,0.0,0.0,0.0,0.0,0.0,0.0,0.0,0.0,0.0,0.0,0.0,-0.9493,0.0,0.0,0.0,0.0,0.0,0.0,0.0,0.0,0.0,0.0,0.0,0.0,0.0,0.0,-2.1744,-2.3645,-2.4123,-2.4593,0.0,0.0,-2.5871,-2.5785,-2.5546,-2.5031,0.0,0.0,0.0,0.0,0.0,0.0,0.0,0.0,0.0,0.0,0.0,0.0,0.0,0.0,0.0,0.0,0.0,0.0,0.0,0.0,0.0,0.0,0.0,0.0,0.0,0.0,0.0,0.0,0.0,0.0,0.0,0.0,0.0,0.0,0.0,0.0,0.0,0.0,0.0,0.0,0.0,0.0,0.0,0.0,0.0,0.0,0.0,0.0,0.0,0.0,0.0,0.0,0.0,0.0,0.0,-1.734,-1.9209,-2.0586,-2.1713,-2.2005,-2.1898,-2.1427,-2.0007,-1.833,0.0,0.0,0.0,0.0,0.0,0.0,0.0,0.0,0.0,0.0,0.0,0.0,0.0,0.0,0.0,0.0,0.0,0.0,0.0,0.0,0.0,0.0,0.0,0.0,0.0,0.0,0.0,0.0,0.0,0.0,0.0,0.0,0.0,0.0,0.0,0.0,0.0,0.0,0.0,0.0,0.0,-2.2673,-2.4721,-2.5224,-2.5652,0.0,0.0,-2.6684,-2.6031,-2.6565,-2.6259,-2.3946,0.0,0.0,0.0,0.0,0.0,0.0,0.0,0.0,0.0,0.0,0.0,0.0,0.0,0.0,0.0,0.0,0.0,0.0,0.0,0.0,0.0,0.0,0.0,0.0,0.0,0.0,0.0,0.0,0.0,0.0,0.0,0.0,0.0,0.0,0.0,0.0,0.0,0.0,0.0,0.0,0.0,0.0,0.0,0.0,0.0,0.0,0.0,0.0,0.0,0.0,0.0,0.0,0.0,-1.5526,-1.8212,-1.9696,-2.0996,-2.2165,-2.2311,-2.1994,-2.1409,-2.0304,-1.8751,0.0,0.0,0.0,0.0,0.0,0.0,0.0,0.0,0.0,0.0,0.0,0.0,0.0,0.0,0.0,0.0,0.0,0.0,0.0,0.0,0.0,0.0,0.0,0.0,0.0,0.0,0.0,0.0,-1.206,-1.2508,-1.3056,0.0,0.0,0.0,0.0,0.0,0.0,0.0,0.0,0.0,0.0,-2.36,-2.5047,-2.5848,0.0,0.0,-2.771,-2.7857,-2.7595,-2.7597,-2.7114,-2.5726,-2.4883,0.0,0.0,0.0,0.0,0.0,0.0,0.0,0.0,0.0,0.0,0.0,0.0,0.0,0.0,0.0,0.0,0.0,0.0,0.0,0.0,0.0,0.0,0.0,0.0,0.0,0.0,0.0,0.0,0.0,0.0,0.0,0.0,0.0,0.0,0.0,0.0,0.0,0.0,0.0,0.0,0.0,0.0,0.0,0.0,0.0,0.0,0.0,0.0,0.0,0.0,0.0,0.0,-1.6033,-1.8654,-2.0001,-2.1256,-2.2511,-2.2618,-2.2217,-2.146,-2.0671,-1.9373,0.0,0.0,0.0,0.0,0.0,0.0,0.0,0.0,0.0,0.0,0.0,0.0,0.0,0.0,0.0,0.0,0.0,0.0,0.0,0.0,0.0,0.0,0.0,0.0,0.0,0.0,0.0,0.0,-1.3059,-1.3179,-1.3856,0.0,0.0,0.0,0.0,0.0,0.0,0.0,0.0,0.0,0.0,-2.4717,-2.6004,-2.6814,-2.7491,-2.8125,-2.8429,-2.8528,-2.8341,-2.8061,-2.7556,-2.6647,0.0,0.0,0.0,0.0,0.0,0.0,0.0,0.0,0.0,0.0,0.0,0.0,0.0,0.0,0.0,0.0,0.0,0.0,0.0,0.0,0.0,0.0,0.0,0.0,0.0,0.0,0.0,0.0,0.0,0.0,-1.4779,0.0,0.0,0.0,0.0,0.0,0.0,0.0,0.0,0.0,0.0,0.0,0.0,0.0,0.0,0.0,0.0,0.0,0.0,0.0,0.0,0.0,0.0,-1.6338,-1.8654,-2.0177,-2.1524,-2.2755,-2.2969,-2.2754,-2.1934,-2.1445,-2.0391,-1.8633,0.0,0.0,0.0,0.0,0.0,0.0,0.0,0.0,0.0,0.0,0.0,0.0,0.0,0.0,0.0,0.0,0.0,0.0,0.0,0.0,0.0,0.0,0.0,0.0,0.0,0.0,-1.4367,-1.4112,-1.381,0.0,0.0,0.0,0.0,0.0,0.0,0.0,0.0,0.0,0.0,-2.4921,-2.6129,-2.7686,-2.8204,-2.8429,-2.8778,-2.8826,-2.8576,-2.7921,-2.7765,-2.7355,0.0,0.0,0.0,0.0,0.0,0.0,0.0,0.0,0.0,0.0,0.0,0.0,0.0,0.0,0.0,0.0,0.0,0.0,0.0,0.0,0.0,0.0,0.0,0.0,0.0,0.0,0.0,-1.981,-1.939,0.0,0.0,0.0,0.0,0.0,0.0,0.0,0.0,0.0,0.0,0.0,-2.2574,-2.2656,0.0,0.0,0.0,0.0,0.0,0.0,0.0,0.0,0.0,0.0,0.0,0.0,-1.7581,-1.9519,-2.1109,-2.2337,-2.3212,-2.3144,-2.2957,-2.2725,-2.1846,-2.0246,-1.7835,0.0,0.0,0.0,0.0,0.0,0.0,0.0,0.0,0.0,0.0,0.0,0.0,0.0,0.0,0.0,0.0,0.0,0.0,0.0,0.0,0.0,0.0,0.0,0.0,0.0,-1.4148,0.0,0.0,0.0,0.0,0.0,0.0,0.0,0.0,0.0,0.0,0.0,-2.2104,-2.3981,-2.5491,-2.6663,-2.7469,-2.8521,-2.9304,0.0,0.0,0.0,0.0,0.0,0.0,0.0,0.0,0.0,0.0,0.0,0.0,0.0,0.0,-2.412,-2.2203,-2.1399,-2.1161,-2.1873,0.0,0.0,0.0,0.0,0.0,0.0,0.0,0.0,0.0,0.0,0.0,0.0,0.0,0.0,-2.2969,0.0,-2.1415,0.0,0.0,0.0,0.0,0.0,0.0,0.0,0.0,-2.3887,-2.5124,-2.5846,-2.6011,-2.5619,0.0,-2.3774,-2.1426,0.0,0.0,0.0,0.0,0.0,0.0,0.0,0.0,-1.8652,-2.0352,-2.1934,-2.3036,-2.3536,-2.3536,-2.3347,-2.3133,-2.209,-2.0461,-1.8116,-1.6739,-1.5477,0.0,0.0,0.0,0.0,0.0,0.0,0.0,0.0,0.0,0.0,0.0,0.0,0.0,0.0,0.0,0.0,0.0,0.0,0.0,0.0,0.0,0.0,0.0,-1.5146,0.0,0.0,0.0,0.0,0.0,0.0,0.0,0.0,0.0,-2.0867,-2.2337,-2.399,-2.5616,-2.701,-2.802,-2.846,0.0,0.0,0.0,0.0,0.0,0.0,0.0,-3.0497,-2.9673,-2.9526,-2.9432,-2.9124,-2.9024,-2.8762,-2.8383,0.0,0.0,-2.4521,-2.3846,-2.368,-2.4112,-2.3925,-2.3898,-2.4336,-2.4577,-2.4983,0.0,0.0,0.0,0.0,0.0,0.0,0.0,0.0,-2.6975,-2.6711,0.0,-2.4767,0.0,0.0,0.0,0.0,0.0,-2.1975,0.0,0.0,-2.6961,-2.839,-2.879,-2.9307,-2.8876,-2.7615,-2.6526,-2.4897,-2.276,-1.886,0.0,0.0,0.0,0.0,0.0,0.0,-1.957,-2.125,-2.2559,-2.3398,-2.3769,-2.3949,-2.3731,-2.2924,-2.1989,-2.09,-1.9512,-1.8271,-1.6939,-1.5587,-1.4155,0.0,0.0,0.0,0.0,0.0,0.0,0.0,0.0,0.0,0.0,0.0,0.0,0.0,0.0,0.0,0.0,0.0,0.0,0.0,0.0,-1.6113,0.0,0.0,0.0,0.0,0.0,0.0,0.0,0.0,0.0,0.0,-2.3436,-2.4945,-2.6739,-2.8368,0.0,0.0,0.0,0.0,-3.0779,-3.0597,-3.0966,-3.1462,-3.1897,-3.1642,-3.1214,-3.0607,0.0,0.0,-3.0206,-2.9782,-2.9443,-2.8971,-2.9093,-2.8694,-2.7265,-2.6954,-2.6845,-2.6415,-2.6347,-2.636,-2.5993,-2.6079,-2.6417,-3.5959,0.0,0.0,0.0,0.0,-3.124,-3.1831,-3.1991,-3.2529,-3.2088,-3.1126,-2.9761,0.0,0.0,0.0,0.0,0.0,0.0,-2.7043,-2.9024,-3.0141,-3.1004,-3.1507,-3.1657,-3.119,-3.0057,-2.8757,-2.7337,-2.5859,-2.3083,-2.0703,-1.8652,0.0,0.0,0.0,0.0,-2.1348,-2.2168,-2.3418,-2.4146,-2.4326,-2.4148,-2.366,-2.2817,-2.2429,-2.1432,-1.9741,-1.8998,-1.7843,-1.6213,-1.5429,0.0,0.0,0.0,0.0,0.0,0.0,0.0,0.0,0.0,0.0,0.0,0.0,0.0,0.0,0.0,0.0,0.0,0.0,0.0,-1.7074,-1.8034,-1.8411,0.0,0.0,0.0,0.0,0.0,0.0,0.0,0.0,0.0,-2.7051,-2.7416,-2.8017,0.0,0.0,-3.0247,-3.069,-3.1381,-3.1918,-3.2024,-3.2551,0.0,-3.3265,-3.2137,-3.1195,-3.1005,-3.0847,-3.078,-3.0936,-3.0978,-3.1033,-3.1046,-3.0729,-3.0167,-2.9185,-2.8319,-2.798,-2.8252,-2.7757,-2.7377,-2.7801,-2.7713,-2.7638,-4.2597,-3.9042,-3.6354,-3.5028,-3.4969,-3.6061,-3.6665,-3.6828,-3.7053,-3.6494,-3.5341,-3.383,-3.2134,-3.0435,-2.9308,0.0,0.0,0.0,-3.0283,-3.1961,-3.2642,-3.316,-3.3441,-3.3551,-3.2836,-3.1571,-3.0473,-2.9249,-2.7864,-2.6127,-2.4382,-2.263,0.0,0.0,-2.0957,-2.1914,-2.2676,-2.3281,-2.4291,-2.475,-2.4606,-2.4335,-2.3786,-2.2982,-2.2835,-2.1901,-2.01,-1.9582,-1.8671,-1.7243,-1.6394,-1.538,0.0,0.0,0.0,0.0,0.0,0.0,0.0,0.0,0.0,0.0,0.0,-1.1923,-1.3317,0.0,0.0,0.0,-1.5773,-1.677,-1.8447,-1.9197,0.0,0.0,0.0,0.0,0.0,0.0,0.0,-2.4263,-2.5968,-2.748,-2.8686,-2.8944,-2.9425,-3.0467,-3.083,-3.1182,-3.1685,0.0,-3.2285,-3.2556,-3.2634,-3.2679,-3.2551,-3.1765,-3.111,-3.1142,-3.0639,-3.0337,-3.0416,-3.0652,-3.0783,-3.0817,-3.0734,-3.0542,-3.0109,-2.9345,-2.8793,-2.9106,-2.8356,-2.79,-2.8473,-2.8198,-2.794,-4.7906,-4.6549,-4.1751,-3.9593,-3.9477,-4.0176,-4.0739,-4.1114,-4.0811,-3.9894,-3.8747,-3.7091,-3.5525,-3.3913,-3.2771,0.0,-3.1879,-3.2253,-3.2928,-3.3731,-3.4578,-3.4895,-3.4836,-3.489,-3.4076,-3.2361,-3.1755,-3.0636,-2.9106,-2.8065,-2.7341,-2.6884,-2.385,-2.2461,-2.2773,-2.3164,-2.375,-2.4512,-2.5204,-2.5278,-2.4894,-2.4391,-2.3842,-2.3225,-2.3184,-2.2315,-2.0514,-2.0038,-1.9375,-1.8402,-1.7202,-1.6291,-1.5753,0.0,0.0,0.0,0.0,0.0,0.0,0.0,0.0,0.0,0.0,0.0,0.0,0.0,0.0,0.0,-1.7771,0.0,-1.9284,-2.0007,0.0,0.0,0.0,-2.2352,-2.3416,-2.3884,-2.4681,-2.6228,0.0,0.0,-2.893,-2.9724,-3.0662,-3.1885,-3.2093,-3.2259,-3.2833,-3.2259,-3.1986,-3.2215,-3.167,-3.111,-3.0885,-3.0804,-3.0804,-3.0678,-3.0399,-2.9864,-2.9356,-2.9316,-2.9295,-2.9335,-2.9606,-2.9953,-3.0195,-2.9563,-2.9215,-2.8747,-2.8318,-2.8015,-2.8217,-2.7924,-2.7617,-4.9974,-4.9589,-4.7495,-4.5691,-4.4237,-4.4356,-4.4625,-4.4649,-4.374,-4.2951,-4.2209,-4.0272,-3.8096,-3.5824,-3.5442,-3.5059,-3.4676,-3.4698,-3.5218,-3.601,-3.619,-3.625,-3.6179,-3.5603,-3.4899,-3.3984,-3.2533,-3.1487,-3.0811,-2.9312,-2.8369,-2.8024,-2.6784,-2.57,-2.5,-2.5078,-2.5215,-2.543,-2.5796,-2.5764,-2.5371,-2.4743,-2.4031,-2.3225,-2.3184,-2.2315,-2.0514,-2.0327,-1.9686,-1.8444,-1.8071,-1.7388,-1.627,-1.5566,0.0,0.0,0.0,0.0,0.0,0.0,0.0,0.0,0.0,-1.5172,-1.6499,0.0,-1.7313,0.0,-1.9415,-2.0479,-2.1408,-2.1971,0.0,0.0,-2.337,-2.3737,-2.4324,-2.5248,-2.602,-2.6639,-2.8069,-2.9092,-2.9296,-2.9909,-3.0483,-3.0791,-3.0957,-3.1031,-3.1187,-3.1217,-3.1262,-3.1281,-3.1255,-3.116,-3.0952,-3.0459,-2.9904,-2.9277,-2.9059,-2.8967,-2.8967,-2.8663,-2.8634,-2.9221,-2.865,-2.8159,-2.7991,-2.7623,-2.7262,-2.6936,-2.7326,-2.7911,-2.8015,-2.7667,-2.7338,-5.1129,-5.0648,-5.0046,-4.8988,-4.7642,-4.7185,-4.6968,-4.6872,-4.5621,-4.4732,-4.4082,-4.1774,-3.9801,-3.819,-3.7926,-3.7541,-3.706,-3.7036,-3.7124,-3.7355,-3.7355,-3.731,-3.7012,-3.6307,-3.5511,-3.4812,-3.3226,-3.2219,-3.1689,-3.0326,-2.9601,-2.9186,-2.8632,-2.7961,-2.7078,-2.6504,-2.6211,-2.6114,-2.6108,-2.5966,-2.5715,-2.5124,-2.4405,-2.3536,-2.3287,-2.2522,-2.1093,-2.0638,-1.9975,-1.9044,-1.8609,-1.805,-1.7305,-1.6514,-1.5762,0.0,0.0,0.0,0.0,0.0,0.0,0.0,0.0,0.0,0.0,0.0,-1.9211,-2.0335,-2.0906,-2.1482,-2.2298,-2.2964,-2.3501,-2.4031,-2.4385,-2.4815,-2.5568,-2.6235,-2.6842,-2.7267,-2.8308,-2.8965,-2.8996,-2.9273,-2.952,-2.952,-2.957,-2.9886,-3.0514,-3.0573,-3.0503,-3.062,-3.0319,-3.005,-2.9984,-2.9526,-2.8914,-2.8247,-2.8092,-2.8046,-2.7859,-2.7606,-2.7627,-2.8156,-2.7498,-2.6869,-2.7018,-2.6516,-2.6102,-2.6363,-2.67,-2.719,-2.774,-2.7402,-2.6952,-5.173,-5.0888,-5.0672,-5.0311,-4.9782,-4.8724,-4.8291,-4.8171,-4.6607,-4.5549,-4.478,-4.2423,-4.1052,-4.0475,-3.9946,-3.9393,-3.8839,-3.8815,-3.8503,-3.7998,-3.7974,-3.7892,-3.7572,-3.6732,-3.5981,-3.5258,-3.3947,-3.2936,-3.2139,-3.1403,-3.0703,-3.0203,-2.9869,-2.9363,-2.8688,-2.7708,-2.7038,-2.6844,-2.639,-2.6074,-2.5896,-2.5461,-2.4799,-2.3908,-2.3432,-2.2749,-2.1838,-2.0969,-2.0286,-1.9768,-1.9003,-1.8506,-1.8361,-1.7423,-1.6736,0.0,-1.6027,0.0,0.0,0.0,0.0,0.0,0.0,0.0,0.0,-2.0495,-2.1354,-2.235,-2.2088,-2.2089,-2.2696,-2.3415,-2.3956,-2.4368,-2.4888,-2.5605,-2.6525,-2.6945,-2.7357,-2.789,-2.8217,-2.8411,-2.8442,-2.8411,-2.8411,-2.8504,-2.8504,-2.8922,-3.0049,-2.9912,-2.9668,-2.9958,-2.9171,-2.8528,-2.8213,-2.8056,-2.7841,-2.7349,-2.7242,-2.7057,-2.6638,-2.6435,-2.6461,-2.6647,-2.6094,-2.5727,-2.6346,-2.5536,-2.5189,-2.5637,-2.5807,-2.6168,-2.6989,-2.6928,-2.6386,-5.2163,-5.1874,-5.0551,-4.995,-4.9782,-4.8748,-4.8291,-4.8171,-4.6607,-4.514,-4.377,-4.2856,-4.1942,-4.1028,-4.0475,-3.9729,-3.8839,-3.8815,-3.8527,-3.7974,-3.7974,-3.7974,-3.7844,-3.713,-3.6398,-3.5774,-3.4746,-3.3752,-3.3069,-3.242,-3.171,-3.1013,-3.0495,-2.9869,-2.9006,0.0,0.0,0.0,-2.6561,-2.6074,-2.5896,-2.5461,-2.4799,-2.3908,-2.3432,0.0,-2.1838,-2.128,-2.0617,-1.9879,-1.9671,0.0,0.0,0.0,0.0,0.0,0.0,0.0,0.0,0.0,0.0,0.0,-2.1406,-2.1303,-2.1172,-2.1747,-2.2165,-2.2402,-2.2743,-2.306,-2.3468,-2.403,-2.4463,-2.4829,-2.519,-2.5577,-2.615,-2.6707,-2.7306,-2.779,-2.8137,-2.8411,-2.8411,-2.8411,-2.8411,-2.8381,-2.8284,-2.8327,-2.8639,-2.8658,-2.8693,-2.868,-2.8028,-2.7271,-2.6581,-2.6504,-2.6581,-2.6291,-2.6382,-2.6336,-2.6198,-2.5826,-2.5623,-2.5827,-2.4761,-2.3575,-2.308,-2.2998,-2.3238,-2.301,-2.4064,-2.5133,-2.5613,-2.5782,-2.5744,-5.2115,0.0,-5.0431,-4.971,0.0,-4.8628,-4.8002,-4.7425,-4.6391,-4.5164,-4.389,-4.3096,-4.2471,-4.1918,-4.1124,-4.0355,-3.9585,-3.9345,-3.8912,-3.8383,-3.8118,-3.7974,-3.795,-3.734,-3.6709,-3.6183,-3.5254,-3.4357,-3.3668,-3.3247,-3.2622,-3.1812,-3.1403,-3.0575,-2.9414,-2.8472,-2.7903,-2.7554,-2.6976,-2.6589,-2.6227,-2.5792,-2.5233,-2.455,-2.366,0.0,0.0,0.0,0.0,0.0,0.0,0.0,0.0,0.0,0.0,-1.8659,-1.8969,-1.9586,-2.0514,-2.1095,-2.1817,-2.26,-2.2942,-2.2919,-2.24,-2.2635,-2.2923,-2.3184,-2.3237,-2.3398,-2.3883,-2.4173,-2.4421,-2.4708,-2.4991,-2.5384,-2.5988,-2.6525,-2.7049,-2.764,-2.794,-2.8118,-2.8217,-2.8217,-2.8064,-2.7758,-2.7649,-2.7479,-2.7222,-2.7435,-2.7653,-2.7269,-2.6886,-2.6473,-2.6092,-2.6032,-2.5849,-2.5636,-2.5635,-2.5526,-2.5264,-2.4971,-2.4841,-2.4883,-2.3804,-2.2686,-2.2624,-2.235,-2.2236,-2.2547,-2.3597,-2.4498,-2.4646,-2.5046,-2.5344,-5.1826,-5.1249,-5.0167,-4.9421,-4.8892,-4.8387,-4.7545,-4.6535,0.0,0.0,0.0,-4.3168,-4.2711,-4.2567,-4.1605,-4.0908,-4.0379,-3.985,-3.932,-3.8791,-3.8238,-3.7974,-3.795,-3.7541,-3.706,-3.6531,-3.58,-3.4975,-3.4181,-3.3889,-3.3323,-3.2622,-3.2319,-3.1469,-2.996,-2.84,-2.7652,-2.7631,-2.7393,-2.7034,-2.6579,-2.6123,-2.5668,-2.5254,-2.3991,-2.3308,-2.3287,-2.2045,-2.1321,-2.1238,-2.0803,-2.0348,-1.9983,-1.986,-1.9877,-1.9982,-2.0143,-2.0676,-2.1782,-2.2439,-2.3018,-2.3623,-2.4125,-2.4125,-2.3446,-2.3367,-2.3576,-2.4073,-2.3655,-2.3576,-2.4073,-2.4125,-2.4157,-2.4421,-2.465,-2.5131,-2.5879,-2.6312,-2.6841,-2.7408,-2.774,-2.789,-2.802,-2.7868,-2.7625,-2.7157,-2.6866,-2.6563,-2.6,-2.638,-2.6609,-2.5986,-2.5804,-2.5743,-2.5576,-2.5485,-2.5334,-2.4819,-2.4846,-2.475,-2.4334,-2.4234,-2.4276,-2.4379,-2.3271,-2.2809,-2.2932,-2.2251,-2.1878,-2.2524,-2.3515,-2.4227,-2.4146,-2.4646,-2.5046,-5.1297,-5.072,-4.9638,-4.8892,-4.8363,-4.7834,-4.7016,-4.6006,-4.5477,-4.4635,-4.3601,-4.3024,-4.2519,-4.2062,-4.1461,-4.0908,-4.0379,-3.985,-3.932,-3.8791,-3.8238,-3.7974,-3.7974,-3.7902,-3.7589,-3.706,-3.6531,-3.5824,-3.4999,-3.4548,-3.3941,-3.3269,-3.3124,-3.2252,-3.0743,-2.907,-2.8237,-2.8216,-2.7585,-2.7034,-2.6579,-2.6123,-2.5668,-2.5213,-2.4302,-2.3784,-2.3764,-2.2832,-2.2128,-2.1735,-2.1259,-2.0803,-2.0369,-2.0639,-2.0995,-2.1459,-2.207,-2.2953,-2.3963,-2.4444,-2.4873,-2.5397,-2.5537,-2.5145,-2.4099,-2.3995,-2.4021,-2.4125,-2.3995,-2.4021,-2.4125,-2.4125,-2.4125,-2.4216,-2.4563,-2.4991,-2.5522,-2.6176,-2.6841,-2.7386,-2.774,-2.797,-2.791,-2.7534,-2.717,-2.6896,-2.6257,-2.565,-2.5153,-2.5546,-2.5728,-2.5198,-2.4972,-2.4686,-2.431,-2.3953,-2.4026,-2.3803,-2.3963,-2.4122,-2.4055,-2.4109,-2.4265,-2.4276,-2.3609,-2.3055,-2.2624,-2.1935,-2.1672,-2.1936,-2.2758,-2.359,-2.4194,-2.4736,-2.4846,-5.1441,-5.06,-4.9517,-4.8772,-4.8195,-4.7112,-4.6367,-4.5862,-4.5044,-4.4275,-4.3481,-4.2976,-4.2471,-4.1942,-4.1413,-4.1052,-4.0787,-3.997,-3.9465,-3.92,-3.8383,-3.7974,-3.7974,-3.7974,-3.7709,-3.718,-3.6651,-3.6045,-3.5394,-3.4892,-3.4335,-3.3843,-3.3267,-3.2302,-3.1164,-2.9656,-2.8796,-2.8625,-2.7777,-2.7158,-2.6931,-2.6496,-2.6041,-2.5585,-2.4716,-2.4115,-2.3888,-2.3225,-2.277,-2.2563,-2.2356,-2.1998,-2.1365,-2.1691,-2.1984,-2.209,-2.2662,-2.3471,-2.4564,-2.5039,-2.5395,-2.561,-2.561,-2.5465,-2.5092,-2.4753,-2.4439,-2.4151,-2.4125,-2.4125,-2.4125,-2.4125,-2.4125,-2.4216,-2.4563,-2.4991,-2.5522,-2.6068,-2.6683,-2.7233,-2.7488,-2.769,-2.779,-2.7519,-2.6977,-2.6374,-2.5333,-2.4507,-2.4148,-2.4417,-2.4595,-2.4206,-2.4146,-2.4026,-2.364,-2.361,-2.361,-2.361,-2.3696,-2.3824,-2.3982,-2.4109,-2.4193,-2.4214,-2.3763,-2.324,-2.284,-2.2331,-2.2034,-2.2077,-2.2902,-2.3797,-2.4378,-2.4767,-2.478,-5.1369,-5.0431,-4.9469,-4.8652,-4.7834,-4.6487,-4.5862,-4.5645,-4.4732,-4.3986,-4.3337,-4.2928,-4.2399,-4.1774,-4.1365,-4.1196,-4.1052,-4.009,-3.9609,-3.9489,-3.8479,-3.7974,-3.7974,-3.7974,-3.7757,-3.7348,-3.6843,-3.6314,-3.5785,-3.5256,-3.4846,-3.4483,-3.3305,-3.2535,-3.2059,-3.0585,-2.962,-2.9139,-2.8115,-2.7461,-2.7241,-2.6806,-2.6392,-2.5999,-2.5171,-2.4529,-2.4178,-2.3639,-2.335,-2.3329,-2.3327,-2.3012,-2.2555,-2.2767,-2.2974,-2.2979,-2.3213,-2.3895,-2.5028,-2.5588,-2.5935,-2.5935,-2.5935,-2.5947,-2.5944,-2.5615,-2.5118,-2.4596,-2.4543,-2.4543,-2.4543,-2.4387,-2.4367,-2.449,-2.4731,-2.5104,-2.5633,-2.615,-2.663,-2.713,-2.7335,-2.7488,-2.756,-2.744,-2.692,-2.5734,-2.4567,-2.3879,-2.3819,-2.3729,-2.361,-2.361,-2.361,-2.361,-2.361,-2.361,-2.361,-2.361,-2.3696,-2.3782,-2.394,-2.4067,-2.4193,-2.4214,-2.3917,-2.3517,-2.3302,-2.291,-2.2647,-2.2685,-2.3286,-2.4068,-2.4664,-2.5201,-2.5213,-5.0503,-4.9902,-4.9325,-4.8219,-4.6896,-4.6223,-4.5669,-4.5188,-4.4587,-4.377,-4.288,-4.2784,-4.2206,-4.1341,-4.122,-4.1196,-4.11,-4.009,-3.9609,-3.9489,-3.8479,-3.7974,-3.7974,-3.7974,-3.795,-3.7829,-3.7348,-3.6819,-3.6338,-3.5785,-3.5403,-3.5017,-3.391,-3.3499,-3.3781,-3.1974,-3.0607,-3.0122,-2.8988,-2.7965,-2.7357,-2.6806,-2.6558,-2.6496,-2.5647,-2.5063,-2.5047,-2.4281,-2.3826,-2.3784,-2.3575,-2.3545,-2.3615,-2.3819,-2.4145,-2.4608,-2.4655,-2.5109,-2.6127,-2.6832,-2.7141,-2.73,-2.7248,-2.7039,-2.6661,-2.6556,-2.6269,-2.5798,-2.5667,-2.5563,-2.5641,-2.5197,-2.5004,-2.5018,-2.5172,-2.5272,-2.5743,-2.6447,-2.6974,-2.7181,-2.7437,-2.759,-2.753,-2.7111,-2.6452,-2.5824,-2.5046,-2.4537,-2.4477,-2.4118,-2.3759,-2.367,-2.361,-2.361,-2.361,-2.361,-2.361,-2.361,-2.361,-2.3739,-2.394,-2.4024,-2.4067,-2.4245,-2.4256,-2.3948,-2.3548,-2.3209,-2.3249,-2.3257,-2.3608,-2.4074,-2.5185,-2.5898,-2.5882,-5.0455,-4.9421,-4.9517,-4.8628,-4.7209,-4.6607,-4.591,-4.5116,-4.4587,-4.3746,-4.2832,-4.276,-4.2182,-4.1196,-4.1196,-4.1196,-4.11,-4.009,-3.9609,-3.9513,-3.8479,-3.7974,-3.7974,-3.7974,-3.7974,-3.7926,-3.7445,-3.7084,-3.6771,-3.6026,-3.5352,-3.4774,-3.451,-3.4316,-3.419,-3.3021,-3.1974,-3.1172,-2.9645,-2.8497,-2.7902,-2.7315,-2.6848,-2.6558,-2.6206,-2.5751,-2.5275,-2.4861,-2.4636,-2.4535,-2.4493,-2.4591,-2.4799,-2.5059,-2.5383,-2.5675,-2.5971,-2.6113,-2.6119,-2.6645,-2.6985,-2.7214,-2.7214,-2.7178,-2.721,-2.7183,-2.7079,-2.6817,-2.6153,-2.5798,-2.5824,-2.5615,-2.5415,-2.5375,-2.5554,-2.574,-2.5826,-2.6529,-2.7055,-2.7181,-2.7437,-2.756,-2.747,-2.6991,-2.6512,-2.6153,-2.5615,-2.5226,-2.5196,-2.4956,-2.4657,-2.4298,-2.4208,-2.3999,-2.3699,-2.361,-2.361,-2.361,-2.361,-2.3696,-2.394,-2.3982,-2.4067,-2.4276,-2.4317,-2.4256,-2.401,-2.3887,-2.3887,-2.3937,-2.4296,-2.4812,-2.5476,-2.6096,-2.6283,-5.0624,-4.9614,-4.9638,-4.8724,-4.7257,-4.6728,-4.591,-4.4948,-4.4515,-4.3746,-4.2808,-4.276,-4.2182,-4.1268,-4.1196,-4.1196,-4.1052,-4.0234,-3.9729,-3.9513,-3.8647,-3.8118,-3.7998,-3.7974,-3.7974,-3.7926,-3.7613,-3.7348,-3.7084,-3.6122,-3.5325,-3.4966,-3.509,-3.492,-3.4433,-3.3835,-3.3091,-3.2029,-3.0577,-2.944,-2.87,-2.8094,-2.7505,-2.69,-2.662,-2.6248,-2.5627,-2.5446,-2.5242,-2.5146,-2.5359,-2.5543,-2.5895,-2.628,-2.6511,-2.6633,-2.7091,-2.7008,-2.6321,-2.676,-2.7028,-2.7105,-2.7079,-2.7188,-2.739,-2.7456,-2.7456,-2.7445,-2.67,-2.6321,-2.6295,-2.6138,-2.6002,-2.5914,-2.6207,-2.6348,-2.6414,-2.7072,-2.7524,-2.7506,-2.7765,-2.7739,-2.756,-2.7171,-2.6871,-2.6811,-2.6303,-2.5884,-2.5824,-2.5704,-2.5375,-2.494,-2.4851,-2.4537,-2.3819,-2.3566,-2.3566,-2.3566,-2.3566,-2.361,-2.3897,-2.394,-2.4067,-2.4234,-2.4276,-2.4287,-2.4194,-2.4225,-2.4328,-2.4451,-2.4744,-2.5214,-2.5578,-2.6059,-2.638,-5.0696,-5.0455,-4.9517,-4.8219,-4.6728,-4.6223,-4.5381,-4.4443,-4.4371,-4.3746,-4.2856,-4.276,-4.2182,-4.1244,-4.1196,-4.1196,-4.1076,-4.0571,-4.0042,-3.9537,-3.9008,-3.8479,-3.7998,-3.7974,-3.7974,-3.7974,-3.7926,-3.7637,-3.7156,-3.6146,-3.5716,-3.5842,-3.5478,-3.5235,-3.5017,-3.4581,-3.3758,-3.2632,-3.1886,-3.0874,-2.931,-2.9041,-2.8402,-2.7389,-2.6806,-2.6558,-2.6392,-2.5936,-2.563,-2.587,-2.6018,-2.634,-2.6812,-2.7205,-2.7411,-2.7433,-2.7779,-2.7821,-2.7344,-2.7596,-2.767,-2.7343,-2.7266,-2.7348,-2.7456,-2.7456,-2.7456,-2.7456,-2.7392,-2.7274,-2.7288,-2.687,-2.6737,-2.6924,-2.6992,-2.7148,-2.7535,-2.811,-2.8495,-2.8243,-2.833,-2.8218,-2.7679,-2.756,-2.747,-2.735,-2.6931,-2.6542,-2.6482,-2.6063,-2.5734,-2.5568,-2.5418,-2.5106,-2.3939,-2.3851,-2.3718,-2.3777,-2.3926,-2.3614,-2.3683,-2.3824,-2.4128,-2.4223,-2.4399,-2.4441,-2.4348,-2.4359,-2.44,-2.4564,-2.4815,-2.5169,-2.5502,-2.5914,-2.6203,-5.0503,-5.007,-4.9012,-4.7858,-4.6752,-4.6511,-4.5645,-4.4395,-4.4347,-4.3938,-4.3265,-4.2904,-4.2351,-4.1677,-4.1341,-4.1004,-4.0667,-4.0475,-3.9946,-3.9152,-3.8912,-3.8527,-3.8022,-3.7974,-3.7974,-3.7974,-3.7974,-3.7709,-3.718,-3.6459,-3.6054,-3.5965,-3.5697,-3.5428,-3.5428,-3.5138,-3.4533,-3.3734,-3.2845,-3.1734,-3.06,-2.9906,-2.9132,-2.8207,-2.7568,-2.7056,-2.6579,-2.6229,-2.6034,-2.6239,-2.6356,-2.6775,-2.7672,-2.8227,-2.8358,-2.8098,-2.825,-2.8151,-2.7751,-2.7868,-2.7926,-2.767,-2.7593,-2.7575,-2.7535,-2.7456,-2.7456,-2.7482,-2.7482,-2.7456,-2.7497,-2.734,-2.7144,-2.7035,-2.7238,-2.7434,-2.7642,-2.8197,-2.8621,-2.8689,-2.8664,-2.8435,-2.8144,-2.7757,-2.7437,-2.7357,-2.7229,-2.708,-2.7101,-2.6942,-2.6613,-2.6217,-2.6098,-2.5753,-2.4798,-2.4713,-2.4713,-2.4713,-2.4743,-2.4835,-2.4882,-2.4942,-2.518,-2.4805,-2.4798,-2.4625,-2.4533,-2.4317,-2.44,-2.4523,-2.4775,-2.5052,-2.5355,-2.5733,-2.6059,-5.0119,-4.9493,-4.8483,-4.7521,-4.6704,-4.6343,-4.5501,-4.4395,-4.4347,-4.4034,-4.3481,-4.2976,-4.2471,-4.1942,-4.1413,-4.0884,-4.0451,-4.0547,-4.0162,-3.9369,-3.9152,-3.8791,-3.831,-3.807,-3.7974,-3.7974,-3.7974,-3.7781,-3.7445,-3.6916,-3.6488,-3.6281,-3.5942,-3.5768,-3.567,-3.5524,-3.5211,-3.4557,-3.3882,-3.2881,-3.1872,-3.1103,-3.0135,-2.9205,-2.8445,-2.7776,-2.6972,-2.6662,-2.6644,-2.6867,-2.6864,-2.7406,-2.8498,-2.8973,-2.9061,-2.887,-2.8948,-2.88,-2.83,-2.8373,-2.8341,-2.8094,-2.8087,-2.8048,-2.8056,-2.8098,-2.8098,-2.8072,-2.7889,-2.7811,-2.7758,-2.7654,-2.7433,-2.7261,-2.7568,-2.7849,-2.8019,-2.859,-2.9088,-2.9281,-2.9055,-2.8753,-2.8551,-2.8017,-2.7698,-2.7476,-2.7432,-2.7365,-2.7335,-2.7357,-2.7318,-2.6802,-2.6633,-2.6406,-2.5923,-2.5806,-2.5276,-2.5158,-2.5147,-2.5408,-2.5764,-2.5845,-2.5804,-2.5448,-2.5136,-2.4902,-2.4656,-2.4379,-2.4359,-2.4482,-2.4645,-2.4855,-2.5169,-2.5546,-2.5844,-4.9541,-4.8964,-4.7954,-4.7185,-4.6559,-4.5669,-4.4876,-4.4395,-4.4347,-4.4034,-4.3481,-4.2976,-4.2471,-4.1942,-4.1413,-4.0908,-4.0691,-4.0956,-4.0763,-4.0162,-3.9777,-3.9345,-3.8815,-3.8262,-3.7998,-3.7974,-3.7974,-3.7974,-3.7983,-3.7477,-3.7049,-3.6792,-3.6505,-3.6185,-3.562,-3.5812,-3.5716,-3.5307,-3.5066,-3.427,-3.2724,-3.2442,-3.1577,-3.0079,-2.96,-2.891,-2.7767,-2.7446,-2.7371,-2.7611,-2.769,-2.8315,-2.9106,-2.9341,-2.9496,-2.9651,-2.9908,-2.9631,-2.9026,-2.9076,-2.8997,-2.8733,-2.8703,-2.8795,-2.895,-2.9091,-2.9091,-2.9013,-2.8673,-2.8386,-2.8255,-2.7889,-2.7616,-2.7762,-2.7919,-2.8346,-2.8884,-2.9628,-3.0067,-2.9929,-2.9454,-2.9127,-2.898,-2.8429,-2.7993,-2.7735,-2.7518,-2.7166,-2.7107,-2.713,-2.7181,-2.7071,-2.6902,-2.6623,-2.6747,-2.6834,-2.6025,-2.5313,-2.5325,-2.5423,-2.5864,-2.6105,-2.5968,-2.5651,-2.5075,-2.4798,-2.4533,-2.4317,-2.4359,-2.4441,-2.4574,-2.4695,-2.4974,-2.5285,-2.5663,-4.8676,-4.8411,-4.7401,-4.6655,-4.6102,-4.5429,-4.4828,-4.4371,-4.4347,-4.4034,-4.3481,-4.2976,-4.2471,-4.1942,-4.1437,-4.1293,-4.1461,-4.1293,-4.0715,-4.0042,-4.0042,-3.985,-3.9296,-3.8766,-3.8331,-3.7998,-3.7974,-3.808,-3.8113,-3.7782,-3.7453,-3.7318,-3.6875,-3.6525,-3.6123,-3.6003,-3.5908,-3.5812,-3.5524,-3.4966,-3.4096,-3.3498,-3.2691,-3.1501,-3.0763,-3.0011,-2.912,-2.8255,-2.7942,-2.8268,-2.8151,-2.8474,-2.9263,-2.9599,-2.9702,-2.9804,-2.9882,-2.9806,-2.9578,-2.958,-2.9479,-2.9173,-2.9193,-2.9134,-2.9139,-2.9256,-2.9327,-2.9301,-2.9091,-2.8856,-2.8464,-2.8229,-2.7941,-2.7616,-2.7855,-2.8183,-2.8766,-2.9526,-3.0029,-3.0069,-2.9697,-2.9377,-2.903,-2.8541,-2.7937,-2.7453,-2.7221,-2.7101,-2.6722,-2.6823,-2.6736,-2.663,-2.6578,-2.6525,-2.6394,-2.6447,-2.6127,-2.5776,-2.5763,-2.5828,-2.6138,-2.6406,-2.6249,-2.5804,-2.5234,-2.4706,-2.4399,-2.4317,-2.4359,-2.4359,-2.4482,-2.4605,-2.4735,-2.5091,-2.5513,-4.8171,-4.7882,-4.6848,-4.6247,-4.5838,-4.5164,-4.4659,-4.4347,-4.413,-4.3842,-4.3409,-4.276,-4.2423,-4.2158,-4.1725,-4.1798,-4.2182,-4.1701,-4.1124,-4.0499,-4.0306,-4.021,-3.9777,-3.9129,-3.8645,-3.8262,-3.807,-3.808,-3.8396,-3.808,-3.7849,-3.7816,-3.737,-3.6945,-3.6684,-3.6363,-3.6098,-3.6098,-3.5978,-3.5635,-3.4903,-3.4268,-3.3454,-3.2557,-3.1759,-3.1116,-3.0551,-2.9653,-2.9057,-2.8842,-2.8562,-2.884,-2.9521,-2.9702,-2.9779,-2.9779,-2.9882,-2.9856,-2.9779,-2.9806,-2.9807,-2.9606,-2.968,-2.9802,-2.9714,-2.9855,-2.9928,-2.9902,-2.9719,-2.9457,-2.9091,-2.8569,-2.8229,-2.7889,-2.7828,-2.8079,-2.8573,-2.9212,-2.9623,-2.9633,-2.9529,-2.9359,-2.9068,-2.8524,-2.7959,-2.7363,-2.7284,-2.7201,-2.6833,-2.6771,-2.6603,-2.6406,-2.621,-2.6073,-2.5743,-2.5825,-2.6042,-2.6172,-2.6299,-2.6422,-2.663,-2.6929,-2.6961,-2.6138,-2.5461,-2.4829,-2.4502,-2.4348,-2.4317,-2.4359,-2.44,-2.4523,-2.4726,-2.4974,-2.54,-4.7954,-4.7401,-4.6367,-4.5958,-4.579,-4.4828,-4.4347,-4.4202,-4.3794,-4.3481,-4.3168,-4.2423,-4.2254,-4.2495,-4.2062,-4.2206,-4.2639,-4.2254,-4.199,-4.1653,-4.11,-4.0523,-4.0186,-3.9417,-3.896,-3.8695,-3.8286,-3.8258,-3.8421,-3.8453,-3.8442,-3.8339,-3.7917,-3.7443,-3.7111,-3.6634,-3.6358,-3.6358,-3.6358,-3.6013,-3.5351,-3.4736,-3.4123,-3.331,-3.2503,-3.2074,-3.1728,-3.1245,-3.0396,-2.9362,-2.9205,-2.9436,-2.9777,-2.9829,-2.9779,-2.9804,-3.0011,-2.9934,-2.9856,-2.9934,-3.0062,-2.9986,-3.0215,-3.0444,-3.0543,-3.069,-3.0764,-3.0764,-3.0424,-3.0137,-2.9849,-2.9222,-2.8621,-2.8454,-2.8091,-2.8106,-2.8444,-2.8702,-2.8931,-2.9022,-2.9085,-2.9085,-2.9002,-2.8443,-2.8167,-2.7831,-2.7566,-2.7349,-2.719,-2.6944,-2.6805,-2.6497,-2.619,-2.5827,-2.5658,-2.5522,-2.5798,-2.6096,-2.6418,-2.6765,-2.6886,-2.7136,-2.7111,-2.6303,-2.5707,-2.5075,-2.4594,-2.441,-2.4317,-2.4317,-2.44,-2.4482,-2.4686,-2.4895,-2.5285,-4.7617,-4.7377,-4.6367,-4.5934,-4.5766,-4.4804,-4.4106,-4.3746,-4.3601,-4.3096,-4.2471,-4.211,-4.2062,-4.2158,-4.2086,-4.2447,-4.3024,-4.2784,-4.2567,-4.2447,-4.1894,-4.11,-4.0523,-4.0114,-3.9561,-3.8936,-3.8863,-3.881,-3.8761,-3.8841,-3.8881,-3.8742,-3.8241,-3.7665,-3.7186,-3.6659,-3.6383,-3.6358,-3.6358,-3.6307,-3.5987,-3.5487,-3.4803,-3.4074,-3.3415,-3.2857,-3.2288,-3.1773,-3.1234,-3.0587,-3.022,-3.0065,-3.0253,-3.003,-2.9829,-2.9779,-2.9934,-3.0011,-2.9856,-3.0011,-3.0062,-3.0088,-3.0292,-3.0444,-3.0698,-3.0924,-3.0999,-3.0973,-3.0817,-3.0581,-3.0215,-2.9823,-2.9483,-2.8987,-2.8339,-2.7934,-2.8079,-2.8287,-2.8481,-2.8481,-2.8638,-2.8638,-2.8519,-2.8346,-2.7985,-2.7624,-2.7444,-2.7387,-2.7264,-2.7111,-2.6982,-2.673,-2.6425,-2.5949,-2.5646,-2.5435,-2.555,-2.5934,-2.6365,-2.6841,-2.6953,-2.7101,-2.6729,-2.6138,-2.5816,-2.5302,-2.4718,-2.4348,-2.4317,-2.4317,-2.4317,-2.44,-2.4533,-2.4775,-2.5176,-4.7497,-4.7401,-4.6367,-4.5934,-4.579,-4.4804,-4.4154,-4.3794,-4.3361,-4.2904,-4.2327,-4.2062,-4.2086,-4.2303,-4.2543,-4.3072,-4.3721,-4.3313,-4.3096,-4.3,-4.2519,-4.1725,-4.0908,-4.0523,-4.0066,-3.9513,-3.9117,-3.9077,-3.9079,-3.9173,-3.9084,-3.9093,-3.8642,-3.809,-3.7563,-3.6985,-3.6558,-3.6408,-3.6358,-3.6358,-3.6332,-3.583,-3.5361,-3.4769,-3.408,-3.3383,-3.2773,-3.2425,-3.2003,-3.1456,-3.0909,-3.0592,-3.0528,-3.0331,-3.003,-2.9854,-3.0011,-3.0011,-2.9856,-3.0011,-3.0088,-3.0088,-3.0216,-3.0444,-3.0622,-3.0849,-3.0973,-3.0973,-3.0973,-3.0817,-3.0555,-3.0294,-2.9876,-2.9301,-2.8786,-2.8287,-2.8118,-2.8225,-2.8199,-2.8066,-2.8052,-2.8118,-2.796,-2.796,-2.7762,-2.7485,-2.7535,-2.7514,-2.7453,-2.7282,-2.7223,-2.7121,-2.6794,-2.6294,-2.6058,-2.5876,-2.5855,-2.6181,-2.6736,-2.7152,-2.7238,-2.727,-2.6995,-2.6549,-2.6061,-2.5549,-2.4995,-2.4502,-2.4317,-2.4317,-2.4317,-2.44,-2.4533,-2.4932,-2.5304,-4.7497,-4.7401,-4.6367,-4.5934,-4.5766,-4.4804,-4.4275,-4.4034,-4.3216,-4.2784,-4.2615,-4.2182,-4.2327,-4.2856,-4.3192,-4.377,-4.4275,-4.3818,-4.3577,-4.3337,-4.2904,-4.2206,-4.1485,-4.0956,-4.0571,-4.0186,-3.9369,-3.9285,-3.9447,-3.9136,-3.9228,-3.9393,-3.9094,-3.8617,-3.804,-3.7462,-3.691,-3.6558,-3.6408,-3.6383,-3.6307,-3.5931,-3.5655,-3.5236,-3.4335,-3.3746,-3.3319,-3.3068,-3.2707,-3.2087,-3.1456,-3.1098,-3.0834,-3.0683,-3.0306,-2.9982,-2.9934,-3.0011,-2.9934,-3.0011,-3.0088,-3.0011,-3.0216,-3.0444,-3.052,-3.0823,-3.0973,-3.0973,-3.0973,-3.0947,-3.0869,-3.0503,-3.0137,-2.9745,-2.9555,-2.917,-2.8699,-2.8464,-2.8177,-2.7706,-2.7602,-2.7523,-2.7456,-2.7523,-2.7523,-2.7696,-2.7801,-2.7851,-2.7884,-2.7886,-2.7876,-2.7822,-2.7359,-2.6728,-2.6526,-2.6318,-2.6385,-2.6562,-2.7211,-2.764,-2.779,-2.7746,-2.7552,-2.7238,-2.6658,-2.5966,-2.5302,-2.4872,-2.4564,-2.4317,-2.4317,-2.44,-2.4595,-2.521,-2.5702,-4.7497,-4.7401,-4.6367,-4.5934,-4.5766,-4.4804,-4.4106,-4.3673,-4.3048,-4.276,-4.2639,-4.223,-4.2519,-4.3337,-4.3457,-4.3818,-4.4299,-4.4154,-4.3962,-4.3457,-4.3,-4.2711,-4.2303,-4.187,-4.1196,-4.0708,-4.041,-4.016,-3.9741,-3.9766,-3.9785,-3.9672,-3.9245,-3.8818,-3.8567,-3.7764,-3.7161,-3.6935,-3.6609,-3.6408,-3.6358,-3.6232,-3.5931,-3.5529,-3.4525,-3.3922,-3.3671,-3.3294,-3.3018,-3.2707,-3.2256,-3.1705,-3.1235,-3.0834,-3.0382,-3.0007,-3.0011,-3.0088,-3.0088,-3.0088,-3.0139,-3.0216,-3.0292,-3.0444,-3.0622,-3.0823,-3.0999,-3.0973,-3.0973,-3.0973,-3.0973,-3.0895,-3.066,-3.0503,-3.0477,-3.032,-2.9771,-2.8935,-2.8412,-2.815,-2.7785,-2.7456,-2.7456,-2.7456,-2.759,-2.7881,-2.8079,-2.8183,-2.8363,-2.842,-2.8429,-2.8411,-2.8146,-2.7571,-2.7226,-2.7081,-2.6971,-2.7079,-2.7607,-2.802,-2.8088,-2.8107,-2.788,-2.7592,-2.721,-2.6519,-2.5857,-2.5241,-2.4933,-2.4625,-2.4379,-2.4565,-2.4936,-2.5552,-2.6197,-4.7353,-4.704,-4.6271,-4.579,-4.5453,-4.4708,-4.4178,-4.3794,-4.3072,-4.2904,-4.2904,-4.2327,-4.2567,-4.3457,-4.3529,-4.3818,-4.4251,-4.4347,-4.4202,-4.389,-4.3601,-4.3506,-4.3336,-4.2903,-4.2276,-4.1426,-4.0886,-4.0685,-4.0548,-4.0219,-4.0034,-4.0049,-3.9521,-3.912,-3.8894,-3.8241,-3.7713,-3.7211,-3.691,-3.6634,-3.6408,-3.6358,-3.6081,-3.5629,-3.4951,-3.45,-3.3897,-3.3646,-3.3345,-3.3068,-3.2767,-3.224,-3.1537,-3.111,-3.0687,-3.0085,-2.9934,-3.0088,-3.0164,-3.0088,-3.0011,-3.0216,-3.0368,-3.0444,-3.0622,-3.0849,-3.0999,-3.0973,-3.0973,-3.0973,-3.0973,-3.0973,-3.0973,-3.0973,-3.0973,-3.0843,-3.0424,-2.951,-2.8673,-2.8386,-2.7863,-2.7628,-2.7456,-2.7575,-2.7656,-2.7947,-2.8079,-2.8276,-2.8546,-2.8657,-2.8812,-2.8793,-2.8781,-2.8484,-2.8107,-2.7822,-2.7585,-2.7682,-2.7981,-2.821,-2.8314,-2.8253,-2.8161,-2.7902,-2.7595,-2.7242,-2.6565,-2.598,-2.5364,-2.5087,-2.4914,-2.502,-2.5383,-2.6195,-2.6808,-4.7112,-4.6655,-4.6054,-4.5549,-4.5092,-4.4563,-4.4347,-4.4178,-4.3216,-4.3096,-4.3337,-4.2495,-4.2591,-4.3457,-4.3529,-4.3842,-4.4227,-4.4347,-4.4275,-4.4251,-4.4202,-4.4085,-4.3917,-4.3627,-4.3262,-4.2598,-4.1631,-4.1408,-4.12,-4.0774,-4.0333,-4.032,-3.9948,-3.9471,-3.9094,-3.8843,-3.8391,-3.7688,-3.7262,-3.696,-3.6584,-3.6458,-3.6107,-3.5805,-3.5479,-3.5052,-3.4399,-3.3997,-3.3671,-3.3244,-3.3119,-3.2516,-3.1813,-3.1361,-3.0989,-3.0189,-2.9934,-3.0088,-3.0318,-3.0164,-3.0011,-3.0139,-3.0368,-3.0444,-3.052,-3.0748,-3.0973,-3.0973,-3.0973,-3.0973,-3.0973,-3.0973,-3.0973,-3.0973,-3.0973,-3.0973,-3.079,-3.0032,-2.9301,-2.8804,-2.8281,-2.7889,-2.7706,-2.768,-2.7802,-2.8013,-2.8106,-2.8276,-2.8665,-2.8931,-2.9085,-2.9149,-2.9136,-2.9111,-2.8725,-2.871,-2.844,-2.83,-2.8455,-2.8412,-2.8455,-2.8332,-2.8271,-2.8209,-2.798,-2.758,-2.718,-2.6595,-2.6072,-2.5685,-2.5574,-2.5703,-2.6251,-2.6936,-2.7492,-4.68,-4.6631,-4.5669,-4.5213,-4.5068,-4.4587,-4.4347,-4.4178,-4.3241,-4.3313,-4.3914,-4.2687,-4.2808,-4.3746,-4.3649,-4.3818,-4.4154,-4.4299,-4.4347,-4.4347,-4.4347,-4.4449,-4.4597,-4.4257,-4.3937,-4.3585,-4.2708,-4.2046,-4.1657,-4.1072,-4.0789,-4.042,-4.0023,-3.9647,-3.9421,-3.912,-3.8818,-3.8316,-3.7739,-3.7262,-3.6935,-3.6558,-3.6332,-3.6107,-3.583,-3.5479,-3.5077,-3.4374,-3.3847,-3.3721,-3.3319,-3.2742,-3.2114,-3.1637,-3.1069,-3.0417,-3.0088,-3.0164,-3.0546,-3.0444,-3.0394,-3.0546,-3.0622,-3.0622,-3.0698,-3.0823,-3.0973,-3.0973,-3.0973,-3.0973,-3.0973,-3.0973,-3.0973,-3.0973,-3.0973,-3.0973,-3.0843,-3.0451,-2.998,-2.9693,-2.8935,-2.8229,-2.8177,-2.8072,-2.8197,-2.8385,-2.8478,-2.8687,-2.9022,-2.9232,-2.9401,-2.9463,-2.9526,-2.944,-2.9285,-2.9377,-2.9366,-2.8943,-2.893,-2.8736,-2.867,-2.8473,-2.8381,-2.8319,-2.8227,-2.798,-2.755,-2.7119,-2.6718,-2.6318,-2.6359,-2.6417,-2.6985,-2.7615,-2.8265,-4.6391,-4.5862,-4.5333,-4.4972,-4.4708,-4.4467,-4.4347,-4.4227,-4.3529,-4.3601,-4.3697,-4.2808,-4.2856,-4.3721,-4.312,-4.3289,-4.4062,-4.4497,-4.4693,-4.4717,-4.484,-4.4963,-4.5208,-4.489,-4.4541,-4.4327,-4.3597,-4.2955,-4.2413,-4.1813,-4.1372,-4.0846,-4.04,-3.9998,-3.9722,-3.9446,-3.9145,-3.8818,-3.8316,-3.7713,-3.7186,-3.6659,-3.6408,-3.6282,-3.6107,-3.5855,-3.5403,-3.4826,-3.4198,-3.3847,-3.337,-3.2817,-3.234,-3.1888,-3.1473,-3.0775,-3.0342,-3.0318,-3.0672,-3.0596,-3.0444,-3.0622,-3.0698,-3.0698,-3.0773,-3.0849,-3.0973,-3.0973,-3.0973,-3.0973,-3.0973,-3.0973,-3.0973,-3.0973,-3.0973,-3.0973,-3.0921,-3.0712,-3.0581,-3.0424,-2.9588,-2.8987,-2.883,-2.8769,-2.8723,-2.8716,-2.8799,-2.9062,-2.9371,-2.9489,-2.954,-2.9588,-2.9651,-2.9789,-2.975,-2.9959,-3.0068,-2.9763,-2.9498,-2.9307,-2.9008,-2.8873,-2.8596,-2.8381,-2.8288,-2.8442,-2.798,-2.758,-2.7272,-2.7041,-2.7207,-2.74,-2.7747,-2.8263,-2.8888,-4.591,-4.514,-4.502,-4.4732,-4.4395,-4.4347,-4.4347,-4.4227,-4.3746,-4.3721,-4.3938,-4.288,-4.2904,-4.3577,-4.3289,-4.3119,-4.416,-4.4597,-4.4915,-4.5208,-4.5208,-4.5453,-4.5574,-4.5572,-4.5101,-4.4511,-4.4336,-4.3836,-4.2899,-4.2359,-4.1907,-4.1404,-4.0877,-4.0325,-3.9948,-3.9722,-3.9421,-3.917,-3.8868,-3.8291,-3.7337,-3.6759,-3.6458,-3.6383,-3.6358,-3.6132,-3.5755,-3.5027,-3.4525,-3.4048,-3.3495,-3.2867,-3.2466,-3.2265,-3.1902,-3.1337,-3.07,-3.0624,-3.0748,-3.0748,-3.0672,-3.0773,-3.0773,-3.0773,-3.0773,-3.0924,-3.0973,-3.0973,-3.0973,-3.0973,-3.0973,-3.0973,-3.0973,-3.0973,-3.0973,-3.0973,-3.0973,-3.0921,-3.0895,-3.0555,-2.998,-2.9693,-2.9483,-2.9118,-2.9022,-2.9135,-2.913,-2.9214,-2.9504,-2.9518,-2.9581,-2.961,-2.9713,-2.9993,-3.0156,-3.0455,-3.0535,-3.0473,-3.0251,-3.0084,-2.9704,-2.9335,-2.9058,-2.8873,-2.9058,-2.9119,-2.8596,-2.8073,-2.7843,-2.7798,-2.8044,-2.8271,-2.8589,-2.8818,-2.9295,-4.5261,-4.5092,-4.4635,-4.4395,-4.4347,-4.4347,-4.4347,-4.4275,-4.3746,-4.3553,-4.3649,-4.2976,-4.2928,-4.3433,-4.3844,-4.4038,-4.4549,-4.4597,-4.4937,-4.5379,-4.5453,-4.5574,-4.5817,-4.5817,-4.5266,-4.4627,-4.4477,-4.3966,-4.3112,-4.2459,-4.2158,-4.1831,-4.1078,-4.045,-4.03,-3.9898,-3.9672,-3.9496,-3.912,-3.8341,-3.7412,-3.7111,-3.6784,-3.6483,-3.6358,-3.6307,-3.6056,-3.5353,-3.4726,-3.45,-3.3621,-3.3093,-3.2893,-3.2466,-3.2187,-3.1822,-3.1419,-3.1036,-3.1029,-3.0898,-3.0898,-3.0924,-3.0924,-3.0924,-3.0924,-3.0999,-3.0973,-3.0973,-3.0973,-3.0973,-3.0973,-3.0973,-3.0973,-3.0973,-3.0973,-3.0973,-3.0973,-3.0973,-3.0973,-3.0947,-3.0451,-3.0268,-3.0111,-2.964,-2.9319,-2.946,-2.9521,-2.9617,-2.9698,-2.9783,-2.9767,-2.9891,-2.9893,-3.0083,-3.0418,-3.0749,-3.0976,-3.1066,-3.0884,-3.072,-3.0351,-2.9981,-2.9735,-2.9643,-2.9827,-2.9724,-2.9187,-2.8755,-2.8525,-2.8544,-2.8826,-2.9057,-2.9297,-2.956,-2.9726,-4.4395,-4.4683,-4.4443,-4.4347,-4.4347,-4.4347,-4.4347,-4.4227,-4.377,-4.3505,-4.3337,-4.2639,-4.2396,-4.285,-4.3647,-4.4326,-4.447,-4.4734,-4.5176,-4.5693,-4.5793,-4.5914,-4.5985,-4.5735,-4.5229,-4.4627,-4.4267,-4.374,-4.3062,-4.2735,-4.2509,-4.2082,-4.1404,-4.0802,-4.0551,-3.9973,-3.9747,-3.9521,-3.912,-3.8467,-3.7789,-3.7312,-3.691,-3.6383,-3.6383,-3.6358,-3.6251,-3.584,-3.5209,-3.4881,-3.4186,-3.3568,-3.329,-3.3047,-3.2777,-3.2516,-3.2423,-3.194,-3.1159,-3.1052,-3.1026,-3.0999,-3.0999,-3.0973,-3.0973,-3.0973,-3.0973,-3.0973,-3.0973,-3.0973,-3.0973,-3.0973,-3.0973,-3.0973,-3.0973,-3.0973,-3.0973,-3.0973,-3.0973,-3.0973,-3.0973,-3.0738,-3.0555,-3.0346,-3.0131,-3.0322,-3.0405,-3.0368,-3.0392,-3.046,-3.0378,-3.0199,-3.0148,-3.0144,-3.0568,-3.0955,-3.139,-3.1485,-3.1304,-3.1151,-3.0966,-3.0689,-3.0443,-3.0228,-3.0228,-3.0001,-2.972,-2.9645,-2.9601,-2.9592,-2.9596,-2.9783,-2.9932,-2.9778,-2.9944,-4.3649,-4.413,-4.413,-4.413,-4.4154,-4.4275,-4.4251,-4.4082,-4.3697,-4.3361,-4.312,-4.2708,-4.2365,-4.2622,-4.3954,-4.4685,-4.4699,-4.5017,-4.546,-4.588,-4.6075,-4.5974,-4.5723,-4.5372,-4.497,-4.4418,-4.4066,-4.3438,-4.2986,-4.2811,-4.271,-4.2333,-4.1856,-4.1279,-4.0727,-4.0249,-3.9923,-3.9647,-3.932,-3.8743,-3.804,-3.7613,-3.7036,-3.6584,-3.6358,-3.6358,-3.6377,-3.5991,-3.5552,-3.5111,-3.4527,-3.3944,-3.3573,-3.3395,-3.3199,-3.3039,-3.2998,-3.2616,-3.1837,-3.1418,-3.1235,-3.1156,-3.1026,-3.0973,-3.0973,-3.0973,-3.0973,-3.0973,-3.0973,-3.0973,-3.0973,-3.0973,-3.0973,-3.0973,-3.0973,-3.0973,-3.0973,-3.0973,-3.0973,-3.0973,-3.0973,-3.0973,-3.0869,-3.0921,-3.1018,-3.1241,-3.1223,-3.1164,-3.1116,-3.1054,-3.0779,-3.0572,-3.0453,-3.034,-3.0597,-3.1073,-3.1539,-3.1819,-3.1641,-3.162,-3.152,-3.1336,-3.1173,-3.0988,-3.0803,-3.0949,-3.1029,-3.0873,-3.0717,-3.062,-3.0545,-3.0543,-3.0505,-3.0319,-3.0117,-4.312,-4.3577,-4.3553,-4.3601,-4.3625,-4.413,-4.4034,-4.3577,-4.3481,-4.3119,-4.2701,-4.3154,-4.359,-4.4077,-4.4339,-4.5022,-4.5519,-4.5554,-4.5497,-4.5472,-4.5522,-4.5246,-4.4995,-4.4744,-4.4418,-4.3991,-4.3614,-4.3037,-4.2534,-4.2585,-4.276,-4.2836,-4.2158,-4.1731,-4.1178,-4.0501,-4.0023,-3.9772,-3.9546,-3.8969,-3.8291,-3.7814,-3.7362,-3.6584,-3.6358,-3.6358,-3.6332,-3.5974,-3.5578,-3.5251,-3.4742,-3.4168,-3.3794,-3.3725,-3.3527,-3.3354,-3.339,-3.3138,-3.2619,-3.2071,-3.1784,-3.1627,-3.1339,-3.0973,-3.0973,-3.0973,-3.0973,-3.0973,-3.0973,-3.0973,-3.0973,-3.0973,-3.0973,-3.0973,-3.0973,-3.0973,-3.0973,-3.0973,-3.0973,-3.0973,-3.0973,-3.0973,-3.0973,-3.0973,-3.1272,-3.1442,-3.1809,-3.1748,-3.1553,-3.1459,-3.1104,-3.0909,-3.0729,-3.0711,-3.0652,-3.1043,-3.1394,-3.1796,-3.1891,-3.2026,-3.2112,-3.1951,-3.1674,-3.1805,-3.165,-3.2029,-3.2258,-3.1943,-3.1647,-3.1564,-3.1502,-3.1437,-3.137,-3.1269,-3.0797,-4.2399,-4.2591,-4.2904,-4.3241,-4.3529,-4.3892,-4.3796,-4.3288,-4.3187,-4.2769,-4.2315,-4.3086,-4.3375,-4.3515,-4.3995,-4.4311,-4.4552,-4.4077,-4.4418,-4.4669,-4.4644,-4.4543,-4.4392,-4.4217,-4.3991,-4.3664,-4.3212,-4.2685,-4.2258,-4.2208,-4.1957,-4.1932,-4.2082,-4.1806,-4.1279,-4.0501,-3.9973,-3.9798,-3.9622,-3.912,-3.8241,-3.7939,-3.7487,-3.6483,-3.6546,-3.6521,-3.659,-3.6743,-3.6197,-3.5647,-3.53,-3.4658,-3.4049,-3.392,-3.385,-3.3752,-3.3783,-3.3792,-3.348,-3.2855,-3.2228,-3.1757,-3.1339,-3.0973,-3.0973,-3.0973,-3.0973,-3.0973,-3.0973,-3.0973,-3.0973,-3.0973,-3.0973,-3.0973,-3.0973,-3.0973,-3.0973,-3.0973,-3.0973,-3.0973,-3.0973,-3.0973,-3.0973,-3.0973,-3.1347,-3.1616,-3.2055,-3.2335,-3.2066,-3.1944,-3.1623,-3.1349,-3.1171,-3.1013,-3.0964,-3.1159,-3.1307,-3.1682,-3.2023,-3.2135,-3.2216,-3.2272,-3.2026,-3.2276,-3.2462,-3.2635,-3.2699,-3.2697,-3.2565,-3.2382,-3.2305,-3.2321,-3.2239,-3.2125,-3.1639,-4.1938,-4.2107,-4.2493,-4.3024,-4.3602,-4.3917,-4.3746,-4.333,-4.3051,-4.2602,-4.2248,-4.3084,-4.3273,-4.3187,-4.3501,-4.384,-4.379,-4.3438,-4.3463,-4.3514,-4.3539,-4.3564,-4.3639,-4.3564,-4.3288,-4.3288,-4.2936,-4.2409,-4.2133,-4.1756,-4.1756,-4.1806,-4.1731,-4.1505,-4.0978,-4.0249,-3.9697,-3.9697,-3.9622,-3.927,-3.8391,-3.8139,-3.7761,-3.69,-3.6861,-3.6828,-3.6922,-3.698,-3.665,-3.6096,-3.5642,-3.515,-3.4588,-3.4147,-3.4147,-3.423,-3.4314,-3.4397,-3.411,-3.3378,-3.2463,-3.1888,-3.1313,-3.1052,-3.0973,-3.0973,-3.0973,-3.0973,-3.0973,-3.0973,-3.0973,-3.0973,-3.0973,-3.0973,-3.0973,-3.0973,-3.0973,-3.0973,-3.0973,-3.0973,-3.0973,-3.0973,-3.1048,-3.1123,-3.1198,-3.1495,-3.169,-3.2055,-3.2208,-3.2191,-3.2194,-3.1954,-3.1696,-3.146,-3.13,-3.1387,-3.1456,-3.148,-3.1796,-3.191,-3.1966,-3.2079,-3.2247,-3.2321,-3.2594,-3.3011,-3.3235,-3.3272,-3.3214,-3.3123,-3.3111,-3.308,-3.287,-3.2676,-3.2417,-4.1922,-4.2384,-4.2433,-4.3041,-4.3892,-4.4014,-4.3793,-4.3512,-4.3044,-4.2757,-4.2538,-4.3325,-4.3614,-4.3489,-4.3363,-4.3363,-4.3288,-4.2936,-4.2685,-4.2409,-4.2308,-4.2258,-4.2359,-4.2409,-4.271,-4.2936,-4.2735,-4.2434,-4.2158,-4.1907,-4.1932,-4.1781,-4.1505,-4.1128,-4.0551,-3.9998,-3.9722,-3.9697,-3.9697,-3.932,-3.8894,-3.8515,-3.8108,-3.7495,-3.7373,-3.7288,-3.7108,-3.7201,-3.6819,-3.603,-3.5911,-3.5375,-3.4497,-3.434,-3.4314,-3.4397,-3.4397,-3.4397,-3.4319,-3.33,-3.2594,-3.1967,-3.1444,-3.1026,-3.0973,-3.0973,-3.0973,-3.0973,-3.0973,-3.0973,-3.0973,-3.0973,-3.0973,-3.0973,-3.0973,-3.0973,-3.0973,-3.0973,-3.0973,-3.0973,-3.0973,-3.1048,-3.1123,-3.1198,-3.1198,-3.1347,-3.1495,-3.1763,-3.22,-3.2522,-3.2626,-3.2347,-3.2038,-3.2018,-3.184,-3.1608,-3.163,-3.1604,-3.1595,-3.1739,-3.1796,-3.191,-3.2079,-3.2302,-3.2742,-3.315,-3.3539,-3.3866,-3.3705,-3.3627,-3.3806,-3.3777,-3.3518,-3.3259,-3.3032,-4.1972,-4.2781,-4.2781,-4.3315,-4.3998,-4.3678,-4.335,-4.2995,-4.2861,-4.2737,-4.2424,-4.266,-4.2459,-4.2283,-4.2233,-4.2233,-4.2108,-4.163,-4.1229,-4.158,-4.1279,-4.1379,-4.158,-4.1957,-4.2233,-4.2384,-4.2409,-4.2459,-4.2158,-4.1932,-4.1681,-4.148,-4.1128,-4.0727,-4.0425,-4.0023,-3.9697,-3.9697,-3.9647,-3.9421,-3.902,-3.8943,-3.8536,-3.7769,-3.7869,-3.7774,-3.7438,-3.7505,-3.7027,-3.6207,-3.6051,-3.5539,-3.4711,-3.445,-3.4424,-3.4424,-3.4397,-3.4397,-3.4241,-3.3666,-3.3038,-3.2333,-3.1601,-3.1078,-3.0973,-3.0973,-3.0973,-3.0973,-3.0973,-3.0973,-3.0973,-3.0973,-3.0973,-3.0973,-3.0973,-3.0973,-3.0973,-3.0973,-3.0973,-3.0973,-3.0973,-3.0973,-3.1048,-3.1123,-3.1123,-3.1421,-3.1569,-3.1763,-3.22,-3.2731,-3.3017,-3.2681,-3.2416,-3.2393,-3.2339,-3.2217,-3.2009,-3.1931,-3.1779,-3.1625,-3.1712,-3.1769,-3.191,-3.2135,-3.2742,-3.3277,-3.3591,-3.3899,-3.4,-3.4068,-3.4101,-3.4101,-3.3841,-3.3777,-3.3777,-4.1632,-4.2421,-4.2445,-4.2757,-4.3308,-4.3333,-4.3035,-4.2762,-4.2674,-4.2484,-4.2183,-4.1982,-4.1731,-4.1404,-4.1153,-4.1053,-4.1003,-4.0501,-4.03,-4.0727,-4.045,-4.0626,-4.1078,-4.1605,-4.1957,-4.2108,-4.2359,-4.2459,-4.2459,-4.1907,-4.1455,-4.1053,-4.0701,-4.0425,-4.0174,-3.9848,-3.9697,-3.9697,-3.975,-3.9752,-3.95,-3.9371,-3.9111,-3.8492,-3.8316,-3.8262,-3.7872,-3.7652,-3.7456,-3.6698,-3.6253,-3.5861,-3.5077,-3.4685,-3.4607,-3.4502,-3.4397,-3.4397,-3.4267,-3.3875,-3.3247,-3.2646,-3.1784,-3.1261,-3.1052,-3.0973,-3.0973,-3.0973,-3.0973,-3.0973,-3.0973,-3.0973,-3.0973,-3.0973,-3.0973,-3.0973,-3.0973,-3.0973,-3.0973,-3.0973,-3.0973,-3.0973,-3.0973,-3.0973,-3.1048,-3.1347,-3.169,-3.1909,-3.22,-3.266,-3.3157,-3.2947,-3.2751,-3.2788,-3.2768,-3.2703,-3.2474,-3.2226,-3.205,-3.1925,-3.1655,-3.1739,-3.1883,-3.2053,-3.2633,-3.3171,-3.3591,-3.3848,-3.4,-3.4101,-3.4101,-3.4101,-3.4101,-3.4101,-3.4101,-4.1196,-4.1643,-4.1693,-4.1718,-4.1892,-4.2761,-4.3112,-4.2861,-4.2359,-4.2108,-4.2032,-4.1455,-4.1204,-4.1103,-4.0701,-4.0501,-4.045,-3.9973,-3.9898,-3.9848,-3.9873,-4.0149,-4.0526,-4.1053,-4.143,-4.2032,-4.2384,-4.2434,-4.2785,-4.2283,-4.153,-4.0802,-4.0576,-4.0249,-3.9948,-3.9747,-3.9697,-3.98,-3.9878,-3.9905,-3.9855,-3.9876,-3.9535,-3.8988,-3.8713,-3.8382,-3.799,-3.7821,-3.7508,-3.7116,-3.6907,-3.6253,-3.5704,-3.5312,-3.492,-3.458,-3.4397,-3.4397,-3.4319,-3.3901,-3.3483,-3.2934,-3.2254,-3.1653,-3.1182,-3.0973,-3.0973,-3.0973,-3.0973,-3.0973,-3.0973,-3.0973,-3.0973,-3.0973,-3.0973,-3.0973,-3.0973,-3.0973,-3.0973,-3.0973,-3.0973,-3.0973,-3.0973,-3.0973,-3.1048,-3.1272,-3.1569,-3.1909,-3.22,-3.2489,-3.2945,-3.3227,-3.3129,-3.3127,-3.3168,-3.3136,-3.3182,-3.2968,-3.2676,-3.2432,-3.2131,-3.1856,-3.191,-3.2191,-3.2687,-3.3171,-3.3694,-3.3949,-3.405,-3.4101,-3.4101,-3.4101,-3.4101,-3.4101,-3.4101,-4.0971,-4.1447,-4.1472,-4.1339,-4.1572,-4.2223,-4.2198,-4.1831,-4.1605,-4.1404,-4.0978,-4.0827,-4.0626,-4.0149,-3.9998,-3.9973,-3.9873,-3.9772,-3.9747,-3.9697,-3.9697,-3.9798,-4.0099,-4.0526,-4.0827,-4.1153,-4.158,-4.2108,-4.2283,-4.2133,-4.153,-4.0676,-4.0475,-4.0124,-3.9873,-3.9697,-3.9697,-3.98,-3.9981,-4.0083,-4.0134,-4.0127,-3.9685,-3.931,-3.8929,-3.8449,-3.8057,-3.79,-3.7586,-3.7168,-3.7037,-3.6567,-3.5992,-3.5521,-3.5025,-3.4502,-3.4397,-3.4397,-3.4371,-3.4241,-3.3875,-3.33,-3.2725,-3.1914,-3.1339,-3.0999,-3.0999,-3.0973,-3.0973,-3.0973,-3.0973,-3.0973,-3.0973,-3.0973,-3.0973,-3.0973,-3.0973,-3.0973,-3.0973,-3.0973,-3.0973,-3.0973,-3.0973,-3.0973,-3.1048,-3.1198,-3.1421,-3.1836,-3.22,-3.2561,-3.2846,-3.3157,-3.3368,-3.3338,-3.3539,-3.3636,-3.368,-3.365,-3.3427,-3.3091,-3.2695,-3.2448,-3.2231,-3.2358,-3.285,-3.3382,-3.3949,-3.4101,-3.4101,-3.4101,-3.4101,-3.4101,-3.4101,-3.4101,-3.4101,-4.0526,-4.0978,-4.1003,-4.1003,-4.1078,-4.1354,-4.1304,-4.1103,-4.1455,-4.1354,-4.0852,-4.0626,-4.0224,-3.9798,-3.9747,-3.9722,-3.9722,-3.9722,-3.9697,-3.9697,-3.9697,-3.9722,-3.9898,-4.0224,-4.0526,-4.0701,-4.1028,-4.1605,-4.1731,-4.153,-4.1003,-4.0576,-4.0375,-4.0023,-3.9772,-3.98,-3.9878,-3.9981,-4.0083,-4.0287,-4.026,-4.0201,-3.9855,-3.9381,-3.8903,-3.8449,-3.8004,-3.79,-3.7665,-3.7403,-3.7351,-3.7063,-3.641,-3.5757,-3.5051,-3.4528,-3.4397,-3.4397,-3.4397,-3.4397,-3.4084,-3.3639,-3.3064,-3.228,-3.1627,-3.1182,-3.1078,-3.0973,-3.0973,-3.0973,-3.0973,-3.0973,-3.0973,-3.0973,-3.0973,-3.0973,-3.0973,-3.0973,-3.0973,-3.0973,-3.0973,-3.0973,-3.0973,-3.0973,-3.1123,-3.1347,-3.1569,-3.1909,-3.2345,-3.2803,-3.3016,-3.3255,-3.3466,-3.3548,-3.379,-3.4022,-3.4257,-3.4349,-3.4455,-3.4057,-3.3417,-3.2982,-3.2757,-3.2819,-3.3011,-3.3539,-3.4,-3.405,-3.4101,-3.4101,-3.4101,-3.4101,-3.4101,-3.4101,-3.4101,-3.9998,-4.045,-4.045,-4.0501,-4.0526,-4.0601,-4.0626,-4.0676,-4.1605,-4.1806,-4.1254,-4.0827,-4.0375,-4.0124,-4.0074,-3.9948,-3.9923,-3.9898,-3.9798,-3.9697,-3.9697,-3.9747,-3.9998,-4.0224,-4.04,-4.0651,-4.0852,-4.1084,-4.1028,-4.0902,-4.0727,-4.0425,-4.0102,-3.9825,-3.9928,-4.0083,-4.0185,-4.0262,-4.0262,-4.0387,-4.0459,-4.0421,-4.0095,-3.9494,-3.8919,-3.8397,-3.8031,-3.79,-3.79,-3.79,-3.7717,-3.7429,-3.6671,-3.5861,-3.5077,-3.4685,-3.4502,-3.4397,-3.4397,-3.4397,-3.4162,-3.3692,-3.3117,-3.2568,-3.2045,-3.1287,-3.1026,-3.0999,-3.0973,-3.0973,-3.0973,-3.0973,-3.0973,-3.0973,-3.0973,-3.0973,-3.0973,-3.0973,-3.0973,-3.0973,-3.0973,-3.1048,-3.1198,-3.1272,-3.1421,-3.1569,-3.1836,-3.22,-3.2489,-3.2945,-3.3157,-3.3326,-3.3396,-3.3605,-3.4031,-3.433,-3.4747,-3.4961,-3.5095,-3.4726,-3.3897,-3.349,-3.3315,-3.3248,-3.3203,-3.3539,-3.3899,-3.4,-3.4101,-3.4101,-3.4101,-3.4101,-3.4101,-3.4101,-3.4101,-3.9954,-3.9898,-3.9898,-4.0124,-4.0475,-4.0526,-4.0727,-4.1128,-4.1379,-4.1455,-4.1329,-4.1178,-4.1028,-4.0827,-4.0802,-4.0626,-4.0249,-4.0149,-4.0023,-3.9798,-3.9697,-3.9973,-4.0174,-4.0354,-4.0455,-4.0505,-4.0555,-4.0559,-4.03,-4.03,-4.0379,-4.0234,-3.9955,-4.0007,-4.0109,-4.0287,-4.0312,-4.0336,-4.0205,-4.0124,-4.0068,-3.9875,-3.952,-3.8972,-3.8423,-3.8135,-3.79,-3.79,-3.79,-3.7874,-3.7429,-3.6933,-3.6305,-3.5652,-3.5286,-3.5051,-3.4607,-3.445,-3.4397,-3.4397,-3.4267,-3.4084,-3.3613,-3.3091,-3.2411,-3.1522,-3.1026,-3.0999,-3.0973,-3.0973,-3.0973,-3.0973,-3.0973,-3.0973,-3.0973,-3.0973,-3.0973,-3.1048,-3.1048,-3.0973,-3.0973,-3.1198,-3.1347,-3.1569,-3.169,-3.1909,-3.2273,-3.2561,-3.2704,-3.3016,-3.3157,-3.3326,-3.3326,-3.3605,-3.4059,-3.4476,-3.486,-3.5135,-3.5213,-3.485,-3.4263,-3.3583,-3.3023,-3.3208,-3.3361,-3.3642,-3.3848,-3.405,-3.4101,-3.4101,-3.4101,-3.4101,-3.4101,-3.4101,-3.4101,-3.9525,-3.9346,-3.932,-3.9346,-3.9446,-3.9672,-3.9973,-4.0275,-4.0752,-4.1103,-4.1329,-4.1329,-4.1329,-4.1329,-4.1329,-4.0902,-4.04,-4.0425,-3.9898,-3.9572,-3.9848,-4.0224,-4.043,-4.048,-4.053,-4.053,-4.0178,-3.9951,-3.9825,-4.008,-4.0208,-4.0007,-3.9982,-4.0006,-4.0081,-4.0027,-3.9999,-4.0094,-3.9907,-3.9699,-3.9492,-3.9268,-3.9102,-3.8606,-3.8266,-3.7978,-3.79,-3.79,-3.79,-3.7743,-3.7351,-3.6541,-3.5966,-3.5469,-3.5155,-3.4868,-3.458,-3.4397,-3.4397,-3.4397,-3.4397,-3.4214,-3.3587,-3.2855,-3.2568,-3.1705,-3.1052,-3.0973,-3.0973,-3.0973,-3.0973,-3.0973,-3.0973,-3.0973,-3.1048,-3.1048,-3.1123,-3.1272,-3.1198,-3.1198,-3.1272,-3.1495,-3.1643,-3.1763,-3.1909,-3.2273,-3.2632,-3.2846,-3.3016,-3.3086,-3.3227,-3.3326,-3.3326,-3.3536,-3.4059,-3.4467,-3.4876,-3.5155,-3.5296,-3.4757,-3.4091,-3.3295,-3.2788,-3.3068,-3.3372,-3.3591,-3.3797,-3.4,-3.4101,-3.4101,-3.4101,-3.4101,-3.4101,-3.4101,-3.4101,-3.9095,-3.8868,-3.8894,-3.8668,-3.8316,-3.8693,-3.8944,-3.9069,-3.9798,-4.045,-4.0827,-4.0877,-4.1128,-4.1505,-4.1379,-4.0676,-4.03,-4.045,-3.9873,-3.9572,-3.9948,-4.0249,-4.037,-4.052,-4.0526,-4.0304,-3.9979,-3.9802,-3.9676,-3.9855,-3.9829,-3.993,-3.9776,-3.9517,-3.9488,-3.9452,-3.9466,-3.9466,-3.9381,-3.9138,-3.8945,-3.8684,-3.8658,-3.8475,-3.8187,-3.7926,-3.79,-3.79,-3.79,-3.7586,-3.7194,-3.6332,-3.5652,-3.5182,-3.5025,-3.4737,-3.4528,-3.4424,-3.4397,-3.4397,-3.4397,-3.4162,-3.3273,-3.2751,-3.2489,-3.194,-3.1287,-3.0973,-3.0973,-3.0973,-3.0973,-3.0973,-3.0973,-3.1048,-3.1048,-3.1123,-3.1347,-3.1495,-3.1495,-3.1421,-3.1569,-3.179,-3.1936,-3.2055,-3.2273,-3.2632,-3.2846,-3.3016,-3.3157,-3.3157,-3.3255,-3.3326,-3.3326,-3.3646,-3.3991,-3.4332,-3.4668,-3.4942,-3.4966,-3.4468,-3.3967,-3.3126,-3.2806,-3.3084,-3.336,-3.3582,-3.3829,-3.405,-3.405,-3.4101,-3.4101,-3.4101,-3.4101,-3.4101,-3.4101,-3.884,-3.8868,-3.8868,-3.9019,-3.9245,-3.9019,-3.8868,-3.8818,-3.8592,-3.8818,-3.9371,-3.9572,-4.035,-4.2585,-4.2158,-4.143,-4.0601,-4.0576,-4.0174,-3.9772,-3.9923,-4.0174,-4.045,-4.057,-4.0686,-4.0337,-3.9829,-3.9474,-3.9473,-3.9242,-3.9184,-3.9406,-3.9329,-3.9343,-3.9537,-3.9425,-3.932,-3.9216,-3.8955,-3.8762,-3.8762,-3.8579,-3.8397,-3.8214,-3.7952,-3.79,-3.79,-3.79,-3.79,-3.7586,-3.6881,-3.5992,-3.5365,-3.4894,-3.4763,-3.4763,-3.458,-3.4424,-3.4397,-3.4397,-3.4397,-3.4319,-3.3561,-3.3012,-3.262,-3.2019,-3.1444,-3.1026,-3.0973,-3.0973,-3.0973,-3.0973,-3.0973,-3.1048,-3.1123,-3.1347,-3.1569,-3.179,-3.189,-3.1863,-3.2009,-3.2155,-3.2273,-3.2417,-3.2704,-3.2917,-3.3086,-3.3227,-3.3227,-3.3255,-3.3326,-3.3326,-3.3326,-3.3507,-3.3785,-3.3962,-3.4303,-3.4543,-3.4655,-3.4221,-3.3735,-3.3004,-3.2881,-3.3301,-3.3396,-3.3551,-3.377,-3.4277,-3.4165,-3.4165,-3.4101,-3.4101,-3.4101,-3.4101,-3.4101]}]]